<?xml version="1.0" encoding="UTF-8"?>
<gpx version="1.1" creator="Endomondo.com" xsi:schemaLocation="http://www.topografix.com/GPX/1/1 http://www.topografix.com/GPX/1/1/gpx.xsd http://www.garmin.com/xmlschemas/GpxExtensions/v3 http://www.garmin.com/xmlschemas/GpxExtensionsv3.xsd http://www.garmin.com/xmlschemas/TrackPointExtension/v1 http://www.garmin.com/xmlschemas/TrackPointExtensionv1.xsd" xmlns="http://www.topografix.com/GPX/1/1" xmlns:gpxtpx="http://www.garmin.com/xmlschemas/TrackPointExtension/v1" xmlns:gpxx="http://www.garmin.com/xmlschemas/GpxExtensions/v3" xmlns:xsi="http://www.w3.org/2001/XMLSchema-instance">
  <metadata>
    <author>
      <name>Isoz Steeve</name>
      <email id="isocolt" domain="gmail.com"/>
    </author>
    <link href="http://www.endomondo.com">
      <text>Endomondo</text>
    </link>
    <time>2012-04-30T17:50:54Z</time>
    <bounds minlat="46.543563" minlon="6.769976" maxlat="46.543551" maxlon="6.770055"/>
  </metadata>
  <trk>
    <src>http://www.endomondo.com/</src>
    <link href="http://www.endomondo.com/workouts/uESIxGiRVYE">
      <text>endomondo</text>
    </link>
    <type>MOUNTAIN_BIKING</type>
    <trkseg>
      <trkpt lat="46.543563" lon="6.769976">
        <time>2012-03-30T14:14:03Z</time>
      </trkpt>
      <trkpt lat="46.543563" lon="6.769976">
        <ele>794.0</ele>
        <time>2012-03-30T14:14:07Z</time>
      </trkpt>
      <trkpt lat="46.543711" lon="6.770041">
        <ele>794.0</ele>
        <time>2012-03-30T14:14:15Z</time>
      </trkpt>
      <trkpt lat="46.543798" lon="6.77008">
        <ele>794.0</ele>
        <time>2012-03-30T14:14:18Z</time>
      </trkpt>
      <trkpt lat="46.543733" lon="6.770332">
        <ele>794.0</ele>
        <time>2012-03-30T14:14:23Z</time>
      </trkpt>
      <trkpt lat="46.543598" lon="6.770578">
        <ele>791.0</ele>
        <time>2012-03-30T14:14:26Z</time>
      </trkpt>
      <trkpt lat="46.543564" lon="6.770704">
        <ele>790.0</ele>
        <time>2012-03-30T14:14:29Z</time>
      </trkpt>
      <trkpt lat="46.543588" lon="6.770897">
        <ele>790.0</ele>
        <time>2012-03-30T14:14:34Z</time>
      </trkpt>
      <trkpt lat="46.543698" lon="6.771048">
        <ele>790.0</ele>
        <time>2012-03-30T14:14:38Z</time>
      </trkpt>
      <trkpt lat="46.543824" lon="6.771171">
        <ele>790.0</ele>
        <time>2012-03-30T14:14:42Z</time>
      </trkpt>
      <trkpt lat="46.54387" lon="6.771369">
        <ele>790.0</ele>
        <time>2012-03-30T14:14:45Z</time>
      </trkpt>
      <trkpt lat="46.543852" lon="6.771704">
        <ele>789.0</ele>
        <time>2012-03-30T14:14:51Z</time>
      </trkpt>
      <trkpt lat="46.543831" lon="6.771803">
        <ele>788.0</ele>
        <time>2012-03-30T14:14:54Z</time>
      </trkpt>
      <trkpt lat="46.543782" lon="6.771997">
        <ele>787.0</ele>
        <time>2012-03-30T14:14:58Z</time>
      </trkpt>
      <trkpt lat="46.543735" lon="6.772188">
        <ele>787.0</ele>
        <time>2012-03-30T14:15:03Z</time>
      </trkpt>
      <trkpt lat="46.543717" lon="6.772294">
        <ele>787.0</ele>
        <time>2012-03-30T14:15:06Z</time>
      </trkpt>
      <trkpt lat="46.543709" lon="6.772494">
        <ele>787.0</ele>
        <time>2012-03-30T14:15:11Z</time>
      </trkpt>
      <trkpt lat="46.543771" lon="6.772547">
        <ele>786.0</ele>
        <time>2012-03-30T14:15:14Z</time>
      </trkpt>
      <trkpt lat="46.543829" lon="6.772601">
        <ele>786.0</ele>
        <time>2012-03-30T14:15:17Z</time>
      </trkpt>
      <trkpt lat="46.543897" lon="6.772661">
        <ele>786.0</ele>
        <time>2012-03-30T14:15:21Z</time>
      </trkpt>
      <trkpt lat="46.544037" lon="6.772809">
        <ele>786.0</ele>
        <time>2012-03-30T14:15:26Z</time>
      </trkpt>
      <trkpt lat="46.544275" lon="6.773024">
        <ele>786.0</ele>
        <time>2012-03-30T14:15:34Z</time>
      </trkpt>
      <trkpt lat="46.544395" lon="6.773122">
        <ele>786.0</ele>
        <time>2012-03-30T14:15:38Z</time>
      </trkpt>
      <trkpt lat="46.54445" lon="6.773171">
        <ele>786.0</ele>
        <time>2012-03-30T14:15:40Z</time>
      </trkpt>
      <trkpt lat="46.544644" lon="6.773343">
        <ele>787.0</ele>
        <time>2012-03-30T14:15:48Z</time>
      </trkpt>
      <trkpt lat="46.544748" lon="6.773459">
        <ele>788.0</ele>
        <time>2012-03-30T14:15:52Z</time>
      </trkpt>
      <trkpt lat="46.544749" lon="6.773739">
        <ele>788.0</ele>
        <time>2012-03-30T14:15:57Z</time>
      </trkpt>
      <trkpt lat="46.544689" lon="6.774083">
        <ele>792.0</ele>
        <time>2012-03-30T14:16:04Z</time>
      </trkpt>
      <trkpt lat="46.544584" lon="6.774375">
        <ele>793.0</ele>
        <time>2012-03-30T14:16:08Z</time>
      </trkpt>
      <trkpt lat="46.544439" lon="6.774764">
        <ele>794.0</ele>
        <time>2012-03-30T14:16:12Z</time>
      </trkpt>
      <trkpt lat="46.544329" lon="6.775081">
        <ele>794.0</ele>
        <time>2012-03-30T14:16:15Z</time>
      </trkpt>
      <trkpt lat="46.544234" lon="6.775302">
        <ele>794.0</ele>
        <time>2012-03-30T14:16:19Z</time>
      </trkpt>
      <trkpt lat="46.54419" lon="6.775544">
        <ele>793.0</ele>
        <time>2012-03-30T14:16:22Z</time>
      </trkpt>
      <trkpt lat="46.544209" lon="6.775855">
        <ele>792.0</ele>
        <time>2012-03-30T14:16:27Z</time>
      </trkpt>
      <trkpt lat="46.544224" lon="6.776177">
        <ele>792.0</ele>
        <time>2012-03-30T14:16:31Z</time>
      </trkpt>
      <trkpt lat="46.544241" lon="6.776479">
        <ele>791.0</ele>
        <time>2012-03-30T14:16:35Z</time>
      </trkpt>
      <trkpt lat="46.544253" lon="6.776766">
        <ele>791.0</ele>
        <time>2012-03-30T14:16:39Z</time>
      </trkpt>
      <trkpt lat="46.544259" lon="6.777041">
        <ele>791.0</ele>
        <time>2012-03-30T14:16:43Z</time>
      </trkpt>
      <trkpt lat="46.544276" lon="6.777308">
        <ele>791.0</ele>
        <time>2012-03-30T14:16:47Z</time>
      </trkpt>
      <trkpt lat="46.54428" lon="6.777438">
        <ele>791.0</ele>
        <time>2012-03-30T14:16:49Z</time>
      </trkpt>
      <trkpt lat="46.544304" lon="6.777837">
        <ele>791.0</ele>
        <time>2012-03-30T14:16:54Z</time>
      </trkpt>
      <trkpt lat="46.544332" lon="6.778137">
        <ele>791.0</ele>
        <time>2012-03-30T14:16:58Z</time>
      </trkpt>
      <trkpt lat="46.544381" lon="6.778571">
        <ele>792.0</ele>
        <time>2012-03-30T14:17:04Z</time>
      </trkpt>
      <trkpt lat="46.544499" lon="6.778943">
        <ele>792.0</ele>
        <time>2012-03-30T14:17:08Z</time>
      </trkpt>
      <trkpt lat="46.544658" lon="6.779281">
        <ele>792.0</ele>
        <time>2012-03-30T14:17:12Z</time>
      </trkpt>
      <trkpt lat="46.544825" lon="6.77964">
        <ele>791.0</ele>
        <time>2012-03-30T14:17:16Z</time>
      </trkpt>
      <trkpt lat="46.544997" lon="6.780022">
        <ele>791.0</ele>
        <time>2012-03-30T14:17:20Z</time>
      </trkpt>
      <trkpt lat="46.545158" lon="6.780438">
        <ele>790.0</ele>
        <time>2012-03-30T14:17:24Z</time>
      </trkpt>
      <trkpt lat="46.545289" lon="6.780899">
        <ele>790.0</ele>
        <time>2012-03-30T14:17:28Z</time>
      </trkpt>
      <trkpt lat="46.545402" lon="6.781383">
        <ele>790.0</ele>
        <time>2012-03-30T14:17:32Z</time>
      </trkpt>
      <trkpt lat="46.545485" lon="6.781749">
        <ele>790.0</ele>
        <time>2012-03-30T14:17:35Z</time>
      </trkpt>
      <trkpt lat="46.545546" lon="6.782359">
        <ele>787.0</ele>
        <time>2012-03-30T14:17:40Z</time>
      </trkpt>
      <trkpt lat="46.545461" lon="6.782859">
        <ele>784.0</ele>
        <time>2012-03-30T14:17:44Z</time>
      </trkpt>
      <trkpt lat="46.545333" lon="6.783386">
        <ele>781.0</ele>
        <time>2012-03-30T14:17:48Z</time>
      </trkpt>
      <trkpt lat="46.545201" lon="6.783934">
        <ele>779.0</ele>
        <time>2012-03-30T14:17:51Z</time>
      </trkpt>
      <trkpt lat="46.545063" lon="6.784485">
        <ele>779.0</ele>
        <time>2012-03-30T14:17:55Z</time>
      </trkpt>
      <trkpt lat="46.544996" lon="6.784755">
        <ele>778.0</ele>
        <time>2012-03-30T14:17:57Z</time>
      </trkpt>
      <trkpt lat="46.545009" lon="6.785572">
        <ele>778.0</ele>
        <time>2012-03-30T14:18:04Z</time>
      </trkpt>
      <trkpt lat="46.545142" lon="6.786089">
        <ele>777.0</ele>
        <time>2012-03-30T14:18:07Z</time>
      </trkpt>
      <trkpt lat="46.545279" lon="6.786463">
        <ele>776.0</ele>
        <time>2012-03-30T14:18:11Z</time>
      </trkpt>
      <trkpt lat="46.54554" lon="6.787027">
        <ele>773.0</ele>
        <time>2012-03-30T14:18:15Z</time>
      </trkpt>
      <trkpt lat="46.545694" lon="6.787378">
        <ele>772.0</ele>
        <time>2012-03-30T14:18:18Z</time>
      </trkpt>
      <trkpt lat="46.545942" lon="6.787943">
        <ele>770.0</ele>
        <time>2012-03-30T14:18:23Z</time>
      </trkpt>
      <trkpt lat="46.546182" lon="6.788388">
        <ele>766.0</ele>
        <time>2012-03-30T14:18:27Z</time>
      </trkpt>
      <trkpt lat="46.546344" lon="6.788841">
        <ele>761.0</ele>
        <time>2012-03-30T14:18:31Z</time>
      </trkpt>
      <trkpt lat="46.546481" lon="6.789294">
        <ele>759.0</ele>
        <time>2012-03-30T14:18:35Z</time>
      </trkpt>
      <trkpt lat="46.54661" lon="6.789742">
        <ele>758.0</ele>
        <time>2012-03-30T14:18:39Z</time>
      </trkpt>
      <trkpt lat="46.546736" lon="6.790192">
        <ele>757.0</ele>
        <time>2012-03-30T14:18:43Z</time>
      </trkpt>
      <trkpt lat="46.546846" lon="6.790649">
        <ele>757.0</ele>
        <time>2012-03-30T14:18:48Z</time>
      </trkpt>
      <trkpt lat="46.546998" lon="6.791091">
        <ele>756.0</ele>
        <time>2012-03-30T14:18:51Z</time>
      </trkpt>
      <trkpt lat="46.547073" lon="6.791312">
        <ele>756.0</ele>
        <time>2012-03-30T14:18:53Z</time>
      </trkpt>
      <trkpt lat="46.54729" lon="6.791944">
        <ele>755.0</ele>
        <time>2012-03-30T14:18:59Z</time>
      </trkpt>
      <trkpt lat="46.547444" lon="6.792332">
        <ele>754.0</ele>
        <time>2012-03-30T14:19:03Z</time>
      </trkpt>
      <trkpt lat="46.547593" lon="6.792678">
        <ele>754.0</ele>
        <time>2012-03-30T14:19:07Z</time>
      </trkpt>
      <trkpt lat="46.547367" lon="6.792851">
        <ele>750.0</ele>
        <time>2012-03-30T14:19:15Z</time>
      </trkpt>
      <trkpt lat="46.547276" lon="6.792796">
        <ele>750.0</ele>
        <time>2012-03-30T14:19:17Z</time>
      </trkpt>
      <trkpt lat="46.547006" lon="6.7925">
        <ele>750.0</ele>
        <time>2012-03-30T14:19:24Z</time>
      </trkpt>
      <trkpt lat="46.546777" lon="6.792367">
        <ele>749.0</ele>
        <time>2012-03-30T14:19:28Z</time>
      </trkpt>
      <trkpt lat="46.546574" lon="6.792281">
        <ele>748.0</ele>
        <time>2012-03-30T14:19:31Z</time>
      </trkpt>
      <trkpt lat="46.546236" lon="6.792166">
        <ele>746.0</ele>
        <time>2012-03-30T14:19:39Z</time>
      </trkpt>
      <trkpt lat="46.546097" lon="6.792163">
        <ele>746.0</ele>
        <time>2012-03-30T14:19:43Z</time>
      </trkpt>
      <trkpt lat="46.545939" lon="6.7922">
        <ele>745.0</ele>
        <time>2012-03-30T14:19:47Z</time>
      </trkpt>
      <trkpt lat="46.545789" lon="6.792342">
        <ele>745.0</ele>
        <time>2012-03-30T14:19:52Z</time>
      </trkpt>
      <trkpt lat="46.545644" lon="6.792523">
        <ele>745.0</ele>
        <time>2012-03-30T14:19:56Z</time>
      </trkpt>
      <trkpt lat="46.545512" lon="6.792715">
        <ele>745.0</ele>
        <time>2012-03-30T14:19:59Z</time>
      </trkpt>
      <trkpt lat="46.545405" lon="6.792979">
        <ele>745.0</ele>
        <time>2012-03-30T14:20:03Z</time>
      </trkpt>
      <trkpt lat="46.545303" lon="6.793371">
        <ele>744.0</ele>
        <time>2012-03-30T14:20:08Z</time>
      </trkpt>
      <trkpt lat="46.545096" lon="6.793595">
        <ele>744.0</ele>
        <time>2012-03-30T14:20:12Z</time>
      </trkpt>
      <trkpt lat="46.544779" lon="6.79346">
        <ele>744.0</ele>
        <time>2012-03-30T14:20:16Z</time>
      </trkpt>
      <trkpt lat="46.544382" lon="6.793172">
        <ele>744.0</ele>
        <time>2012-03-30T14:20:20Z</time>
      </trkpt>
      <trkpt lat="46.543985" lon="6.792827">
        <ele>743.0</ele>
        <time>2012-03-30T14:20:23Z</time>
      </trkpt>
      <trkpt lat="46.543548" lon="6.792628">
        <ele>743.0</ele>
        <time>2012-03-30T14:20:27Z</time>
      </trkpt>
      <trkpt lat="46.543108" lon="6.792479">
        <ele>742.0</ele>
        <time>2012-03-30T14:20:32Z</time>
      </trkpt>
      <trkpt lat="46.542637" lon="6.792333">
        <ele>742.0</ele>
        <time>2012-03-30T14:20:35Z</time>
      </trkpt>
      <trkpt lat="46.542187" lon="6.79209">
        <ele>742.0</ele>
        <time>2012-03-30T14:20:39Z</time>
      </trkpt>
      <trkpt lat="46.541861" lon="6.791928">
        <ele>741.0</ele>
        <time>2012-03-30T14:20:42Z</time>
      </trkpt>
      <trkpt lat="46.541344" lon="6.791566">
        <ele>740.0</ele>
        <time>2012-03-30T14:20:47Z</time>
      </trkpt>
      <trkpt lat="46.540912" lon="6.791493">
        <ele>740.0</ele>
        <time>2012-03-30T14:20:52Z</time>
      </trkpt>
      <trkpt lat="46.540507" lon="6.791633">
        <ele>740.0</ele>
        <time>2012-03-30T14:20:55Z</time>
      </trkpt>
      <trkpt lat="46.54018" lon="6.791883">
        <ele>740.0</ele>
        <time>2012-03-30T14:20:59Z</time>
      </trkpt>
      <trkpt lat="46.539906" lon="6.791926">
        <ele>738.0</ele>
        <time>2012-03-30T14:21:03Z</time>
      </trkpt>
      <trkpt lat="46.539689" lon="6.792173">
        <ele>736.0</ele>
        <time>2012-03-30T14:21:08Z</time>
      </trkpt>
      <trkpt lat="46.539597" lon="6.792416">
        <ele>734.0</ele>
        <time>2012-03-30T14:21:11Z</time>
      </trkpt>
      <trkpt lat="46.539543" lon="6.792563">
        <ele>734.0</ele>
        <time>2012-03-30T14:21:12Z</time>
      </trkpt>
      <trkpt lat="46.539308" lon="6.793024">
        <ele>732.0</ele>
        <time>2012-03-30T14:21:16Z</time>
      </trkpt>
      <trkpt lat="46.539118" lon="6.793195">
        <ele>731.0</ele>
        <time>2012-03-30T14:21:19Z</time>
      </trkpt>
      <trkpt lat="46.538906" lon="6.793156">
        <ele>729.0</ele>
        <time>2012-03-30T14:21:23Z</time>
      </trkpt>
      <trkpt lat="46.53875" lon="6.793135">
        <ele>727.0</ele>
        <time>2012-03-30T14:21:27Z</time>
      </trkpt>
      <trkpt lat="46.538618" lon="6.79305">
        <ele>727.0</ele>
        <time>2012-03-30T14:21:31Z</time>
      </trkpt>
      <trkpt lat="46.538479" lon="6.792854">
        <ele>724.0</ele>
        <time>2012-03-30T14:21:35Z</time>
      </trkpt>
      <trkpt lat="46.538318" lon="6.792711">
        <ele>722.0</ele>
        <time>2012-03-30T14:21:39Z</time>
      </trkpt>
      <trkpt lat="46.538159" lon="6.792568">
        <ele>722.0</ele>
        <time>2012-03-30T14:21:43Z</time>
      </trkpt>
      <trkpt lat="46.538002" lon="6.79244">
        <ele>723.0</ele>
        <time>2012-03-30T14:21:47Z</time>
      </trkpt>
      <trkpt lat="46.537843" lon="6.792313">
        <ele>723.0</ele>
        <time>2012-03-30T14:21:51Z</time>
      </trkpt>
      <trkpt lat="46.537681" lon="6.792169">
        <ele>724.0</ele>
        <time>2012-03-30T14:21:55Z</time>
      </trkpt>
      <trkpt lat="46.537502" lon="6.79204">
        <ele>724.0</ele>
        <time>2012-03-30T14:21:59Z</time>
      </trkpt>
      <trkpt lat="46.537326" lon="6.791928">
        <ele>724.0</ele>
        <time>2012-03-30T14:22:03Z</time>
      </trkpt>
      <trkpt lat="46.537" lon="6.791761">
        <ele>724.0</ele>
        <time>2012-03-30T14:22:11Z</time>
      </trkpt>
      <trkpt lat="46.536924" lon="6.791717">
        <ele>723.0</ele>
        <time>2012-03-30T14:22:13Z</time>
      </trkpt>
      <trkpt lat="46.536703" lon="6.79152">
        <ele>723.0</ele>
        <time>2012-03-30T14:22:19Z</time>
      </trkpt>
      <trkpt lat="46.536551" lon="6.791425">
        <ele>723.0</ele>
        <time>2012-03-30T14:22:23Z</time>
      </trkpt>
      <trkpt lat="46.536481" lon="6.79137">
        <ele>723.0</ele>
        <time>2012-03-30T14:22:25Z</time>
      </trkpt>
      <trkpt lat="46.536094" lon="6.791011">
        <ele>723.0</ele>
        <time>2012-03-30T14:22:35Z</time>
      </trkpt>
      <trkpt lat="46.535909" lon="6.790849">
        <ele>723.0</ele>
        <time>2012-03-30T14:22:40Z</time>
      </trkpt>
      <trkpt lat="46.535762" lon="6.790526">
        <ele>723.0</ele>
        <time>2012-03-30T14:22:44Z</time>
      </trkpt>
      <trkpt lat="46.535669" lon="6.790332">
        <ele>723.0</ele>
        <time>2012-03-30T14:22:48Z</time>
      </trkpt>
      <trkpt lat="46.535521" lon="6.790105">
        <ele>723.0</ele>
        <time>2012-03-30T14:22:52Z</time>
      </trkpt>
      <trkpt lat="46.53538" lon="6.78993">
        <ele>724.0</ele>
        <time>2012-03-30T14:22:55Z</time>
      </trkpt>
      <trkpt lat="46.535231" lon="6.7897">
        <ele>725.0</ele>
        <time>2012-03-30T14:22:59Z</time>
      </trkpt>
      <trkpt lat="46.535086" lon="6.789476">
        <ele>726.0</ele>
        <time>2012-03-30T14:23:03Z</time>
      </trkpt>
      <trkpt lat="46.534905" lon="6.789337">
        <ele>726.0</ele>
        <time>2012-03-30T14:23:07Z</time>
      </trkpt>
      <trkpt lat="46.534719" lon="6.789218">
        <ele>726.0</ele>
        <time>2012-03-30T14:23:11Z</time>
      </trkpt>
      <trkpt lat="46.534541" lon="6.789154">
        <ele>726.0</ele>
        <time>2012-03-30T14:23:15Z</time>
      </trkpt>
      <trkpt lat="46.534369" lon="6.789056">
        <ele>725.0</ele>
        <time>2012-03-30T14:23:19Z</time>
      </trkpt>
      <trkpt lat="46.534216" lon="6.788881">
        <ele>726.0</ele>
        <time>2012-03-30T14:23:23Z</time>
      </trkpt>
      <trkpt lat="46.534078" lon="6.788693">
        <ele>726.0</ele>
        <time>2012-03-30T14:23:27Z</time>
      </trkpt>
      <trkpt lat="46.534004" lon="6.788625">
        <ele>726.0</ele>
        <time>2012-03-30T14:23:29Z</time>
      </trkpt>
      <trkpt lat="46.533613" lon="6.788276">
        <ele>725.0</ele>
        <time>2012-03-30T14:23:40Z</time>
      </trkpt>
      <trkpt lat="46.533429" lon="6.788002">
        <ele>727.0</ele>
        <time>2012-03-30T14:23:44Z</time>
      </trkpt>
      <trkpt lat="46.533202" lon="6.787752">
        <ele>729.0</ele>
        <time>2012-03-30T14:23:48Z</time>
      </trkpt>
      <trkpt lat="46.533094" lon="6.787669">
        <ele>730.0</ele>
        <time>2012-03-30T14:23:50Z</time>
      </trkpt>
      <trkpt lat="46.53281" lon="6.787235">
        <ele>729.0</ele>
        <time>2012-03-30T14:24:00Z</time>
      </trkpt>
      <trkpt lat="46.532797" lon="6.787118">
        <ele>729.0</ele>
        <time>2012-03-30T14:24:03Z</time>
      </trkpt>
      <trkpt lat="46.53276" lon="6.786915">
        <ele>728.0</ele>
        <time>2012-03-30T14:24:07Z</time>
      </trkpt>
      <trkpt lat="46.532717" lon="6.786705">
        <ele>728.0</ele>
        <time>2012-03-30T14:24:11Z</time>
      </trkpt>
      <trkpt lat="46.532661" lon="6.786473">
        <ele>728.0</ele>
        <time>2012-03-30T14:24:15Z</time>
      </trkpt>
      <trkpt lat="46.532588" lon="6.78625">
        <ele>728.0</ele>
        <time>2012-03-30T14:24:19Z</time>
      </trkpt>
      <trkpt lat="46.532476" lon="6.786079">
        <ele>728.0</ele>
        <time>2012-03-30T14:24:23Z</time>
      </trkpt>
      <trkpt lat="46.532355" lon="6.785924">
        <ele>728.0</ele>
        <time>2012-03-30T14:24:27Z</time>
      </trkpt>
      <trkpt lat="46.532227" lon="6.785701">
        <ele>729.0</ele>
        <time>2012-03-30T14:24:31Z</time>
      </trkpt>
      <trkpt lat="46.532078" lon="6.785507">
        <ele>730.0</ele>
        <time>2012-03-30T14:24:35Z</time>
      </trkpt>
      <trkpt lat="46.531926" lon="6.785336">
        <ele>732.0</ele>
        <time>2012-03-30T14:24:39Z</time>
      </trkpt>
      <trkpt lat="46.531796" lon="6.785223">
        <ele>732.0</ele>
        <time>2012-03-30T14:24:43Z</time>
      </trkpt>
      <trkpt lat="46.531667" lon="6.785144">
        <ele>732.0</ele>
        <time>2012-03-30T14:24:47Z</time>
      </trkpt>
      <trkpt lat="46.531513" lon="6.785015">
        <ele>732.0</ele>
        <time>2012-03-30T14:24:51Z</time>
      </trkpt>
      <trkpt lat="46.531326" lon="6.784852">
        <ele>732.0</ele>
        <time>2012-03-30T14:24:55Z</time>
      </trkpt>
      <trkpt lat="46.531131" lon="6.784719">
        <ele>733.0</ele>
        <time>2012-03-30T14:24:59Z</time>
      </trkpt>
      <trkpt lat="46.530952" lon="6.784589">
        <ele>734.0</ele>
        <time>2012-03-30T14:25:03Z</time>
      </trkpt>
      <trkpt lat="46.530782" lon="6.784456">
        <ele>733.0</ele>
        <time>2012-03-30T14:25:07Z</time>
      </trkpt>
      <trkpt lat="46.530695" lon="6.784411">
        <ele>733.0</ele>
        <time>2012-03-30T14:25:09Z</time>
      </trkpt>
      <trkpt lat="46.530463" lon="6.784265">
        <ele>732.0</ele>
        <time>2012-03-30T14:25:15Z</time>
      </trkpt>
      <trkpt lat="46.530319" lon="6.784177">
        <ele>731.0</ele>
        <time>2012-03-30T14:25:19Z</time>
      </trkpt>
      <trkpt lat="46.530168" lon="6.78411">
        <ele>731.0</ele>
        <time>2012-03-30T14:25:23Z</time>
      </trkpt>
      <trkpt lat="46.530029" lon="6.784039">
        <ele>731.0</ele>
        <time>2012-03-30T14:25:27Z</time>
      </trkpt>
      <trkpt lat="46.529893" lon="6.783971">
        <ele>731.0</ele>
        <time>2012-03-30T14:25:31Z</time>
      </trkpt>
      <trkpt lat="46.529768" lon="6.783905">
        <ele>731.0</ele>
        <time>2012-03-30T14:25:35Z</time>
      </trkpt>
      <trkpt lat="46.529619" lon="6.783797">
        <ele>731.0</ele>
        <time>2012-03-30T14:25:40Z</time>
      </trkpt>
      <trkpt lat="46.529485" lon="6.783685">
        <ele>731.0</ele>
        <time>2012-03-30T14:25:44Z</time>
      </trkpt>
      <trkpt lat="46.529341" lon="6.783526">
        <ele>731.0</ele>
        <time>2012-03-30T14:25:48Z</time>
      </trkpt>
      <trkpt lat="46.529202" lon="6.783379">
        <ele>731.0</ele>
        <time>2012-03-30T14:25:52Z</time>
      </trkpt>
      <trkpt lat="46.529065" lon="6.783258">
        <ele>731.0</ele>
        <time>2012-03-30T14:25:56Z</time>
      </trkpt>
      <trkpt lat="46.528913" lon="6.783145">
        <ele>731.0</ele>
        <time>2012-03-30T14:26:00Z</time>
      </trkpt>
      <trkpt lat="46.528736" lon="6.782991">
        <ele>731.0</ele>
        <time>2012-03-30T14:26:04Z</time>
      </trkpt>
      <trkpt lat="46.528522" lon="6.782765">
        <ele>730.0</ele>
        <time>2012-03-30T14:26:08Z</time>
      </trkpt>
      <trkpt lat="46.528333" lon="6.782575">
        <ele>729.0</ele>
        <time>2012-03-30T14:26:12Z</time>
      </trkpt>
      <trkpt lat="46.528174" lon="6.782393">
        <ele>729.0</ele>
        <time>2012-03-30T14:26:16Z</time>
      </trkpt>
      <trkpt lat="46.527951" lon="6.782197">
        <ele>732.0</ele>
        <time>2012-03-30T14:26:20Z</time>
      </trkpt>
      <trkpt lat="46.527766" lon="6.782091">
        <ele>733.0</ele>
        <time>2012-03-30T14:26:23Z</time>
      </trkpt>
      <trkpt lat="46.527465" lon="6.781957">
        <ele>733.0</ele>
        <time>2012-03-30T14:26:28Z</time>
      </trkpt>
      <trkpt lat="46.52723" lon="6.781856">
        <ele>732.0</ele>
        <time>2012-03-30T14:26:32Z</time>
      </trkpt>
      <trkpt lat="46.527045" lon="6.781788">
        <ele>732.0</ele>
        <time>2012-03-30T14:26:35Z</time>
      </trkpt>
      <trkpt lat="46.526734" lon="6.781729">
        <ele>732.0</ele>
        <time>2012-03-30T14:26:40Z</time>
      </trkpt>
      <trkpt lat="46.526546" lon="6.781691">
        <ele>731.0</ele>
        <time>2012-03-30T14:26:43Z</time>
      </trkpt>
      <trkpt lat="46.526313" lon="6.781631">
        <ele>731.0</ele>
        <time>2012-03-30T14:26:47Z</time>
      </trkpt>
      <trkpt lat="46.526114" lon="6.781565">
        <ele>731.0</ele>
        <time>2012-03-30T14:26:51Z</time>
      </trkpt>
      <trkpt lat="46.525841" lon="6.781384">
        <ele>730.0</ele>
        <time>2012-03-30T14:26:56Z</time>
      </trkpt>
      <trkpt lat="46.525572" lon="6.781167">
        <ele>729.0</ele>
        <time>2012-03-30T14:27:00Z</time>
      </trkpt>
      <trkpt lat="46.52542" lon="6.781048">
        <ele>728.0</ele>
        <time>2012-03-30T14:27:02Z</time>
      </trkpt>
      <trkpt lat="46.525043" lon="6.78076">
        <ele>726.0</ele>
        <time>2012-03-30T14:27:08Z</time>
      </trkpt>
      <trkpt lat="46.524828" lon="6.78052">
        <ele>728.0</ele>
        <time>2012-03-30T14:27:12Z</time>
      </trkpt>
      <trkpt lat="46.524622" lon="6.780216">
        <ele>731.0</ele>
        <time>2012-03-30T14:27:16Z</time>
      </trkpt>
      <trkpt lat="46.524401" lon="6.779925">
        <ele>733.0</ele>
        <time>2012-03-30T14:27:20Z</time>
      </trkpt>
      <trkpt lat="46.524196" lon="6.77965">
        <ele>734.0</ele>
        <time>2012-03-30T14:27:24Z</time>
      </trkpt>
      <trkpt lat="46.524007" lon="6.77937">
        <ele>734.0</ele>
        <time>2012-03-30T14:27:28Z</time>
      </trkpt>
      <trkpt lat="46.523961" lon="6.779301">
        <ele>734.0</ele>
        <time>2012-03-30T14:27:29Z</time>
      </trkpt>
      <trkpt lat="46.523746" lon="6.778863">
        <ele>734.0</ele>
        <time>2012-03-30T14:27:35Z</time>
      </trkpt>
      <trkpt lat="46.523611" lon="6.778583">
        <ele>735.0</ele>
        <time>2012-03-30T14:27:39Z</time>
      </trkpt>
      <trkpt lat="46.523463" lon="6.778306">
        <ele>735.0</ele>
        <time>2012-03-30T14:27:43Z</time>
      </trkpt>
      <trkpt lat="46.523326" lon="6.778027">
        <ele>736.0</ele>
        <time>2012-03-30T14:27:47Z</time>
      </trkpt>
      <trkpt lat="46.523214" lon="6.777751">
        <ele>736.0</ele>
        <time>2012-03-30T14:27:51Z</time>
      </trkpt>
      <trkpt lat="46.523078" lon="6.777617">
        <ele>736.0</ele>
        <time>2012-03-30T14:27:55Z</time>
      </trkpt>
      <trkpt lat="46.523005" lon="6.777665">
        <ele>736.0</ele>
        <time>2012-03-30T14:27:57Z</time>
      </trkpt>
      <trkpt lat="46.522768" lon="6.777966">
        <ele>737.0</ele>
        <time>2012-03-30T14:28:03Z</time>
      </trkpt>
      <trkpt lat="46.522669" lon="6.778067">
        <ele>737.0</ele>
        <time>2012-03-30T14:28:05Z</time>
      </trkpt>
      <trkpt lat="46.522363" lon="6.778383">
        <ele>736.0</ele>
        <time>2012-03-30T14:28:11Z</time>
      </trkpt>
      <trkpt lat="46.522175" lon="6.778602">
        <ele>736.0</ele>
        <time>2012-03-30T14:28:15Z</time>
      </trkpt>
      <trkpt lat="46.522048" lon="6.778816">
        <ele>735.0</ele>
        <time>2012-03-30T14:28:19Z</time>
      </trkpt>
      <trkpt lat="46.522322" lon="6.778471">
        <ele>734.0</ele>
        <time>2012-03-30T14:28:31Z</time>
      </trkpt>
      <trkpt lat="46.522501" lon="6.778277">
        <ele>734.0</ele>
        <time>2012-03-30T14:28:35Z</time>
      </trkpt>
      <trkpt lat="46.522684" lon="6.778065">
        <ele>734.0</ele>
        <time>2012-03-30T14:28:39Z</time>
      </trkpt>
      <trkpt lat="46.52287" lon="6.777849">
        <ele>734.0</ele>
        <time>2012-03-30T14:28:43Z</time>
      </trkpt>
      <trkpt lat="46.523024" lon="6.777603">
        <ele>735.0</ele>
        <time>2012-03-30T14:28:47Z</time>
      </trkpt>
      <trkpt lat="46.523079" lon="6.777471">
        <ele>735.0</ele>
        <time>2012-03-30T14:28:49Z</time>
      </trkpt>
      <trkpt lat="46.523169" lon="6.777053">
        <ele>735.0</ele>
        <time>2012-03-30T14:28:55Z</time>
      </trkpt>
      <trkpt lat="46.523177" lon="6.776761">
        <ele>735.0</ele>
        <time>2012-03-30T14:28:59Z</time>
      </trkpt>
      <trkpt lat="46.523168" lon="6.77648">
        <ele>736.0</ele>
        <time>2012-03-30T14:29:03Z</time>
      </trkpt>
      <trkpt lat="46.523164" lon="6.776345">
        <ele>736.0</ele>
        <time>2012-03-30T14:29:05Z</time>
      </trkpt>
      <trkpt lat="46.522989" lon="6.776137">
        <ele>736.0</ele>
        <time>2012-03-30T14:29:11Z</time>
      </trkpt>
      <trkpt lat="46.522813" lon="6.77624">
        <ele>736.0</ele>
        <time>2012-03-30T14:29:15Z</time>
      </trkpt>
      <trkpt lat="46.522648" lon="6.776375">
        <ele>736.0</ele>
        <time>2012-03-30T14:29:19Z</time>
      </trkpt>
      <trkpt lat="46.522489" lon="6.776512">
        <ele>737.0</ele>
        <time>2012-03-30T14:29:23Z</time>
      </trkpt>
      <trkpt lat="46.522216" lon="6.776676">
        <ele>737.0</ele>
        <time>2012-03-30T14:29:28Z</time>
      </trkpt>
      <trkpt lat="46.52188" lon="6.776894">
        <ele>737.0</ele>
        <time>2012-03-30T14:29:32Z</time>
      </trkpt>
      <trkpt lat="46.521503" lon="6.777142">
        <ele>737.0</ele>
        <time>2012-03-30T14:29:36Z</time>
      </trkpt>
      <trkpt lat="46.521272" lon="6.777711">
        <ele>737.0</ele>
        <time>2012-03-30T14:29:40Z</time>
      </trkpt>
      <trkpt lat="46.521231" lon="6.778183">
        <ele>737.0</ele>
        <time>2012-03-30T14:29:46Z</time>
      </trkpt>
      <trkpt lat="46.521285" lon="6.77842">
        <ele>737.0</ele>
        <time>2012-03-30T14:29:51Z</time>
      </trkpt>
      <trkpt lat="46.521356" lon="6.778493">
        <ele>737.0</ele>
        <time>2012-03-30T14:29:54Z</time>
      </trkpt>
      <trkpt lat="46.521456" lon="6.778648">
        <ele>737.0</ele>
        <time>2012-03-30T14:30:00Z</time>
      </trkpt>
      <trkpt lat="46.5215" lon="6.778458">
        <ele>738.0</ele>
        <time>2012-03-30T14:30:18Z</time>
      </trkpt>
      <trkpt lat="46.521455" lon="6.778185">
        <ele>738.0</ele>
        <time>2012-03-30T14:30:23Z</time>
      </trkpt>
      <trkpt lat="46.521182" lon="6.778201">
        <ele>738.0</ele>
        <time>2012-03-30T14:30:30Z</time>
      </trkpt>
      <trkpt lat="46.520936" lon="6.778115">
        <ele>738.0</ele>
        <time>2012-03-30T14:30:34Z</time>
      </trkpt>
      <trkpt lat="46.520717" lon="6.77803">
        <ele>738.0</ele>
        <time>2012-03-30T14:30:38Z</time>
      </trkpt>
      <trkpt lat="46.520402" lon="6.778033">
        <ele>739.0</ele>
        <time>2012-03-30T14:30:44Z</time>
      </trkpt>
      <trkpt lat="46.520106" lon="6.778204">
        <ele>738.0</ele>
        <time>2012-03-30T14:30:50Z</time>
      </trkpt>
      <trkpt lat="46.520006" lon="6.778294">
        <ele>738.0</ele>
        <time>2012-03-30T14:30:52Z</time>
      </trkpt>
      <trkpt lat="46.519665" lon="6.778876">
        <ele>738.0</ele>
        <time>2012-03-30T14:30:59Z</time>
      </trkpt>
      <trkpt lat="46.519498" lon="6.779267">
        <ele>737.0</ele>
        <time>2012-03-30T14:31:03Z</time>
      </trkpt>
      <trkpt lat="46.519288" lon="6.779574">
        <ele>736.0</ele>
        <time>2012-03-30T14:31:07Z</time>
      </trkpt>
      <trkpt lat="46.519164" lon="6.779709">
        <ele>736.0</ele>
        <time>2012-03-30T14:31:09Z</time>
      </trkpt>
      <trkpt lat="46.518779" lon="6.780024">
        <ele>735.0</ele>
        <time>2012-03-30T14:31:15Z</time>
      </trkpt>
      <trkpt lat="46.518523" lon="6.780177">
        <ele>734.0</ele>
        <time>2012-03-30T14:31:21Z</time>
      </trkpt>
      <trkpt lat="46.518309" lon="6.780255">
        <ele>734.0</ele>
        <time>2012-03-30T14:31:27Z</time>
      </trkpt>
      <trkpt lat="46.518141" lon="6.780283">
        <ele>735.0</ele>
        <time>2012-03-30T14:31:31Z</time>
      </trkpt>
      <trkpt lat="46.517979" lon="6.780326">
        <ele>735.0</ele>
        <time>2012-03-30T14:31:35Z</time>
      </trkpt>
      <trkpt lat="46.517818" lon="6.780367">
        <ele>736.0</ele>
        <time>2012-03-30T14:31:39Z</time>
      </trkpt>
      <trkpt lat="46.517655" lon="6.780381">
        <ele>736.0</ele>
        <time>2012-03-30T14:31:43Z</time>
      </trkpt>
      <trkpt lat="46.5175" lon="6.78038">
        <ele>736.0</ele>
        <time>2012-03-30T14:31:47Z</time>
      </trkpt>
      <trkpt lat="46.517364" lon="6.78038">
        <ele>736.0</ele>
        <time>2012-03-30T14:31:51Z</time>
      </trkpt>
      <trkpt lat="46.517283" lon="6.780389">
        <ele>736.0</ele>
        <time>2012-03-30T14:32:02Z</time>
      </trkpt>
      <trkpt lat="46.516997" lon="6.780272">
        <ele>737.0</ele>
        <time>2012-03-30T14:32:11Z</time>
      </trkpt>
      <trkpt lat="46.516808" lon="6.780155">
        <ele>738.0</ele>
        <time>2012-03-30T14:32:15Z</time>
      </trkpt>
      <trkpt lat="46.516593" lon="6.780005">
        <ele>738.0</ele>
        <time>2012-03-30T14:32:19Z</time>
      </trkpt>
      <trkpt lat="46.51637" lon="6.779869">
        <ele>738.0</ele>
        <time>2012-03-30T14:32:23Z</time>
      </trkpt>
      <trkpt lat="46.515926" lon="6.779721">
        <ele>739.0</ele>
        <time>2012-03-30T14:32:31Z</time>
      </trkpt>
      <trkpt lat="46.515681" lon="6.779813">
        <ele>739.0</ele>
        <time>2012-03-30T14:32:35Z</time>
      </trkpt>
      <trkpt lat="46.515494" lon="6.779991">
        <ele>740.0</ele>
        <time>2012-03-30T14:32:38Z</time>
      </trkpt>
      <trkpt lat="46.515237" lon="6.780445">
        <ele>741.0</ele>
        <time>2012-03-30T14:32:43Z</time>
      </trkpt>
      <trkpt lat="46.515155" lon="6.780649">
        <ele>741.0</ele>
        <time>2012-03-30T14:32:45Z</time>
      </trkpt>
      <trkpt lat="46.514983" lon="6.781218">
        <ele>741.0</ele>
        <time>2012-03-30T14:32:50Z</time>
      </trkpt>
      <trkpt lat="46.515046" lon="6.781856">
        <ele>740.0</ele>
        <time>2012-03-30T14:32:55Z</time>
      </trkpt>
      <trkpt lat="46.515167" lon="6.782339">
        <ele>738.0</ele>
        <time>2012-03-30T14:32:59Z</time>
      </trkpt>
      <trkpt lat="46.51518" lon="6.78283">
        <ele>736.0</ele>
        <time>2012-03-30T14:33:03Z</time>
      </trkpt>
      <trkpt lat="46.514767" lon="6.783749">
        <ele>731.0</ele>
        <time>2012-03-30T14:33:11Z</time>
      </trkpt>
      <trkpt lat="46.514578" lon="6.784092">
        <ele>730.0</ele>
        <time>2012-03-30T14:33:14Z</time>
      </trkpt>
      <trkpt lat="46.514246" lon="6.784691">
        <ele>728.0</ele>
        <time>2012-03-30T14:33:19Z</time>
      </trkpt>
      <trkpt lat="46.513972" lon="6.785206">
        <ele>726.0</ele>
        <time>2012-03-30T14:33:23Z</time>
      </trkpt>
      <trkpt lat="46.513626" lon="6.785678">
        <ele>725.0</ele>
        <time>2012-03-30T14:33:27Z</time>
      </trkpt>
      <trkpt lat="46.513164" lon="6.785882">
        <ele>725.0</ele>
        <time>2012-03-30T14:33:31Z</time>
      </trkpt>
      <trkpt lat="46.512724" lon="6.78602">
        <ele>725.0</ele>
        <time>2012-03-30T14:33:35Z</time>
      </trkpt>
      <trkpt lat="46.512379" lon="6.786067">
        <ele>725.0</ele>
        <time>2012-03-30T14:33:39Z</time>
      </trkpt>
      <trkpt lat="46.512213" lon="6.786359">
        <ele>725.0</ele>
        <time>2012-03-30T14:33:43Z</time>
      </trkpt>
      <trkpt lat="46.512172" lon="6.786586">
        <ele>724.0</ele>
        <time>2012-03-30T14:33:47Z</time>
      </trkpt>
      <trkpt lat="46.51216" lon="6.786405">
        <ele>722.0</ele>
        <time>2012-03-30T14:33:55Z</time>
      </trkpt>
      <trkpt lat="46.511876" lon="6.786089">
        <ele>719.0</ele>
        <time>2012-03-30T14:34:03Z</time>
      </trkpt>
      <trkpt lat="46.511647" lon="6.786104">
        <ele>718.0</ele>
        <time>2012-03-30T14:34:07Z</time>
      </trkpt>
      <trkpt lat="46.51146" lon="6.786109">
        <ele>717.0</ele>
        <time>2012-03-30T14:34:10Z</time>
      </trkpt>
      <trkpt lat="46.511143" lon="6.786121">
        <ele>715.0</ele>
        <time>2012-03-30T14:34:15Z</time>
      </trkpt>
      <trkpt lat="46.510888" lon="6.78605">
        <ele>715.0</ele>
        <time>2012-03-30T14:34:19Z</time>
      </trkpt>
      <trkpt lat="46.510611" lon="6.785997">
        <ele>714.0</ele>
        <time>2012-03-30T14:34:23Z</time>
      </trkpt>
      <trkpt lat="46.510321" lon="6.786078">
        <ele>714.0</ele>
        <time>2012-03-30T14:34:27Z</time>
      </trkpt>
      <trkpt lat="46.51004" lon="6.786281">
        <ele>714.0</ele>
        <time>2012-03-30T14:34:31Z</time>
      </trkpt>
      <trkpt lat="46.50972" lon="6.786435">
        <ele>714.0</ele>
        <time>2012-03-30T14:34:35Z</time>
      </trkpt>
      <trkpt lat="46.509409" lon="6.786336">
        <ele>715.0</ele>
        <time>2012-03-30T14:34:39Z</time>
      </trkpt>
      <trkpt lat="46.509141" lon="6.786183">
        <ele>714.0</ele>
        <time>2012-03-30T14:34:43Z</time>
      </trkpt>
      <trkpt lat="46.508882" lon="6.786058">
        <ele>714.0</ele>
        <time>2012-03-30T14:34:47Z</time>
      </trkpt>
      <trkpt lat="46.508644" lon="6.785938">
        <ele>714.0</ele>
        <time>2012-03-30T14:34:51Z</time>
      </trkpt>
      <trkpt lat="46.50882" lon="6.786198">
        <ele>714.0</ele>
        <time>2012-03-30T14:35:03Z</time>
      </trkpt>
      <trkpt lat="46.509075" lon="6.786395">
        <ele>716.0</ele>
        <time>2012-03-30T14:35:07Z</time>
      </trkpt>
      <trkpt lat="46.50928" lon="6.78667">
        <ele>717.0</ele>
        <time>2012-03-30T14:35:11Z</time>
      </trkpt>
      <trkpt lat="46.509409" lon="6.787067">
        <ele>718.0</ele>
        <time>2012-03-30T14:35:15Z</time>
      </trkpt>
      <trkpt lat="46.509367" lon="6.787634">
        <ele>718.0</ele>
        <time>2012-03-30T14:35:19Z</time>
      </trkpt>
      <trkpt lat="46.509305" lon="6.788166">
        <ele>717.0</ele>
        <time>2012-03-30T14:35:23Z</time>
      </trkpt>
      <trkpt lat="46.509182" lon="6.78862">
        <ele>717.0</ele>
        <time>2012-03-30T14:35:27Z</time>
      </trkpt>
      <trkpt lat="46.509075" lon="6.789007">
        <ele>715.0</ele>
        <time>2012-03-30T14:35:31Z</time>
      </trkpt>
      <trkpt lat="46.509003" lon="6.789267">
        <ele>713.0</ele>
        <time>2012-03-30T14:35:34Z</time>
      </trkpt>
      <trkpt lat="46.508912" lon="6.789594">
        <ele>711.0</ele>
        <time>2012-03-30T14:35:38Z</time>
      </trkpt>
      <trkpt lat="46.508815" lon="6.789881">
        <ele>709.0</ele>
        <time>2012-03-30T14:35:42Z</time>
      </trkpt>
      <trkpt lat="46.508717" lon="6.790144">
        <ele>708.0</ele>
        <time>2012-03-30T14:35:46Z</time>
      </trkpt>
      <trkpt lat="46.50862" lon="6.790373">
        <ele>708.0</ele>
        <time>2012-03-30T14:35:50Z</time>
      </trkpt>
      <trkpt lat="46.508535" lon="6.790599">
        <ele>708.0</ele>
        <time>2012-03-30T14:35:54Z</time>
      </trkpt>
      <trkpt lat="46.508491" lon="6.790707">
        <ele>708.0</ele>
        <time>2012-03-30T14:35:56Z</time>
      </trkpt>
      <trkpt lat="46.508353" lon="6.791024">
        <ele>708.0</ele>
        <time>2012-03-30T14:36:02Z</time>
      </trkpt>
      <trkpt lat="46.508269" lon="6.791196">
        <ele>708.0</ele>
        <time>2012-03-30T14:36:06Z</time>
      </trkpt>
      <trkpt lat="46.508174" lon="6.791376">
        <ele>708.0</ele>
        <time>2012-03-30T14:36:11Z</time>
      </trkpt>
      <trkpt lat="46.508132" lon="6.791446">
        <ele>708.0</ele>
        <time>2012-03-30T14:36:13Z</time>
      </trkpt>
      <trkpt lat="46.508069" lon="6.791542">
        <ele>708.0</ele>
        <time>2012-03-30T14:36:17Z</time>
      </trkpt>
      <trkpt lat="46.507938" lon="6.791799">
        <ele>708.0</ele>
        <time>2012-03-30T14:36:23Z</time>
      </trkpt>
      <trkpt lat="46.507882" lon="6.791898">
        <ele>708.0</ele>
        <time>2012-03-30T14:36:26Z</time>
      </trkpt>
      <trkpt lat="46.507613" lon="6.792293">
        <ele>709.0</ele>
        <time>2012-03-30T14:38:47Z</time>
      </trkpt>
      <trkpt lat="46.507497" lon="6.792458">
        <ele>709.0</ele>
        <time>2012-03-30T14:38:51Z</time>
      </trkpt>
      <trkpt lat="46.507377" lon="6.792621">
        <ele>709.0</ele>
        <time>2012-03-30T14:38:55Z</time>
      </trkpt>
      <trkpt lat="46.507323" lon="6.792703">
        <ele>709.0</ele>
        <time>2012-03-30T14:38:57Z</time>
      </trkpt>
      <trkpt lat="46.507179" lon="6.792901">
        <ele>709.0</ele>
        <time>2012-03-30T14:39:03Z</time>
      </trkpt>
      <trkpt lat="46.507088" lon="6.792926">
        <ele>709.0</ele>
        <time>2012-03-30T14:39:06Z</time>
      </trkpt>
      <trkpt lat="46.506991" lon="6.792904">
        <ele>709.0</ele>
        <time>2012-03-30T14:39:09Z</time>
      </trkpt>
      <trkpt lat="46.506904" lon="6.792718">
        <ele>709.0</ele>
        <time>2012-03-30T14:39:14Z</time>
      </trkpt>
      <trkpt lat="46.506855" lon="6.792525">
        <ele>709.0</ele>
        <time>2012-03-30T14:39:18Z</time>
      </trkpt>
      <trkpt lat="46.506803" lon="6.792457">
        <ele>709.0</ele>
        <time>2012-03-30T14:39:21Z</time>
      </trkpt>
      <trkpt lat="46.506741" lon="6.792409">
        <ele>709.0</ele>
        <time>2012-03-30T14:39:24Z</time>
      </trkpt>
      <trkpt lat="46.506645" lon="6.792621">
        <ele>709.0</ele>
        <time>2012-03-30T14:39:30Z</time>
      </trkpt>
      <trkpt lat="46.506657" lon="6.792922">
        <ele>709.0</ele>
        <time>2012-03-30T14:39:34Z</time>
      </trkpt>
      <trkpt lat="46.506705" lon="6.793137">
        <ele>709.0</ele>
        <time>2012-03-30T14:39:38Z</time>
      </trkpt>
      <trkpt lat="46.506761" lon="6.79332">
        <ele>709.0</ele>
        <time>2012-03-30T14:39:42Z</time>
      </trkpt>
      <trkpt lat="46.50685" lon="6.793487">
        <ele>709.0</ele>
        <time>2012-03-30T14:39:47Z</time>
      </trkpt>
      <trkpt lat="46.506881" lon="6.793584">
        <ele>709.0</ele>
        <time>2012-03-30T14:39:50Z</time>
      </trkpt>
      <trkpt lat="46.506805" lon="6.793781">
        <ele>709.0</ele>
        <time>2012-03-30T14:39:55Z</time>
      </trkpt>
      <trkpt lat="46.50672" lon="6.793917">
        <ele>709.0</ele>
        <time>2012-03-30T14:39:59Z</time>
      </trkpt>
      <trkpt lat="46.506629" lon="6.794061">
        <ele>709.0</ele>
        <time>2012-03-30T14:40:03Z</time>
      </trkpt>
      <trkpt lat="46.506539" lon="6.794197">
        <ele>709.0</ele>
        <time>2012-03-30T14:40:07Z</time>
      </trkpt>
      <trkpt lat="46.506468" lon="6.794272">
        <ele>709.0</ele>
        <time>2012-03-30T14:40:10Z</time>
      </trkpt>
      <trkpt lat="46.506398" lon="6.794348">
        <ele>710.0</ele>
        <time>2012-03-30T14:40:13Z</time>
      </trkpt>
      <trkpt lat="46.506255" lon="6.794501">
        <ele>710.0</ele>
        <time>2012-03-30T14:40:19Z</time>
      </trkpt>
      <trkpt lat="46.506175" lon="6.794571">
        <ele>711.0</ele>
        <time>2012-03-30T14:40:22Z</time>
      </trkpt>
      <trkpt lat="46.506043" lon="6.794677">
        <ele>711.0</ele>
        <time>2012-03-30T14:40:27Z</time>
      </trkpt>
      <trkpt lat="46.505968" lon="6.79475">
        <ele>711.0</ele>
        <time>2012-03-30T14:40:30Z</time>
      </trkpt>
      <trkpt lat="46.5059" lon="6.794831">
        <ele>712.0</ele>
        <time>2012-03-30T14:40:33Z</time>
      </trkpt>
      <trkpt lat="46.505803" lon="6.795007">
        <ele>712.0</ele>
        <time>2012-03-30T14:40:39Z</time>
      </trkpt>
      <trkpt lat="46.505766" lon="6.795109">
        <ele>712.0</ele>
        <time>2012-03-30T14:40:42Z</time>
      </trkpt>
      <trkpt lat="46.505734" lon="6.795218">
        <ele>712.0</ele>
        <time>2012-03-30T14:40:45Z</time>
      </trkpt>
      <trkpt lat="46.505687" lon="6.795452">
        <ele>713.0</ele>
        <time>2012-03-30T14:40:51Z</time>
      </trkpt>
      <trkpt lat="46.505677" lon="6.795571">
        <ele>713.0</ele>
        <time>2012-03-30T14:40:54Z</time>
      </trkpt>
      <trkpt lat="46.50568" lon="6.795694">
        <ele>713.0</ele>
        <time>2012-03-30T14:40:57Z</time>
      </trkpt>
      <trkpt lat="46.505678" lon="6.795813">
        <ele>713.0</ele>
        <time>2012-03-30T14:41:00Z</time>
      </trkpt>
      <trkpt lat="46.505625" lon="6.796154">
        <ele>713.0</ele>
        <time>2012-03-30T14:41:09Z</time>
      </trkpt>
      <trkpt lat="46.505496" lon="6.79627">
        <ele>713.0</ele>
        <time>2012-03-30T14:41:15Z</time>
      </trkpt>
      <trkpt lat="46.505419" lon="6.796287">
        <ele>713.0</ele>
        <time>2012-03-30T14:41:18Z</time>
      </trkpt>
      <trkpt lat="46.505342" lon="6.796298">
        <ele>714.0</ele>
        <time>2012-03-30T14:41:21Z</time>
      </trkpt>
      <trkpt lat="46.505192" lon="6.796308">
        <ele>714.0</ele>
        <time>2012-03-30T14:41:27Z</time>
      </trkpt>
      <trkpt lat="46.505128" lon="6.796312">
        <ele>714.0</ele>
        <time>2012-03-30T14:41:30Z</time>
      </trkpt>
      <trkpt lat="46.505051" lon="6.79629">
        <ele>714.0</ele>
        <time>2012-03-30T14:41:34Z</time>
      </trkpt>
      <trkpt lat="46.504986" lon="6.796281">
        <ele>714.0</ele>
        <time>2012-03-30T14:41:37Z</time>
      </trkpt>
      <trkpt lat="46.504836" lon="6.796268">
        <ele>715.0</ele>
        <time>2012-03-30T14:41:43Z</time>
      </trkpt>
      <trkpt lat="46.50476" lon="6.79627">
        <ele>716.0</ele>
        <time>2012-03-30T14:41:46Z</time>
      </trkpt>
      <trkpt lat="46.504687" lon="6.796269">
        <ele>716.0</ele>
        <time>2012-03-30T14:41:49Z</time>
      </trkpt>
      <trkpt lat="46.504622" lon="6.796278">
        <ele>716.0</ele>
        <time>2012-03-30T14:41:52Z</time>
      </trkpt>
      <trkpt lat="46.504544" lon="6.796287">
        <ele>717.0</ele>
        <time>2012-03-30T14:41:56Z</time>
      </trkpt>
      <trkpt lat="46.504479" lon="6.796319">
        <ele>717.0</ele>
        <time>2012-03-30T14:42:01Z</time>
      </trkpt>
      <trkpt lat="46.504425" lon="6.796496">
        <ele>718.0</ele>
        <time>2012-03-30T14:42:08Z</time>
      </trkpt>
      <trkpt lat="46.504219" lon="6.796798">
        <ele>720.0</ele>
        <time>2012-03-30T14:42:39Z</time>
      </trkpt>
      <trkpt lat="46.504143" lon="6.796855">
        <ele>720.0</ele>
        <time>2012-03-30T14:42:42Z</time>
      </trkpt>
      <trkpt lat="46.504076" lon="6.796894">
        <ele>720.0</ele>
        <time>2012-03-30T14:42:45Z</time>
      </trkpt>
      <trkpt lat="46.504006" lon="6.796934">
        <ele>720.0</ele>
        <time>2012-03-30T14:42:49Z</time>
      </trkpt>
      <trkpt lat="46.504233" lon="6.796847">
        <ele>724.0</ele>
        <time>2012-03-30T14:43:23Z</time>
      </trkpt>
      <trkpt lat="46.504481" lon="6.796825">
        <ele>727.0</ele>
        <time>2012-03-30T14:43:27Z</time>
      </trkpt>
      <trkpt lat="46.504674" lon="6.796903">
        <ele>729.0</ele>
        <time>2012-03-30T14:43:31Z</time>
      </trkpt>
      <trkpt lat="46.504732" lon="6.796941">
        <ele>729.0</ele>
        <time>2012-03-30T14:43:35Z</time>
      </trkpt>
      <trkpt lat="46.504828" lon="6.796932">
        <ele>729.0</ele>
        <time>2012-03-30T14:43:43Z</time>
      </trkpt>
      <trkpt lat="46.504926" lon="6.796967">
        <ele>730.0</ele>
        <time>2012-03-30T14:43:48Z</time>
      </trkpt>
      <trkpt lat="46.50503" lon="6.797018">
        <ele>730.0</ele>
        <time>2012-03-30T14:43:53Z</time>
      </trkpt>
      <trkpt lat="46.505137" lon="6.797071">
        <ele>730.0</ele>
        <time>2012-03-30T14:43:58Z</time>
      </trkpt>
      <trkpt lat="46.505229" lon="6.797107">
        <ele>730.0</ele>
        <time>2012-03-30T14:44:02Z</time>
      </trkpt>
      <trkpt lat="46.505309" lon="6.797171">
        <ele>730.0</ele>
        <time>2012-03-30T14:44:06Z</time>
      </trkpt>
      <trkpt lat="46.505375" lon="6.797254">
        <ele>731.0</ele>
        <time>2012-03-30T14:44:09Z</time>
      </trkpt>
      <trkpt lat="46.505333" lon="6.797517">
        <ele>731.0</ele>
        <time>2012-03-30T14:44:19Z</time>
      </trkpt>
      <trkpt lat="46.505287" lon="6.797611">
        <ele>732.0</ele>
        <time>2012-03-30T14:44:23Z</time>
      </trkpt>
      <trkpt lat="46.505197" lon="6.797817">
        <ele>732.0</ele>
        <time>2012-03-30T14:44:31Z</time>
      </trkpt>
      <trkpt lat="46.505161" lon="6.797894">
        <ele>732.0</ele>
        <time>2012-03-30T14:44:34Z</time>
      </trkpt>
      <trkpt lat="46.505089" lon="6.798168">
        <ele>733.0</ele>
        <time>2012-03-30T14:45:02Z</time>
      </trkpt>
      <trkpt lat="46.505027" lon="6.798438">
        <ele>733.0</ele>
        <time>2012-03-30T14:45:09Z</time>
      </trkpt>
      <trkpt lat="46.505018" lon="6.798581">
        <ele>733.0</ele>
        <time>2012-03-30T14:45:14Z</time>
      </trkpt>
      <trkpt lat="46.505029" lon="6.798721">
        <ele>733.0</ele>
        <time>2012-03-30T14:45:21Z</time>
      </trkpt>
      <trkpt lat="46.505065" lon="6.798795">
        <ele>733.0</ele>
        <time>2012-03-30T14:45:25Z</time>
      </trkpt>
      <trkpt lat="46.505167" lon="6.79894">
        <ele>734.0</ele>
        <time>2012-03-30T14:45:33Z</time>
      </trkpt>
      <trkpt lat="46.505246" lon="6.799037">
        <ele>734.0</ele>
        <time>2012-03-30T14:45:37Z</time>
      </trkpt>
      <trkpt lat="46.505309" lon="6.799131">
        <ele>734.0</ele>
        <time>2012-03-30T14:45:41Z</time>
      </trkpt>
      <trkpt lat="46.50538" lon="6.799226">
        <ele>734.0</ele>
        <time>2012-03-30T14:45:45Z</time>
      </trkpt>
      <trkpt lat="46.505473" lon="6.799292">
        <ele>734.0</ele>
        <time>2012-03-30T14:45:49Z</time>
      </trkpt>
      <trkpt lat="46.505545" lon="6.799395">
        <ele>734.0</ele>
        <time>2012-03-30T14:45:54Z</time>
      </trkpt>
      <trkpt lat="46.505598" lon="6.799501">
        <ele>734.0</ele>
        <time>2012-03-30T14:45:59Z</time>
      </trkpt>
      <trkpt lat="46.505628" lon="6.799642">
        <ele>735.0</ele>
        <time>2012-03-30T14:46:06Z</time>
      </trkpt>
      <trkpt lat="46.505628" lon="6.799794">
        <ele>735.0</ele>
        <time>2012-03-30T14:46:12Z</time>
      </trkpt>
      <trkpt lat="46.505628" lon="6.799931">
        <ele>735.0</ele>
        <time>2012-03-30T14:46:18Z</time>
      </trkpt>
      <trkpt lat="46.505633" lon="6.800079">
        <ele>736.0</ele>
        <time>2012-03-30T14:46:25Z</time>
      </trkpt>
      <trkpt lat="46.505645" lon="6.800213">
        <ele>736.0</ele>
        <time>2012-03-30T14:46:32Z</time>
      </trkpt>
      <trkpt lat="46.50566" lon="6.800345">
        <ele>737.0</ele>
        <time>2012-03-30T14:46:41Z</time>
      </trkpt>
      <trkpt lat="46.505558" lon="6.800729">
        <ele>739.0</ele>
        <time>2012-03-30T14:47:06Z</time>
      </trkpt>
      <trkpt lat="46.505477" lon="6.800986">
        <ele>739.0</ele>
        <time>2012-03-30T14:47:20Z</time>
      </trkpt>
      <trkpt lat="46.505435" lon="6.801117">
        <ele>739.0</ele>
        <time>2012-03-30T14:47:26Z</time>
      </trkpt>
      <trkpt lat="46.505382" lon="6.801252">
        <ele>740.0</ele>
        <time>2012-03-30T14:47:40Z</time>
      </trkpt>
      <trkpt lat="46.50528" lon="6.801483">
        <ele>743.0</ele>
        <time>2012-03-30T14:47:50Z</time>
      </trkpt>
      <trkpt lat="46.505093" lon="6.801729">
        <ele>743.0</ele>
        <time>2012-03-30T14:47:58Z</time>
      </trkpt>
      <trkpt lat="46.504994" lon="6.801912">
        <ele>743.0</ele>
        <time>2012-03-30T14:48:02Z</time>
      </trkpt>
      <trkpt lat="46.504898" lon="6.802123">
        <ele>743.0</ele>
        <time>2012-03-30T14:48:06Z</time>
      </trkpt>
      <trkpt lat="46.50482" lon="6.802299">
        <ele>743.0</ele>
        <time>2012-03-30T14:48:10Z</time>
      </trkpt>
      <trkpt lat="46.50479" lon="6.802385">
        <ele>743.0</ele>
        <time>2012-03-30T14:48:12Z</time>
      </trkpt>
      <trkpt lat="46.504596" lon="6.802898">
        <ele>743.0</ele>
        <time>2012-03-30T14:48:27Z</time>
      </trkpt>
      <trkpt lat="46.504574" lon="6.803001">
        <ele>743.0</ele>
        <time>2012-03-30T14:48:30Z</time>
      </trkpt>
      <trkpt lat="46.504558" lon="6.803093">
        <ele>743.0</ele>
        <time>2012-03-30T14:48:33Z</time>
      </trkpt>
      <trkpt lat="46.504548" lon="6.803186">
        <ele>744.0</ele>
        <time>2012-03-30T14:48:36Z</time>
      </trkpt>
      <trkpt lat="46.504526" lon="6.803584">
        <ele>744.0</ele>
        <time>2012-03-30T14:48:49Z</time>
      </trkpt>
      <trkpt lat="46.504481" lon="6.803652">
        <ele>744.0</ele>
        <time>2012-03-30T14:48:54Z</time>
      </trkpt>
      <trkpt lat="46.504416" lon="6.803674">
        <ele>744.0</ele>
        <time>2012-03-30T14:48:57Z</time>
      </trkpt>
      <trkpt lat="46.504282" lon="6.803689">
        <ele>744.0</ele>
        <time>2012-03-30T14:49:03Z</time>
      </trkpt>
      <trkpt lat="46.504213" lon="6.803665">
        <ele>744.0</ele>
        <time>2012-03-30T14:49:07Z</time>
      </trkpt>
      <trkpt lat="46.504135" lon="6.803626">
        <ele>744.0</ele>
        <time>2012-03-30T14:49:11Z</time>
      </trkpt>
      <trkpt lat="46.504075" lon="6.803587">
        <ele>744.0</ele>
        <time>2012-03-30T14:49:14Z</time>
      </trkpt>
      <trkpt lat="46.504014" lon="6.803546">
        <ele>745.0</ele>
        <time>2012-03-30T14:49:17Z</time>
      </trkpt>
      <trkpt lat="46.50389" lon="6.803442">
        <ele>745.0</ele>
        <time>2012-03-30T14:49:23Z</time>
      </trkpt>
      <trkpt lat="46.503825" lon="6.803413">
        <ele>745.0</ele>
        <time>2012-03-30T14:49:26Z</time>
      </trkpt>
      <trkpt lat="46.503615" lon="6.80334">
        <ele>745.0</ele>
        <time>2012-03-30T14:49:35Z</time>
      </trkpt>
      <trkpt lat="46.503545" lon="6.803308">
        <ele>745.0</ele>
        <time>2012-03-30T14:49:38Z</time>
      </trkpt>
      <trkpt lat="46.50347" lon="6.803286">
        <ele>745.0</ele>
        <time>2012-03-30T14:49:41Z</time>
      </trkpt>
      <trkpt lat="46.503304" lon="6.803275">
        <ele>745.0</ele>
        <time>2012-03-30T14:49:47Z</time>
      </trkpt>
      <trkpt lat="46.503222" lon="6.803275">
        <ele>745.0</ele>
        <time>2012-03-30T14:49:51Z</time>
      </trkpt>
      <trkpt lat="46.503143" lon="6.803266">
        <ele>745.0</ele>
        <time>2012-03-30T14:49:53Z</time>
      </trkpt>
      <trkpt lat="46.502982" lon="6.803237">
        <ele>745.0</ele>
        <time>2012-03-30T14:49:58Z</time>
      </trkpt>
      <trkpt lat="46.502913" lon="6.803205">
        <ele>745.0</ele>
        <time>2012-03-30T14:50:00Z</time>
      </trkpt>
      <trkpt lat="46.502686" lon="6.8031">
        <ele>747.0</ele>
        <time>2012-03-30T14:50:06Z</time>
      </trkpt>
      <trkpt lat="46.502532" lon="6.803019">
        <ele>748.0</ele>
        <time>2012-03-30T14:50:11Z</time>
      </trkpt>
      <trkpt lat="46.502395" lon="6.802944">
        <ele>748.0</ele>
        <time>2012-03-30T14:50:15Z</time>
      </trkpt>
      <trkpt lat="46.501891" lon="6.802625">
        <ele>749.0</ele>
        <time>2012-03-30T14:50:23Z</time>
      </trkpt>
      <trkpt lat="46.50167" lon="6.802523">
        <ele>749.0</ele>
        <time>2012-03-30T14:50:27Z</time>
      </trkpt>
      <trkpt lat="46.501407" lon="6.802465">
        <ele>749.0</ele>
        <time>2012-03-30T14:50:31Z</time>
      </trkpt>
      <trkpt lat="46.501008" lon="6.802383">
        <ele>750.0</ele>
        <time>2012-03-30T14:50:35Z</time>
      </trkpt>
      <trkpt lat="46.500708" lon="6.802276">
        <ele>750.0</ele>
        <time>2012-03-30T14:50:38Z</time>
      </trkpt>
      <trkpt lat="46.500255" lon="6.802002">
        <ele>751.0</ele>
        <time>2012-03-30T14:50:43Z</time>
      </trkpt>
      <trkpt lat="46.499912" lon="6.801812">
        <ele>751.0</ele>
        <time>2012-03-30T14:50:47Z</time>
      </trkpt>
      <trkpt lat="46.49957" lon="6.801661">
        <ele>752.0</ele>
        <time>2012-03-30T14:50:51Z</time>
      </trkpt>
      <trkpt lat="46.499249" lon="6.801479">
        <ele>752.0</ele>
        <time>2012-03-30T14:50:55Z</time>
      </trkpt>
      <trkpt lat="46.498955" lon="6.801246">
        <ele>752.0</ele>
        <time>2012-03-30T14:50:59Z</time>
      </trkpt>
      <trkpt lat="46.498682" lon="6.801072">
        <ele>752.0</ele>
        <time>2012-03-30T14:51:03Z</time>
      </trkpt>
      <trkpt lat="46.498418" lon="6.800924">
        <ele>752.0</ele>
        <time>2012-03-30T14:51:07Z</time>
      </trkpt>
      <trkpt lat="46.498185" lon="6.800828">
        <ele>752.0</ele>
        <time>2012-03-30T14:51:11Z</time>
      </trkpt>
      <trkpt lat="46.497658" lon="6.80076">
        <ele>751.0</ele>
        <time>2012-03-30T14:51:19Z</time>
      </trkpt>
      <trkpt lat="46.497378" lon="6.800778">
        <ele>751.0</ele>
        <time>2012-03-30T14:51:22Z</time>
      </trkpt>
      <trkpt lat="46.49694" lon="6.800789">
        <ele>752.0</ele>
        <time>2012-03-30T14:51:27Z</time>
      </trkpt>
      <trkpt lat="46.496612" lon="6.800607">
        <ele>752.0</ele>
        <time>2012-03-30T14:51:31Z</time>
      </trkpt>
      <trkpt lat="46.496003" lon="6.799738">
        <ele>753.0</ele>
        <time>2012-03-30T14:51:39Z</time>
      </trkpt>
      <trkpt lat="46.495724" lon="6.799202">
        <ele>754.0</ele>
        <time>2012-03-30T14:51:43Z</time>
      </trkpt>
      <trkpt lat="46.495424" lon="6.798709">
        <ele>755.0</ele>
        <time>2012-03-30T14:51:47Z</time>
      </trkpt>
      <trkpt lat="46.495153" lon="6.798333">
        <ele>755.0</ele>
        <time>2012-03-30T14:51:51Z</time>
      </trkpt>
      <trkpt lat="46.494877" lon="6.798003">
        <ele>754.0</ele>
        <time>2012-03-30T14:51:55Z</time>
      </trkpt>
      <trkpt lat="46.494657" lon="6.797675">
        <ele>750.0</ele>
        <time>2012-03-30T14:51:59Z</time>
      </trkpt>
      <trkpt lat="46.494454" lon="6.797381">
        <ele>745.0</ele>
        <time>2012-03-30T14:52:03Z</time>
      </trkpt>
      <trkpt lat="46.493992" lon="6.797416">
        <ele>743.0</ele>
        <time>2012-03-30T14:52:07Z</time>
      </trkpt>
      <trkpt lat="46.493541" lon="6.797686">
        <ele>742.0</ele>
        <time>2012-03-30T14:52:10Z</time>
      </trkpt>
      <trkpt lat="46.49291" lon="6.797706">
        <ele>741.0</ele>
        <time>2012-03-30T14:52:15Z</time>
      </trkpt>
      <trkpt lat="46.4925" lon="6.797638">
        <ele>740.0</ele>
        <time>2012-03-30T14:52:19Z</time>
      </trkpt>
      <trkpt lat="46.492119" lon="6.79756">
        <ele>741.0</ele>
        <time>2012-03-30T14:52:23Z</time>
      </trkpt>
      <trkpt lat="46.491811" lon="6.797698">
        <ele>742.0</ele>
        <time>2012-03-30T14:52:27Z</time>
      </trkpt>
      <trkpt lat="46.491672" lon="6.797893">
        <ele>743.0</ele>
        <time>2012-03-30T14:52:30Z</time>
      </trkpt>
      <trkpt lat="46.491496" lon="6.798133">
        <ele>744.0</ele>
        <time>2012-03-30T14:52:34Z</time>
      </trkpt>
      <trkpt lat="46.491324" lon="6.798354">
        <ele>746.0</ele>
        <time>2012-03-30T14:52:38Z</time>
      </trkpt>
      <trkpt lat="46.491176" lon="6.798497">
        <ele>747.0</ele>
        <time>2012-03-30T14:52:42Z</time>
      </trkpt>
      <trkpt lat="46.491036" lon="6.798589">
        <ele>748.0</ele>
        <time>2012-03-30T14:52:46Z</time>
      </trkpt>
      <trkpt lat="46.490752" lon="6.798612">
        <ele>749.0</ele>
        <time>2012-03-30T14:52:54Z</time>
      </trkpt>
      <trkpt lat="46.490575" lon="6.798563">
        <ele>749.0</ele>
        <time>2012-03-30T14:52:58Z</time>
      </trkpt>
      <trkpt lat="46.490393" lon="6.798523">
        <ele>749.0</ele>
        <time>2012-03-30T14:53:02Z</time>
      </trkpt>
      <trkpt lat="46.490019" lon="6.798527">
        <ele>749.0</ele>
        <time>2012-03-30T14:53:10Z</time>
      </trkpt>
      <trkpt lat="46.489699" lon="6.798569">
        <ele>750.0</ele>
        <time>2012-03-30T14:53:16Z</time>
      </trkpt>
      <trkpt lat="46.489437" lon="6.798559">
        <ele>750.0</ele>
        <time>2012-03-30T14:53:20Z</time>
      </trkpt>
      <trkpt lat="46.489276" lon="6.798574">
        <ele>750.0</ele>
        <time>2012-03-30T14:53:22Z</time>
      </trkpt>
      <trkpt lat="46.488807" lon="6.798621">
        <ele>750.0</ele>
        <time>2012-03-30T14:53:28Z</time>
      </trkpt>
      <trkpt lat="46.488731" lon="6.798612">
        <ele>750.0</ele>
        <time>2012-03-30T14:53:29Z</time>
      </trkpt>
      <trkpt lat="46.488319" lon="6.798728">
        <ele>751.0</ele>
        <time>2012-03-30T14:53:35Z</time>
      </trkpt>
      <trkpt lat="46.488093" lon="6.798988">
        <ele>748.0</ele>
        <time>2012-03-30T14:53:40Z</time>
      </trkpt>
      <trkpt lat="46.487846" lon="6.799047">
        <ele>741.0</ele>
        <time>2012-03-30T14:53:43Z</time>
      </trkpt>
      <trkpt lat="46.487277" lon="6.798954">
        <ele>740.0</ele>
        <time>2012-03-30T14:53:48Z</time>
      </trkpt>
      <trkpt lat="46.486983" lon="6.798909">
        <ele>742.0</ele>
        <time>2012-03-30T14:53:51Z</time>
      </trkpt>
      <trkpt lat="46.486599" lon="6.79891">
        <ele>743.0</ele>
        <time>2012-03-30T14:53:55Z</time>
      </trkpt>
      <trkpt lat="46.48616" lon="6.798967">
        <ele>743.0</ele>
        <time>2012-03-30T14:54:00Z</time>
      </trkpt>
      <trkpt lat="46.48585" lon="6.79901">
        <ele>743.0</ele>
        <time>2012-03-30T14:54:02Z</time>
      </trkpt>
      <trkpt lat="46.485352" lon="6.800343">
        <ele>743.0</ele>
        <time>2012-03-30T14:54:08Z</time>
      </trkpt>
      <trkpt lat="46.485457" lon="6.801211">
        <ele>741.0</ele>
        <time>2012-03-30T14:54:12Z</time>
      </trkpt>
      <trkpt lat="46.485369" lon="6.801646">
        <ele>741.0</ele>
        <time>2012-03-30T14:54:16Z</time>
      </trkpt>
      <trkpt lat="46.485275" lon="6.802096">
        <ele>741.0</ele>
        <time>2012-03-30T14:54:20Z</time>
      </trkpt>
      <trkpt lat="46.485407" lon="6.802442">
        <ele>738.0</ele>
        <time>2012-03-30T14:54:23Z</time>
      </trkpt>
      <trkpt lat="46.485514" lon="6.802455">
        <ele>740.0</ele>
        <time>2012-03-30T14:54:26Z</time>
      </trkpt>
      <trkpt lat="46.485532" lon="6.802551">
        <ele>740.0</ele>
        <time>2012-03-30T14:54:33Z</time>
      </trkpt>
      <trkpt lat="46.485544" lon="6.802762">
        <ele>741.0</ele>
        <time>2012-03-30T14:54:44Z</time>
      </trkpt>
      <trkpt lat="46.485635" lon="6.802743">
        <ele>741.0</ele>
        <time>2012-03-30T14:54:49Z</time>
      </trkpt>
      <trkpt lat="46.485691" lon="6.802924">
        <ele>741.0</ele>
        <time>2012-03-30T14:54:57Z</time>
      </trkpt>
      <trkpt lat="46.485662" lon="6.803059">
        <ele>741.0</ele>
        <time>2012-03-30T14:55:02Z</time>
      </trkpt>
      <trkpt lat="46.485842" lon="6.80353">
        <ele>741.0</ele>
        <time>2012-03-30T14:55:16Z</time>
      </trkpt>
      <trkpt lat="46.485861" lon="6.803667">
        <ele>741.0</ele>
        <time>2012-03-30T14:55:20Z</time>
      </trkpt>
      <trkpt lat="46.485886" lon="6.803766">
        <ele>741.0</ele>
        <time>2012-03-30T14:55:24Z</time>
      </trkpt>
      <trkpt lat="46.485958" lon="6.803867">
        <ele>741.0</ele>
        <time>2012-03-30T14:55:28Z</time>
      </trkpt>
      <trkpt lat="46.486038" lon="6.803954">
        <ele>742.0</ele>
        <time>2012-03-30T14:55:32Z</time>
      </trkpt>
      <trkpt lat="46.486115" lon="6.804038">
        <ele>743.0</ele>
        <time>2012-03-30T14:55:38Z</time>
      </trkpt>
      <trkpt lat="46.486382" lon="6.804201">
        <ele>747.0</ele>
        <time>2012-03-30T14:55:53Z</time>
      </trkpt>
      <trkpt lat="46.486651" lon="6.804456">
        <ele>750.0</ele>
        <time>2012-03-30T14:56:07Z</time>
      </trkpt>
      <trkpt lat="46.486693" lon="6.804531">
        <ele>751.0</ele>
        <time>2012-03-30T14:56:10Z</time>
      </trkpt>
      <trkpt lat="46.486798" lon="6.804708">
        <ele>752.0</ele>
        <time>2012-03-30T14:56:16Z</time>
      </trkpt>
      <trkpt lat="46.486878" lon="6.804853">
        <ele>752.0</ele>
        <time>2012-03-30T14:56:20Z</time>
      </trkpt>
      <trkpt lat="46.486912" lon="6.804965">
        <ele>752.0</ele>
        <time>2012-03-30T14:56:23Z</time>
      </trkpt>
      <trkpt lat="46.486939" lon="6.805069">
        <ele>753.0</ele>
        <time>2012-03-30T14:56:26Z</time>
      </trkpt>
      <trkpt lat="46.486944" lon="6.805292">
        <ele>753.0</ele>
        <time>2012-03-30T14:56:32Z</time>
      </trkpt>
      <trkpt lat="46.486952" lon="6.805409">
        <ele>753.0</ele>
        <time>2012-03-30T14:56:35Z</time>
      </trkpt>
      <trkpt lat="46.486963" lon="6.805514">
        <ele>753.0</ele>
        <time>2012-03-30T14:56:38Z</time>
      </trkpt>
      <trkpt lat="46.486982" lon="6.805619">
        <ele>754.0</ele>
        <time>2012-03-30T14:56:41Z</time>
      </trkpt>
      <trkpt lat="46.487309" lon="6.805842">
        <ele>756.0</ele>
        <time>2012-03-30T14:56:55Z</time>
      </trkpt>
      <trkpt lat="46.487519" lon="6.805864">
        <ele>758.0</ele>
        <time>2012-03-30T14:57:00Z</time>
      </trkpt>
      <trkpt lat="46.487704" lon="6.805857">
        <ele>761.0</ele>
        <time>2012-03-30T14:57:09Z</time>
      </trkpt>
      <trkpt lat="46.487979" lon="6.805831">
        <ele>763.0</ele>
        <time>2012-03-30T14:57:28Z</time>
      </trkpt>
      <trkpt lat="46.488058" lon="6.80587">
        <ele>763.0</ele>
        <time>2012-03-30T14:57:35Z</time>
      </trkpt>
      <trkpt lat="46.488393" lon="6.806202">
        <ele>766.0</ele>
        <time>2012-03-30T14:58:00Z</time>
      </trkpt>
      <trkpt lat="46.48847" lon="6.806372">
        <ele>766.0</ele>
        <time>2012-03-30T14:58:06Z</time>
      </trkpt>
      <trkpt lat="46.488527" lon="6.806488">
        <ele>767.0</ele>
        <time>2012-03-30T14:58:10Z</time>
      </trkpt>
      <trkpt lat="46.488602" lon="6.806709">
        <ele>767.0</ele>
        <time>2012-03-30T14:58:16Z</time>
      </trkpt>
      <trkpt lat="46.488653" lon="6.806891">
        <ele>767.0</ele>
        <time>2012-03-30T14:58:20Z</time>
      </trkpt>
      <trkpt lat="46.488718" lon="6.807124">
        <ele>767.0</ele>
        <time>2012-03-30T14:58:24Z</time>
      </trkpt>
      <trkpt lat="46.488797" lon="6.807334">
        <ele>767.0</ele>
        <time>2012-03-30T14:58:28Z</time>
      </trkpt>
      <trkpt lat="46.488806" lon="6.807573">
        <ele>768.0</ele>
        <time>2012-03-30T14:58:32Z</time>
      </trkpt>
      <trkpt lat="46.488698" lon="6.808062">
        <ele>769.0</ele>
        <time>2012-03-30T14:58:40Z</time>
      </trkpt>
      <trkpt lat="46.48866" lon="6.808252">
        <ele>769.0</ele>
        <time>2012-03-30T14:58:44Z</time>
      </trkpt>
      <trkpt lat="46.488599" lon="6.808471">
        <ele>769.0</ele>
        <time>2012-03-30T14:58:48Z</time>
      </trkpt>
      <trkpt lat="46.488533" lon="6.808693">
        <ele>769.0</ele>
        <time>2012-03-30T14:58:52Z</time>
      </trkpt>
      <trkpt lat="46.488469" lon="6.808885">
        <ele>769.0</ele>
        <time>2012-03-30T14:58:56Z</time>
      </trkpt>
      <trkpt lat="46.488399" lon="6.809066">
        <ele>769.0</ele>
        <time>2012-03-30T14:59:00Z</time>
      </trkpt>
      <trkpt lat="46.488368" lon="6.809145">
        <ele>769.0</ele>
        <time>2012-03-30T14:59:02Z</time>
      </trkpt>
      <trkpt lat="46.488282" lon="6.809342">
        <ele>770.0</ele>
        <time>2012-03-30T14:59:07Z</time>
      </trkpt>
      <trkpt lat="46.488205" lon="6.80953">
        <ele>770.0</ele>
        <time>2012-03-30T14:59:12Z</time>
      </trkpt>
      <trkpt lat="46.488162" lon="6.809623">
        <ele>770.0</ele>
        <time>2012-03-30T14:59:15Z</time>
      </trkpt>
      <trkpt lat="46.488123" lon="6.809719">
        <ele>770.0</ele>
        <time>2012-03-30T14:59:18Z</time>
      </trkpt>
      <trkpt lat="46.488059" lon="6.809913">
        <ele>770.0</ele>
        <time>2012-03-30T14:59:24Z</time>
      </trkpt>
      <trkpt lat="46.48801" lon="6.809993">
        <ele>771.0</ele>
        <time>2012-03-30T14:59:28Z</time>
      </trkpt>
      <trkpt lat="46.487986" lon="6.81008">
        <ele>771.0</ele>
        <time>2012-03-30T14:59:31Z</time>
      </trkpt>
      <trkpt lat="46.487951" lon="6.81016">
        <ele>772.0</ele>
        <time>2012-03-30T14:59:34Z</time>
      </trkpt>
      <trkpt lat="46.487879" lon="6.810375">
        <ele>773.0</ele>
        <time>2012-03-30T14:59:40Z</time>
      </trkpt>
      <trkpt lat="46.487855" lon="6.810463">
        <ele>773.0</ele>
        <time>2012-03-30T14:59:42Z</time>
      </trkpt>
      <trkpt lat="46.487792" lon="6.810702">
        <ele>774.0</ele>
        <time>2012-03-30T14:59:48Z</time>
      </trkpt>
      <trkpt lat="46.487746" lon="6.810886">
        <ele>774.0</ele>
        <time>2012-03-30T14:59:52Z</time>
      </trkpt>
      <trkpt lat="46.487723" lon="6.810991">
        <ele>774.0</ele>
        <time>2012-03-30T14:59:55Z</time>
      </trkpt>
      <trkpt lat="46.487699" lon="6.811106">
        <ele>774.0</ele>
        <time>2012-03-30T14:59:59Z</time>
      </trkpt>
      <trkpt lat="46.487684" lon="6.811214">
        <ele>775.0</ele>
        <time>2012-03-30T15:00:04Z</time>
      </trkpt>
      <trkpt lat="46.487663" lon="6.811312">
        <ele>775.0</ele>
        <time>2012-03-30T15:00:07Z</time>
      </trkpt>
      <trkpt lat="46.487644" lon="6.811403">
        <ele>775.0</ele>
        <time>2012-03-30T15:00:10Z</time>
      </trkpt>
      <trkpt lat="46.4876" lon="6.811621">
        <ele>776.0</ele>
        <time>2012-03-30T15:00:16Z</time>
      </trkpt>
      <trkpt lat="46.487583" lon="6.811727">
        <ele>776.0</ele>
        <time>2012-03-30T15:00:19Z</time>
      </trkpt>
      <trkpt lat="46.487537" lon="6.812173">
        <ele>777.0</ele>
        <time>2012-03-30T15:00:32Z</time>
      </trkpt>
      <trkpt lat="46.487526" lon="6.812278">
        <ele>778.0</ele>
        <time>2012-03-30T15:00:35Z</time>
      </trkpt>
      <trkpt lat="46.487502" lon="6.812397">
        <ele>779.0</ele>
        <time>2012-03-30T15:00:38Z</time>
      </trkpt>
      <trkpt lat="46.487463" lon="6.812606">
        <ele>781.0</ele>
        <time>2012-03-30T15:00:44Z</time>
      </trkpt>
      <trkpt lat="46.487444" lon="6.812718">
        <ele>781.0</ele>
        <time>2012-03-30T15:00:47Z</time>
      </trkpt>
      <trkpt lat="46.487402" lon="6.812937">
        <ele>783.0</ele>
        <time>2012-03-30T15:00:52Z</time>
      </trkpt>
      <trkpt lat="46.487381" lon="6.813024">
        <ele>784.0</ele>
        <time>2012-03-30T15:00:54Z</time>
      </trkpt>
      <trkpt lat="46.487335" lon="6.813227">
        <ele>786.0</ele>
        <time>2012-03-30T15:01:00Z</time>
      </trkpt>
      <trkpt lat="46.487312" lon="6.813339">
        <ele>787.0</ele>
        <time>2012-03-30T15:01:03Z</time>
      </trkpt>
      <trkpt lat="46.487226" lon="6.813769">
        <ele>792.0</ele>
        <time>2012-03-30T15:01:15Z</time>
      </trkpt>
      <trkpt lat="46.487207" lon="6.813893">
        <ele>793.0</ele>
        <time>2012-03-30T15:01:18Z</time>
      </trkpt>
      <trkpt lat="46.487168" lon="6.814131">
        <ele>794.0</ele>
        <time>2012-03-30T15:01:24Z</time>
      </trkpt>
      <trkpt lat="46.487148" lon="6.814247">
        <ele>794.0</ele>
        <time>2012-03-30T15:01:27Z</time>
      </trkpt>
      <trkpt lat="46.487123" lon="6.814344">
        <ele>794.0</ele>
        <time>2012-03-30T15:01:30Z</time>
      </trkpt>
      <trkpt lat="46.48705" lon="6.814529">
        <ele>795.0</ele>
        <time>2012-03-30T15:01:36Z</time>
      </trkpt>
      <trkpt lat="46.487095" lon="6.814647">
        <ele>799.0</ele>
        <time>2012-03-30T15:01:51Z</time>
      </trkpt>
      <trkpt lat="46.487165" lon="6.814748">
        <ele>801.0</ele>
        <time>2012-03-30T15:01:55Z</time>
      </trkpt>
      <trkpt lat="46.487273" lon="6.814765">
        <ele>803.0</ele>
        <time>2012-03-30T15:01:59Z</time>
      </trkpt>
      <trkpt lat="46.487359" lon="6.814663">
        <ele>805.0</ele>
        <time>2012-03-30T15:02:03Z</time>
      </trkpt>
      <trkpt lat="46.487451" lon="6.81461">
        <ele>806.0</ele>
        <time>2012-03-30T15:02:06Z</time>
      </trkpt>
      <trkpt lat="46.48754" lon="6.814572">
        <ele>807.0</ele>
        <time>2012-03-30T15:02:09Z</time>
      </trkpt>
      <trkpt lat="46.48763" lon="6.814563">
        <ele>808.0</ele>
        <time>2012-03-30T15:02:13Z</time>
      </trkpt>
      <trkpt lat="46.487725" lon="6.814561">
        <ele>809.0</ele>
        <time>2012-03-30T15:02:19Z</time>
      </trkpt>
      <trkpt lat="46.487805" lon="6.814634">
        <ele>809.0</ele>
        <time>2012-03-30T15:02:24Z</time>
      </trkpt>
      <trkpt lat="46.487895" lon="6.814663">
        <ele>810.0</ele>
        <time>2012-03-30T15:02:35Z</time>
      </trkpt>
      <trkpt lat="46.487993" lon="6.81467">
        <ele>811.0</ele>
        <time>2012-03-30T15:02:41Z</time>
      </trkpt>
      <trkpt lat="46.488085" lon="6.814655">
        <ele>811.0</ele>
        <time>2012-03-30T15:02:46Z</time>
      </trkpt>
      <trkpt lat="46.488168" lon="6.814574">
        <ele>811.0</ele>
        <time>2012-03-30T15:02:54Z</time>
      </trkpt>
      <trkpt lat="46.48823" lon="6.814477">
        <ele>810.0</ele>
        <time>2012-03-30T15:03:03Z</time>
      </trkpt>
      <trkpt lat="46.48838" lon="6.814293">
        <ele>813.0</ele>
        <time>2012-03-30T15:03:12Z</time>
      </trkpt>
      <trkpt lat="46.488463" lon="6.814238">
        <ele>816.0</ele>
        <time>2012-03-30T15:03:20Z</time>
      </trkpt>
      <trkpt lat="46.488567" lon="6.814227">
        <ele>818.0</ele>
        <time>2012-03-30T15:03:25Z</time>
      </trkpt>
      <trkpt lat="46.488671" lon="6.814234">
        <ele>819.0</ele>
        <time>2012-03-30T15:03:30Z</time>
      </trkpt>
      <trkpt lat="46.488734" lon="6.81424">
        <ele>820.0</ele>
        <time>2012-03-30T15:03:35Z</time>
      </trkpt>
      <trkpt lat="46.488802" lon="6.814242">
        <ele>821.0</ele>
        <time>2012-03-30T15:03:40Z</time>
      </trkpt>
      <trkpt lat="46.488867" lon="6.814276">
        <ele>821.0</ele>
        <time>2012-03-30T15:03:45Z</time>
      </trkpt>
      <trkpt lat="46.488938" lon="6.81428">
        <ele>822.0</ele>
        <time>2012-03-30T15:03:50Z</time>
      </trkpt>
      <trkpt lat="46.489011" lon="6.814275">
        <ele>822.0</ele>
        <time>2012-03-30T15:03:55Z</time>
      </trkpt>
      <trkpt lat="46.489079" lon="6.814218">
        <ele>822.0</ele>
        <time>2012-03-30T15:03:59Z</time>
      </trkpt>
      <trkpt lat="46.489129" lon="6.814144">
        <ele>822.0</ele>
        <time>2012-03-30T15:04:02Z</time>
      </trkpt>
      <trkpt lat="46.489192" lon="6.81409">
        <ele>823.0</ele>
        <time>2012-03-30T15:04:06Z</time>
      </trkpt>
      <trkpt lat="46.489254" lon="6.814073">
        <ele>823.0</ele>
        <time>2012-03-30T15:04:10Z</time>
      </trkpt>
      <trkpt lat="46.489328" lon="6.814066">
        <ele>823.0</ele>
        <time>2012-03-30T15:04:15Z</time>
      </trkpt>
      <trkpt lat="46.4894" lon="6.814061">
        <ele>823.0</ele>
        <time>2012-03-30T15:04:20Z</time>
      </trkpt>
      <trkpt lat="46.489463" lon="6.814022">
        <ele>822.0</ele>
        <time>2012-03-30T15:04:25Z</time>
      </trkpt>
      <trkpt lat="46.489523" lon="6.813973">
        <ele>822.0</ele>
        <time>2012-03-30T15:04:30Z</time>
      </trkpt>
      <trkpt lat="46.489562" lon="6.813882">
        <ele>823.0</ele>
        <time>2012-03-30T15:04:34Z</time>
      </trkpt>
      <trkpt lat="46.489575" lon="6.813667">
        <ele>826.0</ele>
        <time>2012-03-30T15:04:39Z</time>
      </trkpt>
      <trkpt lat="46.489634" lon="6.813625">
        <ele>831.0</ele>
        <time>2012-03-30T15:04:46Z</time>
      </trkpt>
      <trkpt lat="46.489704" lon="6.813641">
        <ele>837.0</ele>
        <time>2012-03-30T15:04:53Z</time>
      </trkpt>
      <trkpt lat="46.489769" lon="6.813684">
        <ele>841.0</ele>
        <time>2012-03-30T15:04:58Z</time>
      </trkpt>
      <trkpt lat="46.48983" lon="6.813708">
        <ele>845.0</ele>
        <time>2012-03-30T15:05:03Z</time>
      </trkpt>
      <trkpt lat="46.48991" lon="6.813714">
        <ele>848.0</ele>
        <time>2012-03-30T15:05:08Z</time>
      </trkpt>
      <trkpt lat="46.489983" lon="6.81373">
        <ele>851.0</ele>
        <time>2012-03-30T15:05:12Z</time>
      </trkpt>
      <trkpt lat="46.490054" lon="6.813734">
        <ele>853.0</ele>
        <time>2012-03-30T15:05:16Z</time>
      </trkpt>
      <trkpt lat="46.490129" lon="6.813718">
        <ele>856.0</ele>
        <time>2012-03-30T15:05:21Z</time>
      </trkpt>
      <trkpt lat="46.490201" lon="6.813682">
        <ele>857.0</ele>
        <time>2012-03-30T15:05:26Z</time>
      </trkpt>
      <trkpt lat="46.490496" lon="6.813644">
        <ele>859.0</ele>
        <time>2012-03-30T15:05:41Z</time>
      </trkpt>
      <trkpt lat="46.490665" lon="6.81361">
        <ele>859.0</ele>
        <time>2012-03-30T15:05:47Z</time>
      </trkpt>
      <trkpt lat="46.49075" lon="6.813591">
        <ele>859.0</ele>
        <time>2012-03-30T15:05:50Z</time>
      </trkpt>
      <trkpt lat="46.490822" lon="6.813556">
        <ele>858.0</ele>
        <time>2012-03-30T15:05:53Z</time>
      </trkpt>
      <trkpt lat="46.490959" lon="6.813484">
        <ele>858.0</ele>
        <time>2012-03-30T15:05:59Z</time>
      </trkpt>
      <trkpt lat="46.491028" lon="6.813458">
        <ele>858.0</ele>
        <time>2012-03-30T15:06:02Z</time>
      </trkpt>
      <trkpt lat="46.491109" lon="6.813441">
        <ele>858.0</ele>
        <time>2012-03-30T15:06:06Z</time>
      </trkpt>
      <trkpt lat="46.491177" lon="6.813427">
        <ele>858.0</ele>
        <time>2012-03-30T15:06:09Z</time>
      </trkpt>
      <trkpt lat="46.491459" lon="6.813306">
        <ele>859.0</ele>
        <time>2012-03-30T15:06:21Z</time>
      </trkpt>
      <trkpt lat="46.491539" lon="6.813304">
        <ele>860.0</ele>
        <time>2012-03-30T15:06:25Z</time>
      </trkpt>
      <trkpt lat="46.49162" lon="6.813283">
        <ele>861.0</ele>
        <time>2012-03-30T15:06:29Z</time>
      </trkpt>
      <trkpt lat="46.491686" lon="6.813255">
        <ele>861.0</ele>
        <time>2012-03-30T15:06:32Z</time>
      </trkpt>
      <trkpt lat="46.49176" lon="6.81321">
        <ele>862.0</ele>
        <time>2012-03-30T15:06:36Z</time>
      </trkpt>
      <trkpt lat="46.492017" lon="6.813005">
        <ele>868.0</ele>
        <time>2012-03-30T15:06:52Z</time>
      </trkpt>
      <trkpt lat="46.492074" lon="6.812934">
        <ele>869.0</ele>
        <time>2012-03-30T15:06:56Z</time>
      </trkpt>
      <trkpt lat="46.492122" lon="6.812851">
        <ele>870.0</ele>
        <time>2012-03-30T15:07:00Z</time>
      </trkpt>
      <trkpt lat="46.492176" lon="6.812789">
        <ele>872.0</ele>
        <time>2012-03-30T15:07:04Z</time>
      </trkpt>
      <trkpt lat="46.492225" lon="6.812727">
        <ele>873.0</ele>
        <time>2012-03-30T15:07:08Z</time>
      </trkpt>
      <trkpt lat="46.492269" lon="6.812634">
        <ele>874.0</ele>
        <time>2012-03-30T15:07:13Z</time>
      </trkpt>
      <trkpt lat="46.492306" lon="6.812551">
        <ele>875.0</ele>
        <time>2012-03-30T15:07:17Z</time>
      </trkpt>
      <trkpt lat="46.492349" lon="6.812215">
        <ele>876.0</ele>
        <time>2012-03-30T15:07:29Z</time>
      </trkpt>
      <trkpt lat="46.492367" lon="6.811908">
        <ele>876.0</ele>
        <time>2012-03-30T15:07:39Z</time>
      </trkpt>
      <trkpt lat="46.492387" lon="6.811685">
        <ele>876.0</ele>
        <time>2012-03-30T15:07:47Z</time>
      </trkpt>
      <trkpt lat="46.492446" lon="6.81149">
        <ele>876.0</ele>
        <time>2012-03-30T15:07:54Z</time>
      </trkpt>
      <trkpt lat="46.492594" lon="6.811261">
        <ele>877.0</ele>
        <time>2012-03-30T15:08:06Z</time>
      </trkpt>
      <trkpt lat="46.492851" lon="6.811063">
        <ele>881.0</ele>
        <time>2012-03-30T15:08:22Z</time>
      </trkpt>
      <trkpt lat="46.492915" lon="6.811019">
        <ele>883.0</ele>
        <time>2012-03-30T15:08:27Z</time>
      </trkpt>
      <trkpt lat="46.492987" lon="6.810997">
        <ele>884.0</ele>
        <time>2012-03-30T15:08:33Z</time>
      </trkpt>
      <trkpt lat="46.493262" lon="6.810987">
        <ele>885.0</ele>
        <time>2012-03-30T15:08:54Z</time>
      </trkpt>
      <trkpt lat="46.493337" lon="6.81098">
        <ele>885.0</ele>
        <time>2012-03-30T15:09:00Z</time>
      </trkpt>
      <trkpt lat="46.493408" lon="6.810984">
        <ele>884.0</ele>
        <time>2012-03-30T15:09:05Z</time>
      </trkpt>
      <trkpt lat="46.493481" lon="6.810969">
        <ele>884.0</ele>
        <time>2012-03-30T15:09:10Z</time>
      </trkpt>
      <trkpt lat="46.493538" lon="6.810924">
        <ele>884.0</ele>
        <time>2012-03-30T15:09:14Z</time>
      </trkpt>
      <trkpt lat="46.493605" lon="6.810904">
        <ele>885.0</ele>
        <time>2012-03-30T15:09:19Z</time>
      </trkpt>
      <trkpt lat="46.493669" lon="6.810887">
        <ele>885.0</ele>
        <time>2012-03-30T15:09:24Z</time>
      </trkpt>
      <trkpt lat="46.493736" lon="6.810866">
        <ele>886.0</ele>
        <time>2012-03-30T15:09:29Z</time>
      </trkpt>
      <trkpt lat="46.49381" lon="6.810855">
        <ele>886.0</ele>
        <time>2012-03-30T15:09:34Z</time>
      </trkpt>
      <trkpt lat="46.493881" lon="6.810843">
        <ele>886.0</ele>
        <time>2012-03-30T15:09:39Z</time>
      </trkpt>
      <trkpt lat="46.493959" lon="6.810829">
        <ele>886.0</ele>
        <time>2012-03-30T15:09:44Z</time>
      </trkpt>
      <trkpt lat="46.494123" lon="6.810768">
        <ele>887.0</ele>
        <time>2012-03-30T15:09:51Z</time>
      </trkpt>
      <trkpt lat="46.49419" lon="6.810732">
        <ele>887.0</ele>
        <time>2012-03-30T15:09:54Z</time>
      </trkpt>
      <trkpt lat="46.494257" lon="6.810687">
        <ele>888.0</ele>
        <time>2012-03-30T15:09:58Z</time>
      </trkpt>
      <trkpt lat="46.494316" lon="6.810649">
        <ele>888.0</ele>
        <time>2012-03-30T15:10:02Z</time>
      </trkpt>
      <trkpt lat="46.494423" lon="6.810481">
        <ele>892.0</ele>
        <time>2012-03-30T15:10:12Z</time>
      </trkpt>
      <trkpt lat="46.494644" lon="6.810428">
        <ele>900.0</ele>
        <time>2012-03-30T15:10:32Z</time>
      </trkpt>
      <trkpt lat="46.494702" lon="6.81049">
        <ele>900.0</ele>
        <time>2012-03-30T15:10:37Z</time>
      </trkpt>
      <trkpt lat="46.49497" lon="6.810584">
        <ele>900.0</ele>
        <time>2012-03-30T15:10:53Z</time>
      </trkpt>
      <trkpt lat="46.495035" lon="6.810599">
        <ele>900.0</ele>
        <time>2012-03-30T15:10:57Z</time>
      </trkpt>
      <trkpt lat="46.495101" lon="6.810623">
        <ele>901.0</ele>
        <time>2012-03-30T15:11:02Z</time>
      </trkpt>
      <trkpt lat="46.495172" lon="6.810647">
        <ele>903.0</ele>
        <time>2012-03-30T15:11:07Z</time>
      </trkpt>
      <trkpt lat="46.495239" lon="6.810665">
        <ele>904.0</ele>
        <time>2012-03-30T15:11:11Z</time>
      </trkpt>
      <trkpt lat="46.495308" lon="6.810685">
        <ele>905.0</ele>
        <time>2012-03-30T15:11:15Z</time>
      </trkpt>
      <trkpt lat="46.495383" lon="6.810721">
        <ele>906.0</ele>
        <time>2012-03-30T15:11:19Z</time>
      </trkpt>
      <trkpt lat="46.495441" lon="6.810764">
        <ele>906.0</ele>
        <time>2012-03-30T15:11:22Z</time>
      </trkpt>
      <trkpt lat="46.495502" lon="6.810822">
        <ele>907.0</ele>
        <time>2012-03-30T15:11:26Z</time>
      </trkpt>
      <trkpt lat="46.495567" lon="6.81086">
        <ele>908.0</ele>
        <time>2012-03-30T15:11:31Z</time>
      </trkpt>
      <trkpt lat="46.495645" lon="6.810873">
        <ele>909.0</ele>
        <time>2012-03-30T15:11:36Z</time>
      </trkpt>
      <trkpt lat="46.495794" lon="6.810817">
        <ele>911.0</ele>
        <time>2012-03-30T15:11:42Z</time>
      </trkpt>
      <trkpt lat="46.495871" lon="6.810809">
        <ele>911.0</ele>
        <time>2012-03-30T15:11:45Z</time>
      </trkpt>
      <trkpt lat="46.495945" lon="6.810802">
        <ele>912.0</ele>
        <time>2012-03-30T15:11:49Z</time>
      </trkpt>
      <trkpt lat="46.495979" lon="6.81061">
        <ele>916.0</ele>
        <time>2012-03-30T15:11:56Z</time>
      </trkpt>
      <trkpt lat="46.496041" lon="6.810468">
        <ele>923.0</ele>
        <time>2012-03-30T15:12:09Z</time>
      </trkpt>
      <trkpt lat="46.49611" lon="6.810466">
        <ele>925.0</ele>
        <time>2012-03-30T15:12:14Z</time>
      </trkpt>
      <trkpt lat="46.496382" lon="6.810484">
        <ele>930.0</ele>
        <time>2012-03-30T15:12:31Z</time>
      </trkpt>
      <trkpt lat="46.496457" lon="6.810482">
        <ele>930.0</ele>
        <time>2012-03-30T15:12:36Z</time>
      </trkpt>
      <trkpt lat="46.496521" lon="6.810474">
        <ele>931.0</ele>
        <time>2012-03-30T15:12:41Z</time>
      </trkpt>
      <trkpt lat="46.496533" lon="6.81038">
        <ele>932.0</ele>
        <time>2012-03-30T15:12:44Z</time>
      </trkpt>
      <trkpt lat="46.496591" lon="6.810422">
        <ele>938.0</ele>
        <time>2012-03-30T15:13:00Z</time>
      </trkpt>
      <trkpt lat="46.496617" lon="6.810517">
        <ele>941.0</ele>
        <time>2012-03-30T15:13:05Z</time>
      </trkpt>
      <trkpt lat="46.496729" lon="6.810885">
        <ele>948.0</ele>
        <time>2012-03-30T15:13:25Z</time>
      </trkpt>
      <trkpt lat="46.496748" lon="6.810983">
        <ele>949.0</ele>
        <time>2012-03-30T15:13:30Z</time>
      </trkpt>
      <trkpt lat="46.496779" lon="6.811077">
        <ele>951.0</ele>
        <time>2012-03-30T15:13:36Z</time>
      </trkpt>
      <trkpt lat="46.496806" lon="6.811171">
        <ele>952.0</ele>
        <time>2012-03-30T15:13:42Z</time>
      </trkpt>
      <trkpt lat="46.496823" lon="6.81127">
        <ele>953.0</ele>
        <time>2012-03-30T15:13:48Z</time>
      </trkpt>
      <trkpt lat="46.49677" lon="6.811336">
        <ele>953.0</ele>
        <time>2012-03-30T15:13:53Z</time>
      </trkpt>
      <trkpt lat="46.496734" lon="6.81144">
        <ele>953.0</ele>
        <time>2012-03-30T15:13:58Z</time>
      </trkpt>
      <trkpt lat="46.496676" lon="6.811526">
        <ele>953.0</ele>
        <time>2012-03-30T15:14:02Z</time>
      </trkpt>
      <trkpt lat="46.496605" lon="6.811573">
        <ele>954.0</ele>
        <time>2012-03-30T15:14:05Z</time>
      </trkpt>
      <trkpt lat="46.496439" lon="6.811667">
        <ele>955.0</ele>
        <time>2012-03-30T15:14:11Z</time>
      </trkpt>
      <trkpt lat="46.49636" lon="6.811721">
        <ele>956.0</ele>
        <time>2012-03-30T15:14:14Z</time>
      </trkpt>
      <trkpt lat="46.496227" lon="6.811836">
        <ele>958.0</ele>
        <time>2012-03-30T15:14:19Z</time>
      </trkpt>
      <trkpt lat="46.496116" lon="6.811938">
        <ele>959.0</ele>
        <time>2012-03-30T15:14:23Z</time>
      </trkpt>
      <trkpt lat="46.49604" lon="6.812015">
        <ele>960.0</ele>
        <time>2012-03-30T15:14:26Z</time>
      </trkpt>
      <trkpt lat="46.495909" lon="6.812148">
        <ele>961.0</ele>
        <time>2012-03-30T15:14:31Z</time>
      </trkpt>
      <trkpt lat="46.495865" lon="6.812219">
        <ele>962.0</ele>
        <time>2012-03-30T15:14:33Z</time>
      </trkpt>
      <trkpt lat="46.495804" lon="6.812321">
        <ele>963.0</ele>
        <time>2012-03-30T15:14:36Z</time>
      </trkpt>
      <trkpt lat="46.495656" lon="6.81261">
        <ele>964.0</ele>
        <time>2012-03-30T15:14:45Z</time>
      </trkpt>
      <trkpt lat="46.495652" lon="6.812714">
        <ele>965.0</ele>
        <time>2012-03-30T15:14:49Z</time>
      </trkpt>
      <trkpt lat="46.495682" lon="6.812802">
        <ele>967.0</ele>
        <time>2012-03-30T15:14:57Z</time>
      </trkpt>
      <trkpt lat="46.495672" lon="6.81291">
        <ele>968.0</ele>
        <time>2012-03-30T15:15:02Z</time>
      </trkpt>
      <trkpt lat="46.495588" lon="6.813324">
        <ele>971.0</ele>
        <time>2012-03-30T15:15:18Z</time>
      </trkpt>
      <trkpt lat="46.495567" lon="6.813426">
        <ele>972.0</ele>
        <time>2012-03-30T15:15:22Z</time>
      </trkpt>
      <trkpt lat="46.495557" lon="6.81353">
        <ele>972.0</ele>
        <time>2012-03-30T15:15:26Z</time>
      </trkpt>
      <trkpt lat="46.495542" lon="6.813637">
        <ele>973.0</ele>
        <time>2012-03-30T15:15:30Z</time>
      </trkpt>
      <trkpt lat="46.495524" lon="6.813746">
        <ele>974.0</ele>
        <time>2012-03-30T15:15:34Z</time>
      </trkpt>
      <trkpt lat="46.495382" lon="6.81413">
        <ele>977.0</ele>
        <time>2012-03-30T15:15:52Z</time>
      </trkpt>
      <trkpt lat="46.495336" lon="6.814221">
        <ele>978.0</ele>
        <time>2012-03-30T15:15:56Z</time>
      </trkpt>
      <trkpt lat="46.495339" lon="6.814334">
        <ele>980.0</ele>
        <time>2012-03-30T15:16:00Z</time>
      </trkpt>
      <trkpt lat="46.495362" lon="6.814446">
        <ele>982.0</ele>
        <time>2012-03-30T15:16:04Z</time>
      </trkpt>
      <trkpt lat="46.495362" lon="6.814548">
        <ele>984.0</ele>
        <time>2012-03-30T15:16:08Z</time>
      </trkpt>
      <trkpt lat="46.495353" lon="6.814652">
        <ele>987.0</ele>
        <time>2012-03-30T15:16:13Z</time>
      </trkpt>
      <trkpt lat="46.495326" lon="6.814745">
        <ele>989.0</ele>
        <time>2012-03-30T15:16:16Z</time>
      </trkpt>
      <trkpt lat="46.495244" lon="6.815039">
        <ele>994.0</ele>
        <time>2012-03-30T15:16:28Z</time>
      </trkpt>
      <trkpt lat="46.495285" lon="6.815241">
        <ele>998.0</ele>
        <time>2012-03-30T15:16:35Z</time>
      </trkpt>
      <trkpt lat="46.495342" lon="6.815291">
        <ele>999.0</ele>
        <time>2012-03-30T15:16:38Z</time>
      </trkpt>
      <trkpt lat="46.495405" lon="6.815316">
        <ele>1001.0</ele>
        <time>2012-03-30T15:16:41Z</time>
      </trkpt>
      <trkpt lat="46.49554" lon="6.815322">
        <ele>1004.0</ele>
        <time>2012-03-30T15:16:47Z</time>
      </trkpt>
      <trkpt lat="46.495623" lon="6.81532">
        <ele>1006.0</ele>
        <time>2012-03-30T15:16:51Z</time>
      </trkpt>
      <trkpt lat="46.495703" lon="6.815317">
        <ele>1008.0</ele>
        <time>2012-03-30T15:16:55Z</time>
      </trkpt>
      <trkpt lat="46.495782" lon="6.815315">
        <ele>1009.0</ele>
        <time>2012-03-30T15:16:59Z</time>
      </trkpt>
      <trkpt lat="46.495862" lon="6.815308">
        <ele>1011.0</ele>
        <time>2012-03-30T15:17:03Z</time>
      </trkpt>
      <trkpt lat="46.495942" lon="6.815303">
        <ele>1012.0</ele>
        <time>2012-03-30T15:17:07Z</time>
      </trkpt>
      <trkpt lat="46.496019" lon="6.815292">
        <ele>1013.0</ele>
        <time>2012-03-30T15:17:10Z</time>
      </trkpt>
      <trkpt lat="46.496087" lon="6.815258">
        <ele>1015.0</ele>
        <time>2012-03-30T15:17:14Z</time>
      </trkpt>
      <trkpt lat="46.496247" lon="6.81506">
        <ele>1018.0</ele>
        <time>2012-03-30T15:17:26Z</time>
      </trkpt>
      <trkpt lat="46.496302" lon="6.814994">
        <ele>1019.0</ele>
        <time>2012-03-30T15:17:30Z</time>
      </trkpt>
      <trkpt lat="46.496365" lon="6.814934">
        <ele>1019.0</ele>
        <time>2012-03-30T15:17:34Z</time>
      </trkpt>
      <trkpt lat="46.496412" lon="6.81487">
        <ele>1020.0</ele>
        <time>2012-03-30T15:17:37Z</time>
      </trkpt>
      <trkpt lat="46.496446" lon="6.814787">
        <ele>1020.0</ele>
        <time>2012-03-30T15:17:40Z</time>
      </trkpt>
      <trkpt lat="46.496496" lon="6.814697">
        <ele>1020.0</ele>
        <time>2012-03-30T15:17:44Z</time>
      </trkpt>
      <trkpt lat="46.496599" lon="6.814534">
        <ele>1021.0</ele>
        <time>2012-03-30T15:17:51Z</time>
      </trkpt>
      <trkpt lat="46.49665" lon="6.814445">
        <ele>1021.0</ele>
        <time>2012-03-30T15:17:55Z</time>
      </trkpt>
      <trkpt lat="46.496706" lon="6.814375">
        <ele>1021.0</ele>
        <time>2012-03-30T15:17:59Z</time>
      </trkpt>
      <trkpt lat="46.496766" lon="6.814326">
        <ele>1021.0</ele>
        <time>2012-03-30T15:18:03Z</time>
      </trkpt>
      <trkpt lat="46.496821" lon="6.814281">
        <ele>1021.0</ele>
        <time>2012-03-30T15:18:07Z</time>
      </trkpt>
      <trkpt lat="46.496882" lon="6.814239">
        <ele>1021.0</ele>
        <time>2012-03-30T15:18:11Z</time>
      </trkpt>
      <trkpt lat="46.49695" lon="6.814204">
        <ele>1021.0</ele>
        <time>2012-03-30T15:18:15Z</time>
      </trkpt>
      <trkpt lat="46.49701" lon="6.814167">
        <ele>1021.0</ele>
        <time>2012-03-30T15:18:19Z</time>
      </trkpt>
      <trkpt lat="46.497072" lon="6.814126">
        <ele>1021.0</ele>
        <time>2012-03-30T15:18:24Z</time>
      </trkpt>
      <trkpt lat="46.497135" lon="6.814098">
        <ele>1021.0</ele>
        <time>2012-03-30T15:18:28Z</time>
      </trkpt>
      <trkpt lat="46.497201" lon="6.814081">
        <ele>1021.0</ele>
        <time>2012-03-30T15:18:32Z</time>
      </trkpt>
      <trkpt lat="46.497346" lon="6.814039">
        <ele>1022.0</ele>
        <time>2012-03-30T15:18:39Z</time>
      </trkpt>
      <trkpt lat="46.497418" lon="6.814014">
        <ele>1023.0</ele>
        <time>2012-03-30T15:18:42Z</time>
      </trkpt>
      <trkpt lat="46.497484" lon="6.813987">
        <ele>1023.0</ele>
        <time>2012-03-30T15:18:45Z</time>
      </trkpt>
      <trkpt lat="46.497555" lon="6.813954">
        <ele>1024.0</ele>
        <time>2012-03-30T15:18:49Z</time>
      </trkpt>
      <trkpt lat="46.497619" lon="6.813918">
        <ele>1025.0</ele>
        <time>2012-03-30T15:18:53Z</time>
      </trkpt>
      <trkpt lat="46.497685" lon="6.813871">
        <ele>1027.0</ele>
        <time>2012-03-30T15:18:58Z</time>
      </trkpt>
      <trkpt lat="46.497753" lon="6.813828">
        <ele>1028.0</ele>
        <time>2012-03-30T15:19:03Z</time>
      </trkpt>
      <trkpt lat="46.497824" lon="6.813785">
        <ele>1030.0</ele>
        <time>2012-03-30T15:19:08Z</time>
      </trkpt>
      <trkpt lat="46.497882" lon="6.813746">
        <ele>1032.0</ele>
        <time>2012-03-30T15:19:12Z</time>
      </trkpt>
      <trkpt lat="46.497971" lon="6.8137">
        <ele>1033.0</ele>
        <time>2012-03-30T15:19:17Z</time>
      </trkpt>
      <trkpt lat="46.498031" lon="6.813669">
        <ele>1035.0</ele>
        <time>2012-03-30T15:19:21Z</time>
      </trkpt>
      <trkpt lat="46.498108" lon="6.813656">
        <ele>1037.0</ele>
        <time>2012-03-30T15:19:26Z</time>
      </trkpt>
      <trkpt lat="46.498171" lon="6.81368">
        <ele>1039.0</ele>
        <time>2012-03-30T15:19:30Z</time>
      </trkpt>
      <trkpt lat="46.498215" lon="6.81394">
        <ele>1044.0</ele>
        <time>2012-03-30T15:19:43Z</time>
      </trkpt>
      <trkpt lat="46.498183" lon="6.814025">
        <ele>1045.0</ele>
        <time>2012-03-30T15:19:47Z</time>
      </trkpt>
      <trkpt lat="46.498146" lon="6.814104">
        <ele>1047.0</ele>
        <time>2012-03-30T15:19:51Z</time>
      </trkpt>
      <trkpt lat="46.497995" lon="6.814318">
        <ele>1051.0</ele>
        <time>2012-03-30T15:20:03Z</time>
      </trkpt>
      <trkpt lat="46.497834" lon="6.814567">
        <ele>1055.0</ele>
        <time>2012-03-30T15:20:15Z</time>
      </trkpt>
      <trkpt lat="46.497783" lon="6.814647">
        <ele>1056.0</ele>
        <time>2012-03-30T15:20:18Z</time>
      </trkpt>
      <trkpt lat="46.497724" lon="6.814733">
        <ele>1057.0</ele>
        <time>2012-03-30T15:20:21Z</time>
      </trkpt>
      <trkpt lat="46.497605" lon="6.814915">
        <ele>1059.0</ele>
        <time>2012-03-30T15:20:27Z</time>
      </trkpt>
      <trkpt lat="46.497541" lon="6.815003">
        <ele>1059.0</ele>
        <time>2012-03-30T15:20:30Z</time>
      </trkpt>
      <trkpt lat="46.497477" lon="6.815092">
        <ele>1060.0</ele>
        <time>2012-03-30T15:20:33Z</time>
      </trkpt>
      <trkpt lat="46.497414" lon="6.81518">
        <ele>1061.0</ele>
        <time>2012-03-30T15:20:36Z</time>
      </trkpt>
      <trkpt lat="46.497278" lon="6.815472">
        <ele>1063.0</ele>
        <time>2012-03-30T15:20:45Z</time>
      </trkpt>
      <trkpt lat="46.497162" lon="6.815663">
        <ele>1065.0</ele>
        <time>2012-03-30T15:20:51Z</time>
      </trkpt>
      <trkpt lat="46.497105" lon="6.815764">
        <ele>1065.0</ele>
        <time>2012-03-30T15:20:54Z</time>
      </trkpt>
      <trkpt lat="46.497046" lon="6.815864">
        <ele>1066.0</ele>
        <time>2012-03-30T15:20:57Z</time>
      </trkpt>
      <trkpt lat="46.496868" lon="6.81616">
        <ele>1067.0</ele>
        <time>2012-03-30T15:21:06Z</time>
      </trkpt>
      <trkpt lat="46.496819" lon="6.816265">
        <ele>1068.0</ele>
        <time>2012-03-30T15:21:09Z</time>
      </trkpt>
      <trkpt lat="46.496679" lon="6.816416">
        <ele>1068.0</ele>
        <time>2012-03-30T15:21:15Z</time>
      </trkpt>
      <trkpt lat="46.49661" lon="6.816489">
        <ele>1069.0</ele>
        <time>2012-03-30T15:21:18Z</time>
      </trkpt>
      <trkpt lat="46.49655" lon="6.816571">
        <ele>1069.0</ele>
        <time>2012-03-30T15:21:21Z</time>
      </trkpt>
      <trkpt lat="46.496493" lon="6.816654">
        <ele>1069.0</ele>
        <time>2012-03-30T15:21:25Z</time>
      </trkpt>
      <trkpt lat="46.496434" lon="6.816701">
        <ele>1069.0</ele>
        <time>2012-03-30T15:21:33Z</time>
      </trkpt>
      <trkpt lat="46.496376" lon="6.81676">
        <ele>1069.0</ele>
        <time>2012-03-30T15:21:38Z</time>
      </trkpt>
      <trkpt lat="46.496285" lon="6.816943">
        <ele>1069.0</ele>
        <time>2012-03-30T15:21:43Z</time>
      </trkpt>
      <trkpt lat="46.496245" lon="6.817049">
        <ele>1070.0</ele>
        <time>2012-03-30T15:21:46Z</time>
      </trkpt>
      <trkpt lat="46.496222" lon="6.817146">
        <ele>1070.0</ele>
        <time>2012-03-30T15:21:49Z</time>
      </trkpt>
      <trkpt lat="46.496206" lon="6.817236">
        <ele>1070.0</ele>
        <time>2012-03-30T15:21:52Z</time>
      </trkpt>
      <trkpt lat="46.496154" lon="6.817467">
        <ele>1070.0</ele>
        <time>2012-03-30T15:21:59Z</time>
      </trkpt>
      <trkpt lat="46.496132" lon="6.817583">
        <ele>1070.0</ele>
        <time>2012-03-30T15:22:02Z</time>
      </trkpt>
      <trkpt lat="46.49612" lon="6.817689">
        <ele>1070.0</ele>
        <time>2012-03-30T15:22:05Z</time>
      </trkpt>
      <trkpt lat="46.496082" lon="6.817904">
        <ele>1071.0</ele>
        <time>2012-03-30T15:22:11Z</time>
      </trkpt>
      <trkpt lat="46.49607" lon="6.818023">
        <ele>1071.0</ele>
        <time>2012-03-30T15:22:15Z</time>
      </trkpt>
      <trkpt lat="46.496052" lon="6.81814">
        <ele>1072.0</ele>
        <time>2012-03-30T15:22:19Z</time>
      </trkpt>
      <trkpt lat="46.496024" lon="6.818256">
        <ele>1072.0</ele>
        <time>2012-03-30T15:22:23Z</time>
      </trkpt>
      <trkpt lat="46.496005" lon="6.818355">
        <ele>1072.0</ele>
        <time>2012-03-30T15:22:26Z</time>
      </trkpt>
      <trkpt lat="46.495982" lon="6.818442">
        <ele>1072.0</ele>
        <time>2012-03-30T15:22:29Z</time>
      </trkpt>
      <trkpt lat="46.495957" lon="6.818528">
        <ele>1072.0</ele>
        <time>2012-03-30T15:22:32Z</time>
      </trkpt>
      <trkpt lat="46.495925" lon="6.818629">
        <ele>1073.0</ele>
        <time>2012-03-30T15:22:36Z</time>
      </trkpt>
      <trkpt lat="46.495849" lon="6.818797">
        <ele>1073.0</ele>
        <time>2012-03-30T15:22:43Z</time>
      </trkpt>
      <trkpt lat="46.495806" lon="6.81889">
        <ele>1073.0</ele>
        <time>2012-03-30T15:22:47Z</time>
      </trkpt>
      <trkpt lat="46.495763" lon="6.81897">
        <ele>1074.0</ele>
        <time>2012-03-30T15:22:51Z</time>
      </trkpt>
      <trkpt lat="46.495733" lon="6.819062">
        <ele>1074.0</ele>
        <time>2012-03-30T15:22:54Z</time>
      </trkpt>
      <trkpt lat="46.4957" lon="6.819166">
        <ele>1074.0</ele>
        <time>2012-03-30T15:22:58Z</time>
      </trkpt>
      <trkpt lat="46.495637" lon="6.819228">
        <ele>1075.0</ele>
        <time>2012-03-30T15:23:02Z</time>
      </trkpt>
      <trkpt lat="46.495583" lon="6.819289">
        <ele>1075.0</ele>
        <time>2012-03-30T15:23:05Z</time>
      </trkpt>
      <trkpt lat="46.495531" lon="6.819384">
        <ele>1076.0</ele>
        <time>2012-03-30T15:23:09Z</time>
      </trkpt>
      <trkpt lat="46.495449" lon="6.819545">
        <ele>1077.0</ele>
        <time>2012-03-30T15:23:15Z</time>
      </trkpt>
      <trkpt lat="46.495383" lon="6.819933">
        <ele>1079.0</ele>
        <time>2012-03-30T15:23:30Z</time>
      </trkpt>
      <trkpt lat="46.495378" lon="6.820039">
        <ele>1079.0</ele>
        <time>2012-03-30T15:23:34Z</time>
      </trkpt>
      <trkpt lat="46.49537" lon="6.820145">
        <ele>1079.0</ele>
        <time>2012-03-30T15:23:38Z</time>
      </trkpt>
      <trkpt lat="46.495365" lon="6.820263">
        <ele>1080.0</ele>
        <time>2012-03-30T15:23:42Z</time>
      </trkpt>
      <trkpt lat="46.495365" lon="6.820369">
        <ele>1080.0</ele>
        <time>2012-03-30T15:23:46Z</time>
      </trkpt>
      <trkpt lat="46.495365" lon="6.820467">
        <ele>1080.0</ele>
        <time>2012-03-30T15:23:50Z</time>
      </trkpt>
      <trkpt lat="46.495395" lon="6.82057">
        <ele>1081.0</ele>
        <time>2012-03-30T15:23:54Z</time>
      </trkpt>
      <trkpt lat="46.495441" lon="6.820668">
        <ele>1081.0</ele>
        <time>2012-03-30T15:23:58Z</time>
      </trkpt>
      <trkpt lat="46.49548" lon="6.820767">
        <ele>1082.0</ele>
        <time>2012-03-30T15:24:02Z</time>
      </trkpt>
      <trkpt lat="46.495538" lon="6.82082">
        <ele>1083.0</ele>
        <time>2012-03-30T15:24:06Z</time>
      </trkpt>
      <trkpt lat="46.495676" lon="6.820864">
        <ele>1084.0</ele>
        <time>2012-03-30T15:24:11Z</time>
      </trkpt>
      <trkpt lat="46.495745" lon="6.82087">
        <ele>1084.0</ele>
        <time>2012-03-30T15:24:13Z</time>
      </trkpt>
      <trkpt lat="46.495934" lon="6.820685">
        <ele>1086.0</ele>
        <time>2012-03-30T15:24:24Z</time>
      </trkpt>
      <trkpt lat="46.495973" lon="6.820578">
        <ele>1086.0</ele>
        <time>2012-03-30T15:24:28Z</time>
      </trkpt>
      <trkpt lat="46.496035" lon="6.820239">
        <ele>1086.0</ele>
        <time>2012-03-30T15:24:37Z</time>
      </trkpt>
      <trkpt lat="46.496094" lon="6.820008">
        <ele>1087.0</ele>
        <time>2012-03-30T15:24:43Z</time>
      </trkpt>
      <trkpt lat="46.496147" lon="6.819919">
        <ele>1087.0</ele>
        <time>2012-03-30T15:24:46Z</time>
      </trkpt>
      <trkpt lat="46.496407" lon="6.819686">
        <ele>1087.0</ele>
        <time>2012-03-30T15:24:58Z</time>
      </trkpt>
      <trkpt lat="46.496551" lon="6.819544">
        <ele>1087.0</ele>
        <time>2012-03-30T15:25:03Z</time>
      </trkpt>
      <trkpt lat="46.496651" lon="6.819351">
        <ele>1088.0</ele>
        <time>2012-03-30T15:25:07Z</time>
      </trkpt>
      <trkpt lat="46.496741" lon="6.819125">
        <ele>1088.0</ele>
        <time>2012-03-30T15:25:11Z</time>
      </trkpt>
      <trkpt lat="46.496814" lon="6.818941">
        <ele>1088.0</ele>
        <time>2012-03-30T15:25:15Z</time>
      </trkpt>
      <trkpt lat="46.497014" lon="6.818972">
        <ele>1090.0</ele>
        <time>2012-03-30T15:26:58Z</time>
      </trkpt>
      <trkpt lat="46.497172" lon="6.818997">
        <ele>1090.0</ele>
        <time>2012-03-30T15:27:02Z</time>
      </trkpt>
      <trkpt lat="46.497435" lon="6.818879">
        <ele>1090.0</ele>
        <time>2012-03-30T15:27:07Z</time>
      </trkpt>
      <trkpt lat="46.497776" lon="6.818657">
        <ele>1090.0</ele>
        <time>2012-03-30T15:27:11Z</time>
      </trkpt>
      <trkpt lat="46.497987" lon="6.818563">
        <ele>1090.0</ele>
        <time>2012-03-30T15:27:15Z</time>
      </trkpt>
      <trkpt lat="46.498201" lon="6.818508">
        <ele>1091.0</ele>
        <time>2012-03-30T15:27:19Z</time>
      </trkpt>
      <trkpt lat="46.498393" lon="6.818458">
        <ele>1091.0</ele>
        <time>2012-03-30T15:27:23Z</time>
      </trkpt>
      <trkpt lat="46.498547" lon="6.818371">
        <ele>1091.0</ele>
        <time>2012-03-30T15:27:28Z</time>
      </trkpt>
      <trkpt lat="46.498836" lon="6.818297">
        <ele>1091.0</ele>
        <time>2012-03-30T15:27:46Z</time>
      </trkpt>
      <trkpt lat="46.498914" lon="6.818207">
        <ele>1092.0</ele>
        <time>2012-03-30T15:27:55Z</time>
      </trkpt>
      <trkpt lat="46.498992" lon="6.818134">
        <ele>1093.0</ele>
        <time>2012-03-30T15:28:01Z</time>
      </trkpt>
      <trkpt lat="46.499074" lon="6.818071">
        <ele>1093.0</ele>
        <time>2012-03-30T15:28:06Z</time>
      </trkpt>
      <trkpt lat="46.499151" lon="6.818011">
        <ele>1094.0</ele>
        <time>2012-03-30T15:28:10Z</time>
      </trkpt>
      <trkpt lat="46.499495" lon="6.81795">
        <ele>1096.0</ele>
        <time>2012-03-30T15:28:23Z</time>
      </trkpt>
      <trkpt lat="46.499638" lon="6.817929">
        <ele>1097.0</ele>
        <time>2012-03-30T15:28:27Z</time>
      </trkpt>
      <trkpt lat="46.499704" lon="6.817905">
        <ele>1097.0</ele>
        <time>2012-03-30T15:28:29Z</time>
      </trkpt>
      <trkpt lat="46.499803" lon="6.817744">
        <ele>1097.0</ele>
        <time>2012-03-30T15:28:35Z</time>
      </trkpt>
      <trkpt lat="46.499868" lon="6.817561">
        <ele>1098.0</ele>
        <time>2012-03-30T15:28:42Z</time>
      </trkpt>
      <trkpt lat="46.499951" lon="6.817387">
        <ele>1099.0</ele>
        <time>2012-03-30T15:28:49Z</time>
      </trkpt>
      <trkpt lat="46.49999" lon="6.817303">
        <ele>1099.0</ele>
        <time>2012-03-30T15:28:52Z</time>
      </trkpt>
      <trkpt lat="46.50012" lon="6.81713">
        <ele>1100.0</ele>
        <time>2012-03-30T15:28:58Z</time>
      </trkpt>
      <trkpt lat="46.500255" lon="6.817011">
        <ele>1100.0</ele>
        <time>2012-03-30T15:29:03Z</time>
      </trkpt>
      <trkpt lat="46.500329" lon="6.816941">
        <ele>1101.0</ele>
        <time>2012-03-30T15:29:06Z</time>
      </trkpt>
      <trkpt lat="46.500397" lon="6.816855">
        <ele>1101.0</ele>
        <time>2012-03-30T15:29:09Z</time>
      </trkpt>
      <trkpt lat="46.500542" lon="6.816735">
        <ele>1101.0</ele>
        <time>2012-03-30T15:29:14Z</time>
      </trkpt>
      <trkpt lat="46.500696" lon="6.81659">
        <ele>1102.0</ele>
        <time>2012-03-30T15:29:18Z</time>
      </trkpt>
      <trkpt lat="46.50084" lon="6.8164">
        <ele>1102.0</ele>
        <time>2012-03-30T15:29:22Z</time>
      </trkpt>
      <trkpt lat="46.500914" lon="6.816197">
        <ele>1103.0</ele>
        <time>2012-03-30T15:29:26Z</time>
      </trkpt>
      <trkpt lat="46.500947" lon="6.816078">
        <ele>1103.0</ele>
        <time>2012-03-30T15:29:30Z</time>
      </trkpt>
      <trkpt lat="46.50126" lon="6.815864">
        <ele>1105.0</ele>
        <time>2012-03-30T15:29:42Z</time>
      </trkpt>
      <trkpt lat="46.501348" lon="6.815861">
        <ele>1106.0</ele>
        <time>2012-03-30T15:29:45Z</time>
      </trkpt>
      <trkpt lat="46.501471" lon="6.81598">
        <ele>1106.0</ele>
        <time>2012-03-30T15:29:50Z</time>
      </trkpt>
      <trkpt lat="46.50156" lon="6.816169">
        <ele>1107.0</ele>
        <time>2012-03-30T15:29:55Z</time>
      </trkpt>
      <trkpt lat="46.501649" lon="6.816338">
        <ele>1107.0</ele>
        <time>2012-03-30T15:29:59Z</time>
      </trkpt>
      <trkpt lat="46.501749" lon="6.816452">
        <ele>1107.0</ele>
        <time>2012-03-30T15:30:03Z</time>
      </trkpt>
      <trkpt lat="46.501898" lon="6.816503">
        <ele>1108.0</ele>
        <time>2012-03-30T15:30:07Z</time>
      </trkpt>
      <trkpt lat="46.502052" lon="6.81655">
        <ele>1108.0</ele>
        <time>2012-03-30T15:30:11Z</time>
      </trkpt>
      <trkpt lat="46.502117" lon="6.816584">
        <ele>1108.0</ele>
        <time>2012-03-30T15:30:13Z</time>
      </trkpt>
      <trkpt lat="46.502201" lon="6.816615">
        <ele>1108.0</ele>
        <time>2012-03-30T15:30:16Z</time>
      </trkpt>
      <trkpt lat="46.502436" lon="6.816666">
        <ele>1109.0</ele>
        <time>2012-03-30T15:30:23Z</time>
      </trkpt>
      <trkpt lat="46.502512" lon="6.816694">
        <ele>1109.0</ele>
        <time>2012-03-30T15:30:25Z</time>
      </trkpt>
      <trkpt lat="46.50265" lon="6.816695">
        <ele>1109.0</ele>
        <time>2012-03-30T15:30:29Z</time>
      </trkpt>
      <trkpt lat="46.502904" lon="6.81672">
        <ele>1109.0</ele>
        <time>2012-03-30T15:30:38Z</time>
      </trkpt>
      <trkpt lat="46.503176" lon="6.816463">
        <ele>1108.0</ele>
        <time>2012-03-30T15:31:19Z</time>
      </trkpt>
      <trkpt lat="46.503144" lon="6.816587">
        <ele>1107.0</ele>
        <time>2012-03-30T15:31:33Z</time>
      </trkpt>
      <trkpt lat="46.503224" lon="6.816665">
        <ele>1107.0</ele>
        <time>2012-03-30T15:31:52Z</time>
      </trkpt>
      <trkpt lat="46.503314" lon="6.8167">
        <ele>1107.0</ele>
        <time>2012-03-30T15:31:57Z</time>
      </trkpt>
      <trkpt lat="46.503378" lon="6.816568">
        <ele>1107.0</ele>
        <time>2012-03-30T15:32:06Z</time>
      </trkpt>
      <trkpt lat="46.503471" lon="6.816521">
        <ele>1107.0</ele>
        <time>2012-03-30T15:32:10Z</time>
      </trkpt>
      <trkpt lat="46.503515" lon="6.816284">
        <ele>1107.0</ele>
        <time>2012-03-30T15:32:16Z</time>
      </trkpt>
      <trkpt lat="46.503624" lon="6.81607">
        <ele>1107.0</ele>
        <time>2012-03-30T15:32:20Z</time>
      </trkpt>
      <trkpt lat="46.503688" lon="6.81597">
        <ele>1107.0</ele>
        <time>2012-03-30T15:32:22Z</time>
      </trkpt>
      <trkpt lat="46.503712" lon="6.8156">
        <ele>1107.0</ele>
        <time>2012-03-30T15:32:28Z</time>
      </trkpt>
      <trkpt lat="46.503609" lon="6.815375">
        <ele>1107.0</ele>
        <time>2012-03-30T15:32:32Z</time>
      </trkpt>
      <trkpt lat="46.503597" lon="6.815279">
        <ele>1107.0</ele>
        <time>2012-03-30T15:32:34Z</time>
      </trkpt>
      <trkpt lat="46.503441" lon="6.815171">
        <ele>1107.0</ele>
        <time>2012-03-30T15:32:39Z</time>
      </trkpt>
      <trkpt lat="46.503265" lon="6.815096">
        <ele>1107.0</ele>
        <time>2012-03-30T15:32:43Z</time>
      </trkpt>
      <trkpt lat="46.503146" lon="6.814992">
        <ele>1107.0</ele>
        <time>2012-03-30T15:32:47Z</time>
      </trkpt>
      <trkpt lat="46.503087" lon="6.814798">
        <ele>1107.0</ele>
        <time>2012-03-30T15:32:51Z</time>
      </trkpt>
      <trkpt lat="46.503021" lon="6.814762">
        <ele>1107.0</ele>
        <time>2012-03-30T15:32:54Z</time>
      </trkpt>
      <trkpt lat="46.502996" lon="6.814552">
        <ele>1107.0</ele>
        <time>2012-03-30T15:32:59Z</time>
      </trkpt>
      <trkpt lat="46.503016" lon="6.81442">
        <ele>1107.0</ele>
        <time>2012-03-30T15:33:02Z</time>
      </trkpt>
      <trkpt lat="46.502912" lon="6.814214">
        <ele>1107.0</ele>
        <time>2012-03-30T15:33:12Z</time>
      </trkpt>
      <trkpt lat="46.502617" lon="6.814185">
        <ele>1107.0</ele>
        <time>2012-03-30T15:33:27Z</time>
      </trkpt>
      <trkpt lat="46.502431" lon="6.814219">
        <ele>1106.0</ele>
        <time>2012-03-30T15:33:32Z</time>
      </trkpt>
      <trkpt lat="46.502566" lon="6.814239">
        <ele>1106.0</ele>
        <time>2012-03-30T15:33:45Z</time>
      </trkpt>
      <trkpt lat="46.502609" lon="6.813951">
        <ele>1107.0</ele>
        <time>2012-03-30T15:33:56Z</time>
      </trkpt>
      <trkpt lat="46.502661" lon="6.813823">
        <ele>1107.0</ele>
        <time>2012-03-30T15:34:00Z</time>
      </trkpt>
      <trkpt lat="46.502621" lon="6.813691">
        <ele>1107.0</ele>
        <time>2012-03-30T15:34:03Z</time>
      </trkpt>
      <trkpt lat="46.502574" lon="6.81362">
        <ele>1107.0</ele>
        <time>2012-03-30T15:34:05Z</time>
      </trkpt>
      <trkpt lat="46.502429" lon="6.813442">
        <ele>1106.0</ele>
        <time>2012-03-30T15:34:11Z</time>
      </trkpt>
      <trkpt lat="46.502198" lon="6.813155">
        <ele>1106.0</ele>
        <time>2012-03-30T15:34:16Z</time>
      </trkpt>
      <trkpt lat="46.502043" lon="6.812991">
        <ele>1106.0</ele>
        <time>2012-03-30T15:34:20Z</time>
      </trkpt>
      <trkpt lat="46.501902" lon="6.812849">
        <ele>1105.0</ele>
        <time>2012-03-30T15:34:24Z</time>
      </trkpt>
      <trkpt lat="46.501764" lon="6.812734">
        <ele>1105.0</ele>
        <time>2012-03-30T15:34:28Z</time>
      </trkpt>
      <trkpt lat="46.501656" lon="6.81262">
        <ele>1105.0</ele>
        <time>2012-03-30T15:34:32Z</time>
      </trkpt>
      <trkpt lat="46.50159" lon="6.812534">
        <ele>1105.0</ele>
        <time>2012-03-30T15:34:35Z</time>
      </trkpt>
      <trkpt lat="46.501553" lon="6.81233">
        <ele>1105.0</ele>
        <time>2012-03-30T15:34:40Z</time>
      </trkpt>
      <trkpt lat="46.501499" lon="6.812274">
        <ele>1105.0</ele>
        <time>2012-03-30T15:34:43Z</time>
      </trkpt>
      <trkpt lat="46.501459" lon="6.812181">
        <ele>1105.0</ele>
        <time>2012-03-30T15:34:46Z</time>
      </trkpt>
      <trkpt lat="46.501554" lon="6.812332">
        <ele>1104.0</ele>
        <time>2012-03-30T15:35:00Z</time>
      </trkpt>
      <trkpt lat="46.501668" lon="6.81247">
        <ele>1104.0</ele>
        <time>2012-03-30T15:35:04Z</time>
      </trkpt>
      <trkpt lat="46.501794" lon="6.812575">
        <ele>1104.0</ele>
        <time>2012-03-30T15:35:08Z</time>
      </trkpt>
      <trkpt lat="46.501884" lon="6.812614">
        <ele>1104.0</ele>
        <time>2012-03-30T15:35:10Z</time>
      </trkpt>
      <trkpt lat="46.502205" lon="6.812655">
        <ele>1103.0</ele>
        <time>2012-03-30T15:35:16Z</time>
      </trkpt>
      <trkpt lat="46.502276" lon="6.812648">
        <ele>1102.0</ele>
        <time>2012-03-30T15:35:17Z</time>
      </trkpt>
      <trkpt lat="46.502633" lon="6.812669">
        <ele>1100.0</ele>
        <time>2012-03-30T15:35:23Z</time>
      </trkpt>
      <trkpt lat="46.502955" lon="6.812744">
        <ele>1100.0</ele>
        <time>2012-03-30T15:35:28Z</time>
      </trkpt>
      <trkpt lat="46.503156" lon="6.812866">
        <ele>1099.0</ele>
        <time>2012-03-30T15:35:31Z</time>
      </trkpt>
      <trkpt lat="46.503468" lon="6.812985">
        <ele>1098.0</ele>
        <time>2012-03-30T15:35:36Z</time>
      </trkpt>
      <trkpt lat="46.503722" lon="6.813067">
        <ele>1099.0</ele>
        <time>2012-03-30T15:35:40Z</time>
      </trkpt>
      <trkpt lat="46.503921" lon="6.813164">
        <ele>1099.0</ele>
        <time>2012-03-30T15:35:44Z</time>
      </trkpt>
      <trkpt lat="46.504002" lon="6.813215">
        <ele>1099.0</ele>
        <time>2012-03-30T15:35:46Z</time>
      </trkpt>
      <trkpt lat="46.504434" lon="6.813513">
        <ele>1096.0</ele>
        <time>2012-03-30T15:35:56Z</time>
      </trkpt>
      <trkpt lat="46.504607" lon="6.813659">
        <ele>1096.0</ele>
        <time>2012-03-30T15:36:00Z</time>
      </trkpt>
      <trkpt lat="46.504715" lon="6.813851">
        <ele>1096.0</ele>
        <time>2012-03-30T15:36:04Z</time>
      </trkpt>
      <trkpt lat="46.504774" lon="6.813916">
        <ele>1096.0</ele>
        <time>2012-03-30T15:36:06Z</time>
      </trkpt>
      <trkpt lat="46.504831" lon="6.813977">
        <ele>1096.0</ele>
        <time>2012-03-30T15:36:08Z</time>
      </trkpt>
      <trkpt lat="46.504994" lon="6.814131">
        <ele>1096.0</ele>
        <time>2012-03-30T15:36:14Z</time>
      </trkpt>
      <trkpt lat="46.505057" lon="6.814231">
        <ele>1095.0</ele>
        <time>2012-03-30T15:36:18Z</time>
      </trkpt>
      <trkpt lat="46.505163" lon="6.814339">
        <ele>1095.0</ele>
        <time>2012-03-30T15:36:26Z</time>
      </trkpt>
      <trkpt lat="46.505234" lon="6.81447">
        <ele>1094.0</ele>
        <time>2012-03-30T15:36:31Z</time>
      </trkpt>
      <trkpt lat="46.505369" lon="6.814604">
        <ele>1094.0</ele>
        <time>2012-03-30T15:36:36Z</time>
      </trkpt>
      <trkpt lat="46.505438" lon="6.814677">
        <ele>1094.0</ele>
        <time>2012-03-30T15:36:39Z</time>
      </trkpt>
      <trkpt lat="46.505539" lon="6.814758">
        <ele>1093.0</ele>
        <time>2012-03-30T15:36:44Z</time>
      </trkpt>
      <trkpt lat="46.505695" lon="6.814954">
        <ele>1093.0</ele>
        <time>2012-03-30T15:36:52Z</time>
      </trkpt>
      <trkpt lat="46.505771" lon="6.815044">
        <ele>1092.0</ele>
        <time>2012-03-30T15:36:55Z</time>
      </trkpt>
      <trkpt lat="46.505866" lon="6.815179">
        <ele>1092.0</ele>
        <time>2012-03-30T15:36:59Z</time>
      </trkpt>
      <trkpt lat="46.505912" lon="6.815246">
        <ele>1092.0</ele>
        <time>2012-03-30T15:37:01Z</time>
      </trkpt>
      <trkpt lat="46.506349" lon="6.815845">
        <ele>1089.0</ele>
        <time>2012-03-30T15:37:16Z</time>
      </trkpt>
      <trkpt lat="46.506535" lon="6.816383">
        <ele>1084.0</ele>
        <time>2012-03-30T15:37:20Z</time>
      </trkpt>
      <trkpt lat="46.506631" lon="6.816598">
        <ele>1083.0</ele>
        <time>2012-03-30T15:37:24Z</time>
      </trkpt>
      <trkpt lat="46.506751" lon="6.816774">
        <ele>1076.0</ele>
        <time>2012-03-30T15:37:28Z</time>
      </trkpt>
      <trkpt lat="46.506809" lon="6.816865">
        <ele>1073.0</ele>
        <time>2012-03-30T15:37:30Z</time>
      </trkpt>
      <trkpt lat="46.506862" lon="6.816949">
        <ele>1069.0</ele>
        <time>2012-03-30T15:37:33Z</time>
      </trkpt>
      <trkpt lat="46.506975" lon="6.817088">
        <ele>1066.0</ele>
        <time>2012-03-30T15:37:40Z</time>
      </trkpt>
      <trkpt lat="46.507036" lon="6.817164">
        <ele>1065.0</ele>
        <time>2012-03-30T15:37:44Z</time>
      </trkpt>
      <trkpt lat="46.507084" lon="6.817239">
        <ele>1062.0</ele>
        <time>2012-03-30T15:37:50Z</time>
      </trkpt>
      <trkpt lat="46.507137" lon="6.817307">
        <ele>1059.0</ele>
        <time>2012-03-30T15:37:57Z</time>
      </trkpt>
      <trkpt lat="46.507179" lon="6.817376">
        <ele>1055.0</ele>
        <time>2012-03-30T15:38:04Z</time>
      </trkpt>
      <trkpt lat="46.507237" lon="6.817437">
        <ele>1053.0</ele>
        <time>2012-03-30T15:38:09Z</time>
      </trkpt>
      <trkpt lat="46.507358" lon="6.817565">
        <ele>1050.0</ele>
        <time>2012-03-30T15:38:15Z</time>
      </trkpt>
      <trkpt lat="46.507514" lon="6.817657">
        <ele>1042.0</ele>
        <time>2012-03-30T15:38:20Z</time>
      </trkpt>
      <trkpt lat="46.507649" lon="6.817741">
        <ele>1033.0</ele>
        <time>2012-03-30T15:38:24Z</time>
      </trkpt>
      <trkpt lat="46.507817" lon="6.817844">
        <ele>1027.0</ele>
        <time>2012-03-30T15:38:28Z</time>
      </trkpt>
      <trkpt lat="46.508018" lon="6.817941">
        <ele>1024.0</ele>
        <time>2012-03-30T15:38:32Z</time>
      </trkpt>
      <trkpt lat="46.508191" lon="6.817998">
        <ele>1021.0</ele>
        <time>2012-03-30T15:38:36Z</time>
      </trkpt>
      <trkpt lat="46.508586" lon="6.818214">
        <ele>1017.0</ele>
        <time>2012-03-30T15:38:44Z</time>
      </trkpt>
      <trkpt lat="46.508753" lon="6.818145">
        <ele>1016.0</ele>
        <time>2012-03-30T15:38:48Z</time>
      </trkpt>
      <trkpt lat="46.508814" lon="6.818117">
        <ele>1016.0</ele>
        <time>2012-03-30T15:38:50Z</time>
      </trkpt>
      <trkpt lat="46.508885" lon="6.818079">
        <ele>1016.0</ele>
        <time>2012-03-30T15:38:53Z</time>
      </trkpt>
      <trkpt lat="46.509089" lon="6.817974">
        <ele>1016.0</ele>
        <time>2012-03-30T15:39:02Z</time>
      </trkpt>
      <trkpt lat="46.509157" lon="6.817936">
        <ele>1016.0</ele>
        <time>2012-03-30T15:39:05Z</time>
      </trkpt>
      <trkpt lat="46.509353" lon="6.817834">
        <ele>1016.0</ele>
        <time>2012-03-30T15:39:14Z</time>
      </trkpt>
      <trkpt lat="46.509485" lon="6.817779">
        <ele>1016.0</ele>
        <time>2012-03-30T15:39:20Z</time>
      </trkpt>
      <trkpt lat="46.509559" lon="6.817802">
        <ele>1016.0</ele>
        <time>2012-03-30T15:39:23Z</time>
      </trkpt>
      <trkpt lat="46.509632" lon="6.817813">
        <ele>1016.0</ele>
        <time>2012-03-30T15:39:26Z</time>
      </trkpt>
      <trkpt lat="46.509774" lon="6.817782">
        <ele>1016.0</ele>
        <time>2012-03-30T15:39:32Z</time>
      </trkpt>
      <trkpt lat="46.50985" lon="6.81778">
        <ele>1016.0</ele>
        <time>2012-03-30T15:39:35Z</time>
      </trkpt>
      <trkpt lat="46.509918" lon="6.817775">
        <ele>1016.0</ele>
        <time>2012-03-30T15:39:38Z</time>
      </trkpt>
      <trkpt lat="46.510054" lon="6.817784">
        <ele>1016.0</ele>
        <time>2012-03-30T15:39:44Z</time>
      </trkpt>
      <trkpt lat="46.510512" lon="6.817712">
        <ele>1015.0</ele>
        <time>2012-03-30T15:40:08Z</time>
      </trkpt>
      <trkpt lat="46.510681" lon="6.817592">
        <ele>1015.0</ele>
        <time>2012-03-30T15:40:20Z</time>
      </trkpt>
      <trkpt lat="46.510774" lon="6.817544">
        <ele>1015.0</ele>
        <time>2012-03-30T15:40:26Z</time>
      </trkpt>
      <trkpt lat="46.510862" lon="6.817493">
        <ele>1015.0</ele>
        <time>2012-03-30T15:40:33Z</time>
      </trkpt>
      <trkpt lat="46.510948" lon="6.817443">
        <ele>1015.0</ele>
        <time>2012-03-30T15:40:41Z</time>
      </trkpt>
      <trkpt lat="46.511025" lon="6.817364">
        <ele>1015.0</ele>
        <time>2012-03-30T15:40:47Z</time>
      </trkpt>
      <trkpt lat="46.511125" lon="6.817292">
        <ele>1015.0</ele>
        <time>2012-03-30T15:40:52Z</time>
      </trkpt>
      <trkpt lat="46.511213" lon="6.817256">
        <ele>1015.0</ele>
        <time>2012-03-30T15:40:56Z</time>
      </trkpt>
      <trkpt lat="46.511561" lon="6.816997">
        <ele>1016.0</ele>
        <time>2012-03-30T15:41:18Z</time>
      </trkpt>
      <trkpt lat="46.511658" lon="6.816932">
        <ele>1016.0</ele>
        <time>2012-03-30T15:41:24Z</time>
      </trkpt>
      <trkpt lat="46.511859" lon="6.816949">
        <ele>1016.0</ele>
        <time>2012-03-30T15:41:48Z</time>
      </trkpt>
      <trkpt lat="46.511973" lon="6.816942">
        <ele>1016.0</ele>
        <time>2012-03-30T15:41:51Z</time>
      </trkpt>
      <trkpt lat="46.512076" lon="6.816931">
        <ele>1016.0</ele>
        <time>2012-03-30T15:41:54Z</time>
      </trkpt>
      <trkpt lat="46.512268" lon="6.816884">
        <ele>1016.0</ele>
        <time>2012-03-30T15:42:00Z</time>
      </trkpt>
      <trkpt lat="46.51237" lon="6.816856">
        <ele>1016.0</ele>
        <time>2012-03-30T15:42:03Z</time>
      </trkpt>
      <trkpt lat="46.512557" lon="6.816836">
        <ele>1016.0</ele>
        <time>2012-03-30T15:42:07Z</time>
      </trkpt>
      <trkpt lat="46.512856" lon="6.816718">
        <ele>1018.0</ele>
        <time>2012-03-30T15:42:12Z</time>
      </trkpt>
      <trkpt lat="46.512951" lon="6.816653">
        <ele>1018.0</ele>
        <time>2012-03-30T15:42:14Z</time>
      </trkpt>
      <trkpt lat="46.513254" lon="6.816787">
        <ele>1017.0</ele>
        <time>2012-03-30T15:42:50Z</time>
      </trkpt>
      <trkpt lat="46.513327" lon="6.816975">
        <ele>1017.0</ele>
        <time>2012-03-30T15:42:54Z</time>
      </trkpt>
      <trkpt lat="46.513443" lon="6.81707">
        <ele>1016.0</ele>
        <time>2012-03-30T15:42:58Z</time>
      </trkpt>
      <trkpt lat="46.513542" lon="6.81715">
        <ele>1016.0</ele>
        <time>2012-03-30T15:43:15Z</time>
      </trkpt>
      <trkpt lat="46.513604" lon="6.817195">
        <ele>1016.0</ele>
        <time>2012-03-30T15:43:17Z</time>
      </trkpt>
      <trkpt lat="46.51374" lon="6.817245">
        <ele>1016.0</ele>
        <time>2012-03-30T15:43:25Z</time>
      </trkpt>
      <trkpt lat="46.513917" lon="6.817309">
        <ele>1015.0</ele>
        <time>2012-03-30T15:43:30Z</time>
      </trkpt>
      <trkpt lat="46.514231" lon="6.817361">
        <ele>1014.0</ele>
        <time>2012-03-30T15:43:39Z</time>
      </trkpt>
      <trkpt lat="46.514298" lon="6.817378">
        <ele>1014.0</ele>
        <time>2012-03-30T15:43:45Z</time>
      </trkpt>
      <trkpt lat="46.514402" lon="6.817445">
        <ele>1015.0</ele>
        <time>2012-03-30T15:43:55Z</time>
      </trkpt>
      <trkpt lat="46.514494" lon="6.817504">
        <ele>1015.0</ele>
        <time>2012-03-30T15:44:02Z</time>
      </trkpt>
      <trkpt lat="46.514633" lon="6.817597">
        <ele>1015.0</ele>
        <time>2012-03-30T15:44:12Z</time>
      </trkpt>
      <trkpt lat="46.514743" lon="6.817655">
        <ele>1015.0</ele>
        <time>2012-03-30T15:44:18Z</time>
      </trkpt>
      <trkpt lat="46.514845" lon="6.817693">
        <ele>1015.0</ele>
        <time>2012-03-30T15:44:23Z</time>
      </trkpt>
      <trkpt lat="46.514929" lon="6.817735">
        <ele>1015.0</ele>
        <time>2012-03-30T15:44:28Z</time>
      </trkpt>
      <trkpt lat="46.515031" lon="6.817771">
        <ele>1015.0</ele>
        <time>2012-03-30T15:44:35Z</time>
      </trkpt>
      <trkpt lat="46.515267" lon="6.817842">
        <ele>1015.0</ele>
        <time>2012-03-30T15:44:52Z</time>
      </trkpt>
      <trkpt lat="46.515548" lon="6.817838">
        <ele>1017.0</ele>
        <time>2012-03-30T15:45:14Z</time>
      </trkpt>
      <trkpt lat="46.515746" lon="6.817702">
        <ele>1018.0</ele>
        <time>2012-03-30T15:45:30Z</time>
      </trkpt>
      <trkpt lat="46.515807" lon="6.817643">
        <ele>1018.0</ele>
        <time>2012-03-30T15:45:34Z</time>
      </trkpt>
      <trkpt lat="46.515908" lon="6.817489">
        <ele>1018.0</ele>
        <time>2012-03-30T15:45:39Z</time>
      </trkpt>
      <trkpt lat="46.516039" lon="6.81722">
        <ele>1021.0</ele>
        <time>2012-03-30T15:45:43Z</time>
      </trkpt>
      <trkpt lat="46.516178" lon="6.817006">
        <ele>1021.0</ele>
        <time>2012-03-30T15:45:46Z</time>
      </trkpt>
      <trkpt lat="46.516314" lon="6.816811">
        <ele>1022.0</ele>
        <time>2012-03-30T15:45:50Z</time>
      </trkpt>
      <trkpt lat="46.516428" lon="6.816638">
        <ele>1023.0</ele>
        <time>2012-03-30T15:45:54Z</time>
      </trkpt>
      <trkpt lat="46.516547" lon="6.816532">
        <ele>1023.0</ele>
        <time>2012-03-30T15:45:58Z</time>
      </trkpt>
      <trkpt lat="46.516607" lon="6.816474">
        <ele>1023.0</ele>
        <time>2012-03-30T15:46:01Z</time>
      </trkpt>
      <trkpt lat="46.516742" lon="6.816363">
        <ele>1023.0</ele>
        <time>2012-03-30T15:46:11Z</time>
      </trkpt>
      <trkpt lat="46.516821" lon="6.816369">
        <ele>1023.0</ele>
        <time>2012-03-30T15:46:14Z</time>
      </trkpt>
      <trkpt lat="46.51696" lon="6.816398">
        <ele>1023.0</ele>
        <time>2012-03-30T15:46:18Z</time>
      </trkpt>
      <trkpt lat="46.517107" lon="6.81645">
        <ele>1024.0</ele>
        <time>2012-03-30T15:46:22Z</time>
      </trkpt>
      <trkpt lat="46.517262" lon="6.816532">
        <ele>1024.0</ele>
        <time>2012-03-30T15:46:27Z</time>
      </trkpt>
      <trkpt lat="46.517409" lon="6.816593">
        <ele>1022.0</ele>
        <time>2012-03-30T15:46:31Z</time>
      </trkpt>
      <trkpt lat="46.517546" lon="6.81669">
        <ele>1021.0</ele>
        <time>2012-03-30T15:46:35Z</time>
      </trkpt>
      <trkpt lat="46.517632" lon="6.81687">
        <ele>1020.0</ele>
        <time>2012-03-30T15:46:39Z</time>
      </trkpt>
      <trkpt lat="46.517705" lon="6.817161">
        <ele>1020.0</ele>
        <time>2012-03-30T15:46:45Z</time>
      </trkpt>
      <trkpt lat="46.517766" lon="6.817248">
        <ele>1018.0</ele>
        <time>2012-03-30T15:47:03Z</time>
      </trkpt>
      <trkpt lat="46.517661" lon="6.817596">
        <ele>1017.0</ele>
        <time>2012-03-30T15:47:14Z</time>
      </trkpt>
      <trkpt lat="46.51763" lon="6.817837">
        <ele>1017.0</ele>
        <time>2012-03-30T15:47:18Z</time>
      </trkpt>
      <trkpt lat="46.517593" lon="6.818104">
        <ele>1015.0</ele>
        <time>2012-03-30T15:47:22Z</time>
      </trkpt>
      <trkpt lat="46.517484" lon="6.818613">
        <ele>1010.0</ele>
        <time>2012-03-30T15:47:28Z</time>
      </trkpt>
      <trkpt lat="46.51744" lon="6.818792">
        <ele>1008.0</ele>
        <time>2012-03-30T15:47:30Z</time>
      </trkpt>
      <trkpt lat="46.517402" lon="6.818963">
        <ele>1006.0</ele>
        <time>2012-03-30T15:47:32Z</time>
      </trkpt>
      <trkpt lat="46.517323" lon="6.819417">
        <ele>1004.0</ele>
        <time>2012-03-30T15:47:38Z</time>
      </trkpt>
      <trkpt lat="46.517327" lon="6.819561">
        <ele>1004.0</ele>
        <time>2012-03-30T15:47:40Z</time>
      </trkpt>
      <trkpt lat="46.517422" lon="6.81967">
        <ele>1004.0</ele>
        <time>2012-03-30T15:47:58Z</time>
      </trkpt>
      <trkpt lat="46.517571" lon="6.819722">
        <ele>1003.0</ele>
        <time>2012-03-30T15:48:02Z</time>
      </trkpt>
      <trkpt lat="46.517712" lon="6.819793">
        <ele>1003.0</ele>
        <time>2012-03-30T15:48:07Z</time>
      </trkpt>
      <trkpt lat="46.517984" lon="6.819927">
        <ele>1003.0</ele>
        <time>2012-03-30T15:48:19Z</time>
      </trkpt>
      <trkpt lat="46.518058" lon="6.819981">
        <ele>1002.0</ele>
        <time>2012-03-30T15:48:22Z</time>
      </trkpt>
      <trkpt lat="46.518209" lon="6.82013">
        <ele>1001.0</ele>
        <time>2012-03-30T15:48:27Z</time>
      </trkpt>
      <trkpt lat="46.518334" lon="6.820269">
        <ele>999.0</ele>
        <time>2012-03-30T15:48:31Z</time>
      </trkpt>
      <trkpt lat="46.518464" lon="6.820362">
        <ele>999.0</ele>
        <time>2012-03-30T15:48:35Z</time>
      </trkpt>
      <trkpt lat="46.518539" lon="6.820384">
        <ele>999.0</ele>
        <time>2012-03-30T15:48:37Z</time>
      </trkpt>
      <trkpt lat="46.518687" lon="6.820396">
        <ele>999.0</ele>
        <time>2012-03-30T15:48:41Z</time>
      </trkpt>
      <trkpt lat="46.518949" lon="6.820284">
        <ele>997.0</ele>
        <time>2012-03-30T15:48:47Z</time>
      </trkpt>
      <trkpt lat="46.519129" lon="6.820107">
        <ele>997.0</ele>
        <time>2012-03-30T15:48:51Z</time>
      </trkpt>
      <trkpt lat="46.519268" lon="6.819819">
        <ele>997.0</ele>
        <time>2012-03-30T15:48:55Z</time>
      </trkpt>
      <trkpt lat="46.51935" lon="6.819687">
        <ele>997.0</ele>
        <time>2012-03-30T15:48:57Z</time>
      </trkpt>
      <trkpt lat="46.519652" lon="6.819414">
        <ele>994.0</ele>
        <time>2012-03-30T15:49:03Z</time>
      </trkpt>
      <trkpt lat="46.519861" lon="6.819393">
        <ele>992.0</ele>
        <time>2012-03-30T15:49:07Z</time>
      </trkpt>
      <trkpt lat="46.52003" lon="6.819338">
        <ele>992.0</ele>
        <time>2012-03-30T15:49:12Z</time>
      </trkpt>
      <trkpt lat="46.520092" lon="6.819279">
        <ele>992.0</ele>
        <time>2012-03-30T15:49:13Z</time>
      </trkpt>
      <trkpt lat="46.520742" lon="6.818929">
        <ele>988.0</ele>
        <time>2012-03-30T15:49:20Z</time>
      </trkpt>
      <trkpt lat="46.520899" lon="6.818868">
        <ele>984.0</ele>
        <time>2012-03-30T15:49:23Z</time>
      </trkpt>
      <trkpt lat="46.521092" lon="6.819007">
        <ele>979.0</ele>
        <time>2012-03-30T15:49:27Z</time>
      </trkpt>
      <trkpt lat="46.521325" lon="6.819338">
        <ele>972.0</ele>
        <time>2012-03-30T15:49:51Z</time>
      </trkpt>
      <trkpt lat="46.521532" lon="6.819618">
        <ele>968.0</ele>
        <time>2012-03-30T15:49:55Z</time>
      </trkpt>
      <trkpt lat="46.521685" lon="6.819763">
        <ele>966.0</ele>
        <time>2012-03-30T15:49:58Z</time>
      </trkpt>
      <trkpt lat="46.521814" lon="6.819897">
        <ele>967.0</ele>
        <time>2012-03-30T15:50:02Z</time>
      </trkpt>
      <trkpt lat="46.521829" lon="6.820153">
        <ele>968.0</ele>
        <time>2012-03-30T15:50:06Z</time>
      </trkpt>
      <trkpt lat="46.521707" lon="6.820645">
        <ele>964.0</ele>
        <time>2012-03-30T15:50:11Z</time>
      </trkpt>
      <trkpt lat="46.521725" lon="6.820858">
        <ele>963.0</ele>
        <time>2012-03-30T15:50:13Z</time>
      </trkpt>
      <trkpt lat="46.521854" lon="6.821399">
        <ele>961.0</ele>
        <time>2012-03-30T15:50:19Z</time>
      </trkpt>
      <trkpt lat="46.522065" lon="6.821928">
        <ele>953.0</ele>
        <time>2012-03-30T15:50:23Z</time>
      </trkpt>
      <trkpt lat="46.522128" lon="6.822088">
        <ele>951.0</ele>
        <time>2012-03-30T15:50:25Z</time>
      </trkpt>
      <trkpt lat="46.522572" lon="6.822528">
        <ele>929.0</ele>
        <time>2012-03-30T15:50:30Z</time>
      </trkpt>
      <trkpt lat="46.522911" lon="6.82268">
        <ele>906.0</ele>
        <time>2012-03-30T15:50:34Z</time>
      </trkpt>
      <trkpt lat="46.523324" lon="6.822969">
        <ele>895.0</ele>
        <time>2012-03-30T15:50:38Z</time>
      </trkpt>
      <trkpt lat="46.523753" lon="6.82323">
        <ele>887.0</ele>
        <time>2012-03-30T15:50:42Z</time>
      </trkpt>
      <trkpt lat="46.524065" lon="6.823437">
        <ele>883.0</ele>
        <time>2012-03-30T15:50:46Z</time>
      </trkpt>
      <trkpt lat="46.524376" lon="6.823639">
        <ele>879.0</ele>
        <time>2012-03-30T15:50:50Z</time>
      </trkpt>
      <trkpt lat="46.524685" lon="6.823807">
        <ele>875.0</ele>
        <time>2012-03-30T15:50:54Z</time>
      </trkpt>
      <trkpt lat="46.524882" lon="6.823869">
        <ele>871.0</ele>
        <time>2012-03-30T15:50:58Z</time>
      </trkpt>
      <trkpt lat="46.524957" lon="6.823912">
        <ele>871.0</ele>
        <time>2012-03-30T15:51:01Z</time>
      </trkpt>
      <trkpt lat="46.525269" lon="6.824563">
        <ele>868.0</ele>
        <time>2012-03-30T15:51:35Z</time>
      </trkpt>
      <trkpt lat="46.525271" lon="6.825013">
        <ele>867.0</ele>
        <time>2012-03-30T15:51:39Z</time>
      </trkpt>
      <trkpt lat="46.525211" lon="6.825427">
        <ele>865.0</ele>
        <time>2012-03-30T15:51:43Z</time>
      </trkpt>
      <trkpt lat="46.52509" lon="6.825804">
        <ele>864.0</ele>
        <time>2012-03-30T15:51:47Z</time>
      </trkpt>
      <trkpt lat="46.525031" lon="6.826199">
        <ele>862.0</ele>
        <time>2012-03-30T15:51:51Z</time>
      </trkpt>
      <trkpt lat="46.525087" lon="6.826567">
        <ele>862.0</ele>
        <time>2012-03-30T15:51:55Z</time>
      </trkpt>
      <trkpt lat="46.525153" lon="6.826825">
        <ele>861.0</ele>
        <time>2012-03-30T15:51:59Z</time>
      </trkpt>
      <trkpt lat="46.525179" lon="6.827098">
        <ele>861.0</ele>
        <time>2012-03-30T15:52:03Z</time>
      </trkpt>
      <trkpt lat="46.525342" lon="6.827145">
        <ele>859.0</ele>
        <time>2012-03-30T15:52:07Z</time>
      </trkpt>
      <trkpt lat="46.525671" lon="6.827084">
        <ele>855.0</ele>
        <time>2012-03-30T15:52:11Z</time>
      </trkpt>
      <trkpt lat="46.526005" lon="6.82702">
        <ele>852.0</ele>
        <time>2012-03-30T15:52:15Z</time>
      </trkpt>
      <trkpt lat="46.526333" lon="6.826962">
        <ele>850.0</ele>
        <time>2012-03-30T15:52:19Z</time>
      </trkpt>
      <trkpt lat="46.526647" lon="6.826922">
        <ele>847.0</ele>
        <time>2012-03-30T15:52:23Z</time>
      </trkpt>
      <trkpt lat="46.526923" lon="6.826891">
        <ele>843.0</ele>
        <time>2012-03-30T15:52:27Z</time>
      </trkpt>
      <trkpt lat="46.527097" lon="6.826864">
        <ele>840.0</ele>
        <time>2012-03-30T15:52:30Z</time>
      </trkpt>
      <trkpt lat="46.527269" lon="6.826784">
        <ele>838.0</ele>
        <time>2012-03-30T15:52:34Z</time>
      </trkpt>
      <trkpt lat="46.527493" lon="6.826811">
        <ele>836.0</ele>
        <time>2012-03-30T15:52:39Z</time>
      </trkpt>
      <trkpt lat="46.527746" lon="6.827082">
        <ele>834.0</ele>
        <time>2012-03-30T15:52:43Z</time>
      </trkpt>
      <trkpt lat="46.527997" lon="6.827658">
        <ele>832.0</ele>
        <time>2012-03-30T15:52:47Z</time>
      </trkpt>
      <trkpt lat="46.528289" lon="6.828122">
        <ele>831.0</ele>
        <time>2012-03-30T15:52:51Z</time>
      </trkpt>
      <trkpt lat="46.528522" lon="6.828336">
        <ele>829.0</ele>
        <time>2012-03-30T15:52:54Z</time>
      </trkpt>
      <trkpt lat="46.528619" lon="6.828372">
        <ele>828.0</ele>
        <time>2012-03-30T15:52:55Z</time>
      </trkpt>
      <trkpt lat="46.529053" lon="6.828374">
        <ele>826.0</ele>
        <time>2012-03-30T15:52:59Z</time>
      </trkpt>
      <trkpt lat="46.529335" lon="6.828434">
        <ele>820.0</ele>
        <time>2012-03-30T15:53:03Z</time>
      </trkpt>
      <trkpt lat="46.529348" lon="6.828806">
        <ele>812.0</ele>
        <time>2012-03-30T15:53:07Z</time>
      </trkpt>
      <trkpt lat="46.52932" lon="6.82911">
        <ele>808.0</ele>
        <time>2012-03-30T15:53:10Z</time>
      </trkpt>
      <trkpt lat="46.529294" lon="6.829437">
        <ele>804.0</ele>
        <time>2012-03-30T15:53:14Z</time>
      </trkpt>
      <trkpt lat="46.529295" lon="6.82957">
        <ele>802.0</ele>
        <time>2012-03-30T15:53:16Z</time>
      </trkpt>
      <trkpt lat="46.529346" lon="6.829646">
        <ele>800.0</ele>
        <time>2012-03-30T15:53:32Z</time>
      </trkpt>
      <trkpt lat="46.529314" lon="6.829018">
        <ele>799.0</ele>
        <time>2012-03-30T15:53:38Z</time>
      </trkpt>
      <trkpt lat="46.52933" lon="6.828522">
        <ele>797.0</ele>
        <time>2012-03-30T15:53:43Z</time>
      </trkpt>
      <trkpt lat="46.529305" lon="6.828253">
        <ele>795.0</ele>
        <time>2012-03-30T15:53:47Z</time>
      </trkpt>
      <trkpt lat="46.52931" lon="6.828139">
        <ele>795.0</ele>
        <time>2012-03-30T15:53:50Z</time>
      </trkpt>
      <trkpt lat="46.529559" lon="6.828167">
        <ele>792.0</ele>
        <time>2012-03-30T15:53:55Z</time>
      </trkpt>
      <trkpt lat="46.52974" lon="6.828265">
        <ele>789.0</ele>
        <time>2012-03-30T15:53:58Z</time>
      </trkpt>
      <trkpt lat="46.53006" lon="6.82848">
        <ele>786.0</ele>
        <time>2012-03-30T15:54:03Z</time>
      </trkpt>
      <trkpt lat="46.530321" lon="6.828704">
        <ele>785.0</ele>
        <time>2012-03-30T15:54:07Z</time>
      </trkpt>
      <trkpt lat="46.530497" lon="6.828923">
        <ele>784.0</ele>
        <time>2012-03-30T15:54:11Z</time>
      </trkpt>
      <trkpt lat="46.530666" lon="6.829154">
        <ele>783.0</ele>
        <time>2012-03-30T15:54:15Z</time>
      </trkpt>
      <trkpt lat="46.530816" lon="6.829279">
        <ele>782.0</ele>
        <time>2012-03-30T15:54:19Z</time>
      </trkpt>
      <trkpt lat="46.530978" lon="6.829184">
        <ele>780.0</ele>
        <time>2012-03-30T15:54:23Z</time>
      </trkpt>
      <trkpt lat="46.531118" lon="6.829053">
        <ele>776.0</ele>
        <time>2012-03-30T15:54:27Z</time>
      </trkpt>
      <trkpt lat="46.531285" lon="6.828828">
        <ele>773.0</ele>
        <time>2012-03-30T15:54:31Z</time>
      </trkpt>
      <trkpt lat="46.531499" lon="6.828525">
        <ele>771.0</ele>
        <time>2012-03-30T15:54:35Z</time>
      </trkpt>
      <trkpt lat="46.531727" lon="6.828234">
        <ele>770.0</ele>
        <time>2012-03-30T15:54:39Z</time>
      </trkpt>
      <trkpt lat="46.53187" lon="6.827947">
        <ele>767.0</ele>
        <time>2012-03-30T15:54:43Z</time>
      </trkpt>
      <trkpt lat="46.531996" lon="6.82766">
        <ele>762.0</ele>
        <time>2012-03-30T15:54:47Z</time>
      </trkpt>
      <trkpt lat="46.532105" lon="6.827378">
        <ele>756.0</ele>
        <time>2012-03-30T15:54:51Z</time>
      </trkpt>
      <trkpt lat="46.532225" lon="6.827163">
        <ele>751.0</ele>
        <time>2012-03-30T15:54:55Z</time>
      </trkpt>
      <trkpt lat="46.532383" lon="6.827179">
        <ele>748.0</ele>
        <time>2012-03-30T15:55:00Z</time>
      </trkpt>
      <trkpt lat="46.532483" lon="6.827437">
        <ele>747.0</ele>
        <time>2012-03-30T15:55:03Z</time>
      </trkpt>
      <trkpt lat="46.532527" lon="6.827538">
        <ele>747.0</ele>
        <time>2012-03-30T15:55:05Z</time>
      </trkpt>
      <trkpt lat="46.532642" lon="6.827833">
        <ele>744.0</ele>
        <time>2012-03-30T15:55:11Z</time>
      </trkpt>
      <trkpt lat="46.532715" lon="6.828037">
        <ele>742.0</ele>
        <time>2012-03-30T15:55:15Z</time>
      </trkpt>
      <trkpt lat="46.532809" lon="6.828221">
        <ele>739.0</ele>
        <time>2012-03-30T15:55:19Z</time>
      </trkpt>
      <trkpt lat="46.532908" lon="6.828399">
        <ele>738.0</ele>
        <time>2012-03-30T15:55:23Z</time>
      </trkpt>
      <trkpt lat="46.532955" lon="6.828501">
        <ele>737.0</ele>
        <time>2012-03-30T15:55:25Z</time>
      </trkpt>
      <trkpt lat="46.533122" lon="6.828868">
        <ele>734.0</ele>
        <time>2012-03-30T15:55:31Z</time>
      </trkpt>
      <trkpt lat="46.533247" lon="6.829111">
        <ele>733.0</ele>
        <time>2012-03-30T15:55:35Z</time>
      </trkpt>
      <trkpt lat="46.533371" lon="6.829346">
        <ele>732.0</ele>
        <time>2012-03-30T15:55:39Z</time>
      </trkpt>
      <trkpt lat="46.533499" lon="6.829585">
        <ele>731.0</ele>
        <time>2012-03-30T15:55:43Z</time>
      </trkpt>
      <trkpt lat="46.533627" lon="6.829841">
        <ele>730.0</ele>
        <time>2012-03-30T15:55:47Z</time>
      </trkpt>
      <trkpt lat="46.533744" lon="6.830111">
        <ele>729.0</ele>
        <time>2012-03-30T15:55:51Z</time>
      </trkpt>
      <trkpt lat="46.53386" lon="6.830381">
        <ele>729.0</ele>
        <time>2012-03-30T15:55:55Z</time>
      </trkpt>
      <trkpt lat="46.533962" lon="6.830643">
        <ele>729.0</ele>
        <time>2012-03-30T15:55:59Z</time>
      </trkpt>
      <trkpt lat="46.534066" lon="6.830907">
        <ele>728.0</ele>
        <time>2012-03-30T15:56:03Z</time>
      </trkpt>
      <trkpt lat="46.53417" lon="6.831159">
        <ele>728.0</ele>
        <time>2012-03-30T15:56:07Z</time>
      </trkpt>
      <trkpt lat="46.534274" lon="6.831406">
        <ele>728.0</ele>
        <time>2012-03-30T15:56:11Z</time>
      </trkpt>
      <trkpt lat="46.534361" lon="6.831656">
        <ele>728.0</ele>
        <time>2012-03-30T15:56:15Z</time>
      </trkpt>
      <trkpt lat="46.53441" lon="6.83194">
        <ele>727.0</ele>
        <time>2012-03-30T15:56:19Z</time>
      </trkpt>
      <trkpt lat="46.534397" lon="6.832158">
        <ele>727.0</ele>
        <time>2012-03-30T15:56:23Z</time>
      </trkpt>
      <trkpt lat="46.534394" lon="6.832295">
        <ele>727.0</ele>
        <time>2012-03-30T15:56:26Z</time>
      </trkpt>
      <trkpt lat="46.534473" lon="6.832481">
        <ele>727.0</ele>
        <time>2012-03-30T15:56:30Z</time>
      </trkpt>
      <trkpt lat="46.534701" lon="6.832764">
        <ele>727.0</ele>
        <time>2012-03-30T15:56:35Z</time>
      </trkpt>
      <trkpt lat="46.534883" lon="6.833069">
        <ele>726.0</ele>
        <time>2012-03-30T15:56:39Z</time>
      </trkpt>
      <trkpt lat="46.535044" lon="6.833401">
        <ele>726.0</ele>
        <time>2012-03-30T15:56:43Z</time>
      </trkpt>
      <trkpt lat="46.535198" lon="6.833732">
        <ele>725.0</ele>
        <time>2012-03-30T15:56:47Z</time>
      </trkpt>
      <trkpt lat="46.53535" lon="6.834058">
        <ele>725.0</ele>
        <time>2012-03-30T15:56:51Z</time>
      </trkpt>
      <trkpt lat="46.53551" lon="6.83437">
        <ele>725.0</ele>
        <time>2012-03-30T15:56:55Z</time>
      </trkpt>
      <trkpt lat="46.535653" lon="6.834651">
        <ele>725.0</ele>
        <time>2012-03-30T15:56:59Z</time>
      </trkpt>
      <trkpt lat="46.535786" lon="6.834867">
        <ele>724.0</ele>
        <time>2012-03-30T15:57:03Z</time>
      </trkpt>
      <trkpt lat="46.535887" lon="6.835028">
        <ele>725.0</ele>
        <time>2012-03-30T15:57:07Z</time>
      </trkpt>
      <trkpt lat="46.535977" lon="6.835167">
        <ele>724.0</ele>
        <time>2012-03-30T15:57:11Z</time>
      </trkpt>
      <trkpt lat="46.536074" lon="6.835298">
        <ele>724.0</ele>
        <time>2012-03-30T15:57:15Z</time>
      </trkpt>
      <trkpt lat="46.536168" lon="6.835443">
        <ele>724.0</ele>
        <time>2012-03-30T15:57:19Z</time>
      </trkpt>
      <trkpt lat="46.536272" lon="6.83557">
        <ele>725.0</ele>
        <time>2012-03-30T15:57:23Z</time>
      </trkpt>
      <trkpt lat="46.536418" lon="6.835682">
        <ele>725.0</ele>
        <time>2012-03-30T15:57:27Z</time>
      </trkpt>
      <trkpt lat="46.536602" lon="6.835795">
        <ele>725.0</ele>
        <time>2012-03-30T15:57:31Z</time>
      </trkpt>
      <trkpt lat="46.536802" lon="6.835926">
        <ele>726.0</ele>
        <time>2012-03-30T15:57:35Z</time>
      </trkpt>
      <trkpt lat="46.537005" lon="6.836061">
        <ele>725.0</ele>
        <time>2012-03-30T15:57:39Z</time>
      </trkpt>
      <trkpt lat="46.537204" lon="6.836189">
        <ele>725.0</ele>
        <time>2012-03-30T15:57:43Z</time>
      </trkpt>
      <trkpt lat="46.537405" lon="6.836316">
        <ele>724.0</ele>
        <time>2012-03-30T15:57:47Z</time>
      </trkpt>
      <trkpt lat="46.537599" lon="6.836419">
        <ele>724.0</ele>
        <time>2012-03-30T15:57:51Z</time>
      </trkpt>
      <trkpt lat="46.537805" lon="6.836522">
        <ele>724.0</ele>
        <time>2012-03-30T15:57:55Z</time>
      </trkpt>
      <trkpt lat="46.538003" lon="6.836612">
        <ele>724.0</ele>
        <time>2012-03-30T15:57:59Z</time>
      </trkpt>
      <trkpt lat="46.538198" lon="6.836692">
        <ele>725.0</ele>
        <time>2012-03-30T15:58:03Z</time>
      </trkpt>
      <trkpt lat="46.538384" lon="6.836768">
        <ele>725.0</ele>
        <time>2012-03-30T15:58:07Z</time>
      </trkpt>
      <trkpt lat="46.53857" lon="6.83684">
        <ele>725.0</ele>
        <time>2012-03-30T15:58:11Z</time>
      </trkpt>
      <trkpt lat="46.538761" lon="6.836905">
        <ele>725.0</ele>
        <time>2012-03-30T15:58:15Z</time>
      </trkpt>
      <trkpt lat="46.538961" lon="6.836949">
        <ele>725.0</ele>
        <time>2012-03-30T15:58:19Z</time>
      </trkpt>
      <trkpt lat="46.539151" lon="6.836991">
        <ele>725.0</ele>
        <time>2012-03-30T15:58:23Z</time>
      </trkpt>
      <trkpt lat="46.539317" lon="6.83703">
        <ele>725.0</ele>
        <time>2012-03-30T15:58:27Z</time>
      </trkpt>
      <trkpt lat="46.539468" lon="6.837064">
        <ele>725.0</ele>
        <time>2012-03-30T15:58:31Z</time>
      </trkpt>
      <trkpt lat="46.539779" lon="6.837153">
        <ele>725.0</ele>
        <time>2012-03-30T15:58:39Z</time>
      </trkpt>
      <trkpt lat="46.539951" lon="6.83716">
        <ele>725.0</ele>
        <time>2012-03-30T15:58:43Z</time>
      </trkpt>
      <trkpt lat="46.540136" lon="6.837177">
        <ele>725.0</ele>
        <time>2012-03-30T15:58:47Z</time>
      </trkpt>
      <trkpt lat="46.540325" lon="6.837247">
        <ele>725.0</ele>
        <time>2012-03-30T15:58:51Z</time>
      </trkpt>
      <trkpt lat="46.540511" lon="6.837299">
        <ele>725.0</ele>
        <time>2012-03-30T15:58:55Z</time>
      </trkpt>
      <trkpt lat="46.540702" lon="6.837329">
        <ele>725.0</ele>
        <time>2012-03-30T15:58:59Z</time>
      </trkpt>
      <trkpt lat="46.5409" lon="6.837357">
        <ele>724.0</ele>
        <time>2012-03-30T15:59:03Z</time>
      </trkpt>
      <trkpt lat="46.541097" lon="6.837385">
        <ele>724.0</ele>
        <time>2012-03-30T15:59:07Z</time>
      </trkpt>
      <trkpt lat="46.54129" lon="6.837414">
        <ele>723.0</ele>
        <time>2012-03-30T15:59:11Z</time>
      </trkpt>
      <trkpt lat="46.541479" lon="6.837443">
        <ele>723.0</ele>
        <time>2012-03-30T15:59:15Z</time>
      </trkpt>
      <trkpt lat="46.541663" lon="6.837481">
        <ele>723.0</ele>
        <time>2012-03-30T15:59:19Z</time>
      </trkpt>
      <trkpt lat="46.541751" lon="6.837503">
        <ele>723.0</ele>
        <time>2012-03-30T15:59:21Z</time>
      </trkpt>
      <trkpt lat="46.542009" lon="6.83754">
        <ele>723.0</ele>
        <time>2012-03-30T15:59:27Z</time>
      </trkpt>
      <trkpt lat="46.542153" lon="6.837593">
        <ele>723.0</ele>
        <time>2012-03-30T15:59:31Z</time>
      </trkpt>
      <trkpt lat="46.542219" lon="6.837622">
        <ele>723.0</ele>
        <time>2012-03-30T15:59:33Z</time>
      </trkpt>
      <trkpt lat="46.542366" lon="6.837736">
        <ele>722.0</ele>
        <time>2012-03-30T15:59:39Z</time>
      </trkpt>
      <trkpt lat="46.542448" lon="6.837773">
        <ele>722.0</ele>
        <time>2012-03-30T15:59:44Z</time>
      </trkpt>
      <trkpt lat="46.542629" lon="6.837948">
        <ele>722.0</ele>
        <time>2012-03-30T15:59:51Z</time>
      </trkpt>
      <trkpt lat="46.54277" lon="6.838071">
        <ele>721.0</ele>
        <time>2012-03-30T15:59:55Z</time>
      </trkpt>
      <trkpt lat="46.542912" lon="6.838184">
        <ele>721.0</ele>
        <time>2012-03-30T15:59:59Z</time>
      </trkpt>
      <trkpt lat="46.543042" lon="6.838289">
        <ele>721.0</ele>
        <time>2012-03-30T16:00:03Z</time>
      </trkpt>
      <trkpt lat="46.543166" lon="6.838395">
        <ele>721.0</ele>
        <time>2012-03-30T16:00:07Z</time>
      </trkpt>
      <trkpt lat="46.543224" lon="6.83845">
        <ele>721.0</ele>
        <time>2012-03-30T16:00:09Z</time>
      </trkpt>
      <trkpt lat="46.543379" lon="6.838624">
        <ele>721.0</ele>
        <time>2012-03-30T16:00:15Z</time>
      </trkpt>
      <trkpt lat="46.543457" lon="6.838785">
        <ele>721.0</ele>
        <time>2012-03-30T16:00:19Z</time>
      </trkpt>
      <trkpt lat="46.54349" lon="6.839008">
        <ele>722.0</ele>
        <time>2012-03-30T16:00:23Z</time>
      </trkpt>
      <trkpt lat="46.543495" lon="6.839228">
        <ele>722.0</ele>
        <time>2012-03-30T16:00:27Z</time>
      </trkpt>
      <trkpt lat="46.543541" lon="6.839419">
        <ele>723.0</ele>
        <time>2012-03-30T16:00:31Z</time>
      </trkpt>
      <trkpt lat="46.543595" lon="6.83947">
        <ele>723.0</ele>
        <time>2012-03-30T16:00:33Z</time>
      </trkpt>
      <trkpt lat="46.543657" lon="6.839539">
        <ele>723.0</ele>
        <time>2012-03-30T16:00:38Z</time>
      </trkpt>
      <trkpt lat="46.543788" lon="6.839638">
        <ele>723.0</ele>
        <time>2012-03-30T16:00:43Z</time>
      </trkpt>
      <trkpt lat="46.543865" lon="6.83967">
        <ele>723.0</ele>
        <time>2012-03-30T16:00:46Z</time>
      </trkpt>
      <trkpt lat="46.543928" lon="6.839643">
        <ele>724.0</ele>
        <time>2012-03-30T16:00:49Z</time>
      </trkpt>
      <trkpt lat="46.544051" lon="6.839519">
        <ele>724.0</ele>
        <time>2012-03-30T16:00:55Z</time>
      </trkpt>
      <trkpt lat="46.544129" lon="6.839437">
        <ele>724.0</ele>
        <time>2012-03-30T16:00:58Z</time>
      </trkpt>
      <trkpt lat="46.544417" lon="6.83912">
        <ele>726.0</ele>
        <time>2012-03-30T16:01:06Z</time>
      </trkpt>
      <trkpt lat="46.544549" lon="6.839036">
        <ele>726.0</ele>
        <time>2012-03-30T16:01:10Z</time>
      </trkpt>
      <trkpt lat="46.544685" lon="6.839137">
        <ele>726.0</ele>
        <time>2012-03-30T16:01:14Z</time>
      </trkpt>
      <trkpt lat="46.544873" lon="6.83919">
        <ele>726.0</ele>
        <time>2012-03-30T16:01:18Z</time>
      </trkpt>
      <trkpt lat="46.545082" lon="6.839139">
        <ele>725.0</ele>
        <time>2012-03-30T16:01:22Z</time>
      </trkpt>
      <trkpt lat="46.545395" lon="6.839078">
        <ele>725.0</ele>
        <time>2012-03-30T16:01:27Z</time>
      </trkpt>
      <trkpt lat="46.545601" lon="6.839054">
        <ele>724.0</ele>
        <time>2012-03-30T16:01:31Z</time>
      </trkpt>
      <trkpt lat="46.545671" lon="6.839058">
        <ele>724.0</ele>
        <time>2012-03-30T16:01:33Z</time>
      </trkpt>
      <trkpt lat="46.545825" lon="6.839032">
        <ele>724.0</ele>
        <time>2012-03-30T16:01:39Z</time>
      </trkpt>
      <trkpt lat="46.545906" lon="6.838994">
        <ele>724.0</ele>
        <time>2012-03-30T16:01:43Z</time>
      </trkpt>
      <trkpt lat="46.545973" lon="6.838933">
        <ele>724.0</ele>
        <time>2012-03-30T16:01:50Z</time>
      </trkpt>
      <trkpt lat="46.546016" lon="6.838745">
        <ele>724.0</ele>
        <time>2012-03-30T16:01:59Z</time>
      </trkpt>
      <trkpt lat="46.546069" lon="6.838686">
        <ele>724.0</ele>
        <time>2012-03-30T16:02:02Z</time>
      </trkpt>
      <trkpt lat="46.546282" lon="6.838585">
        <ele>723.0</ele>
        <time>2012-03-30T16:02:09Z</time>
      </trkpt>
      <trkpt lat="46.546459" lon="6.838406">
        <ele>722.0</ele>
        <time>2012-03-30T16:02:15Z</time>
      </trkpt>
      <trkpt lat="46.546497" lon="6.838327">
        <ele>721.0</ele>
        <time>2012-03-30T16:02:17Z</time>
      </trkpt>
      <trkpt lat="46.546429" lon="6.838309">
        <ele>720.0</ele>
        <time>2012-03-30T16:03:07Z</time>
      </trkpt>
      <trkpt lat="46.546305" lon="6.83856">
        <ele>719.0</ele>
        <time>2012-03-30T16:03:25Z</time>
      </trkpt>
      <trkpt lat="46.546187" lon="6.838657">
        <ele>718.0</ele>
        <time>2012-03-30T16:03:35Z</time>
      </trkpt>
      <trkpt lat="46.546116" lon="6.838681">
        <ele>718.0</ele>
        <time>2012-03-30T16:03:41Z</time>
      </trkpt>
      <trkpt lat="46.546004" lon="6.838925">
        <ele>717.0</ele>
        <time>2012-03-30T16:03:57Z</time>
      </trkpt>
      <trkpt lat="46.545963" lon="6.838998">
        <ele>717.0</ele>
        <time>2012-03-30T16:04:01Z</time>
      </trkpt>
      <trkpt lat="46.545909" lon="6.839046">
        <ele>717.0</ele>
        <time>2012-03-30T16:04:06Z</time>
      </trkpt>
      <trkpt lat="46.545836" lon="6.839063">
        <ele>717.0</ele>
        <time>2012-03-30T16:04:12Z</time>
      </trkpt>
      <trkpt lat="46.545771" lon="6.839066">
        <ele>717.0</ele>
        <time>2012-03-30T16:04:16Z</time>
      </trkpt>
      <trkpt lat="46.545705" lon="6.839068">
        <ele>717.0</ele>
        <time>2012-03-30T16:04:20Z</time>
      </trkpt>
      <trkpt lat="46.545622" lon="6.839063">
        <ele>717.0</ele>
        <time>2012-03-30T16:04:24Z</time>
      </trkpt>
      <trkpt lat="46.545492" lon="6.839077">
        <ele>717.0</ele>
        <time>2012-03-30T16:04:30Z</time>
      </trkpt>
      <trkpt lat="46.545406" lon="6.839087">
        <ele>718.0</ele>
        <time>2012-03-30T16:04:34Z</time>
      </trkpt>
      <trkpt lat="46.545338" lon="6.839099">
        <ele>718.0</ele>
        <time>2012-03-30T16:04:37Z</time>
      </trkpt>
      <trkpt lat="46.545268" lon="6.839112">
        <ele>718.0</ele>
        <time>2012-03-30T16:04:40Z</time>
      </trkpt>
      <trkpt lat="46.545046" lon="6.839153">
        <ele>718.0</ele>
        <time>2012-03-30T16:04:50Z</time>
      </trkpt>
      <trkpt lat="46.54498" lon="6.839171">
        <ele>719.0</ele>
        <time>2012-03-30T16:04:53Z</time>
      </trkpt>
      <trkpt lat="46.544756" lon="6.839202">
        <ele>720.0</ele>
        <time>2012-03-30T16:05:02Z</time>
      </trkpt>
      <trkpt lat="46.544706" lon="6.83928">
        <ele>720.0</ele>
        <time>2012-03-30T16:05:06Z</time>
      </trkpt>
      <trkpt lat="46.544725" lon="6.839368">
        <ele>720.0</ele>
        <time>2012-03-30T16:05:09Z</time>
      </trkpt>
      <trkpt lat="46.544754" lon="6.839461">
        <ele>720.0</ele>
        <time>2012-03-30T16:05:12Z</time>
      </trkpt>
      <trkpt lat="46.544817" lon="6.839647">
        <ele>721.0</ele>
        <time>2012-03-30T16:05:18Z</time>
      </trkpt>
      <trkpt lat="46.54486" lon="6.839728">
        <ele>721.0</ele>
        <time>2012-03-30T16:05:21Z</time>
      </trkpt>
      <trkpt lat="46.544913" lon="6.839806">
        <ele>721.0</ele>
        <time>2012-03-30T16:05:24Z</time>
      </trkpt>
      <trkpt lat="46.54505" lon="6.839959">
        <ele>722.0</ele>
        <time>2012-03-30T16:05:30Z</time>
      </trkpt>
      <trkpt lat="46.545154" lon="6.840097">
        <ele>723.0</ele>
        <time>2012-03-30T16:05:34Z</time>
      </trkpt>
      <trkpt lat="46.545277" lon="6.840279">
        <ele>725.0</ele>
        <time>2012-03-30T16:05:38Z</time>
      </trkpt>
      <trkpt lat="46.545429" lon="6.840458">
        <ele>725.0</ele>
        <time>2012-03-30T16:05:42Z</time>
      </trkpt>
      <trkpt lat="46.54563" lon="6.840629">
        <ele>725.0</ele>
        <time>2012-03-30T16:05:46Z</time>
      </trkpt>
      <trkpt lat="46.545756" lon="6.840719">
        <ele>725.0</ele>
        <time>2012-03-30T16:05:48Z</time>
      </trkpt>
      <trkpt lat="46.546161" lon="6.840889">
        <ele>724.0</ele>
        <time>2012-03-30T16:05:54Z</time>
      </trkpt>
      <trkpt lat="46.546464" lon="6.84087">
        <ele>723.0</ele>
        <time>2012-03-30T16:05:58Z</time>
      </trkpt>
      <trkpt lat="46.546769" lon="6.840914">
        <ele>723.0</ele>
        <time>2012-03-30T16:06:02Z</time>
      </trkpt>
      <trkpt lat="46.547021" lon="6.840715">
        <ele>723.0</ele>
        <time>2012-03-30T16:06:06Z</time>
      </trkpt>
      <trkpt lat="46.547321" lon="6.840319">
        <ele>722.0</ele>
        <time>2012-03-30T16:06:10Z</time>
      </trkpt>
      <trkpt lat="46.547663" lon="6.83994">
        <ele>723.0</ele>
        <time>2012-03-30T16:06:14Z</time>
      </trkpt>
      <trkpt lat="46.547935" lon="6.839571">
        <ele>725.0</ele>
        <time>2012-03-30T16:06:18Z</time>
      </trkpt>
      <trkpt lat="46.548044" lon="6.839162">
        <ele>726.0</ele>
        <time>2012-03-30T16:06:22Z</time>
      </trkpt>
      <trkpt lat="46.548059" lon="6.838746">
        <ele>725.0</ele>
        <time>2012-03-30T16:06:26Z</time>
      </trkpt>
      <trkpt lat="46.548154" lon="6.838333">
        <ele>724.0</ele>
        <time>2012-03-30T16:06:30Z</time>
      </trkpt>
      <trkpt lat="46.548206" lon="6.838061">
        <ele>724.0</ele>
        <time>2012-03-30T16:06:34Z</time>
      </trkpt>
      <trkpt lat="46.548267" lon="6.838026">
        <ele>724.0</ele>
        <time>2012-03-30T16:06:36Z</time>
      </trkpt>
      <trkpt lat="46.548414" lon="6.837978">
        <ele>723.0</ele>
        <time>2012-03-30T16:06:43Z</time>
      </trkpt>
      <trkpt lat="46.548486" lon="6.837956">
        <ele>722.0</ele>
        <time>2012-03-30T16:06:46Z</time>
      </trkpt>
      <trkpt lat="46.548779" lon="6.837767">
        <ele>720.0</ele>
        <time>2012-03-30T16:06:57Z</time>
      </trkpt>
      <trkpt lat="46.548962" lon="6.837668">
        <ele>720.0</ele>
        <time>2012-03-30T16:07:01Z</time>
      </trkpt>
      <trkpt lat="46.549162" lon="6.837714">
        <ele>717.0</ele>
        <time>2012-03-30T16:07:05Z</time>
      </trkpt>
      <trkpt lat="46.549349" lon="6.837827">
        <ele>715.0</ele>
        <time>2012-03-30T16:07:10Z</time>
      </trkpt>
      <trkpt lat="46.549492" lon="6.837923">
        <ele>714.0</ele>
        <time>2012-03-30T16:07:13Z</time>
      </trkpt>
      <trkpt lat="46.54956" lon="6.837977">
        <ele>714.0</ele>
        <time>2012-03-30T16:07:16Z</time>
      </trkpt>
      <trkpt lat="46.549695" lon="6.83818">
        <ele>712.0</ele>
        <time>2012-03-30T16:07:21Z</time>
      </trkpt>
      <trkpt lat="46.54987" lon="6.838389">
        <ele>710.0</ele>
        <time>2012-03-30T16:07:25Z</time>
      </trkpt>
      <trkpt lat="46.550011" lon="6.838507">
        <ele>708.0</ele>
        <time>2012-03-30T16:07:29Z</time>
      </trkpt>
      <trkpt lat="46.550152" lon="6.838556">
        <ele>707.0</ele>
        <time>2012-03-30T16:07:34Z</time>
      </trkpt>
      <trkpt lat="46.550216" lon="6.838547">
        <ele>706.0</ele>
        <time>2012-03-30T16:07:38Z</time>
      </trkpt>
      <trkpt lat="46.550292" lon="6.838526">
        <ele>706.0</ele>
        <time>2012-03-30T16:07:42Z</time>
      </trkpt>
      <trkpt lat="46.550365" lon="6.838571">
        <ele>704.0</ele>
        <time>2012-03-30T16:07:53Z</time>
      </trkpt>
      <trkpt lat="46.550406" lon="6.838704">
        <ele>703.0</ele>
        <time>2012-03-30T16:08:08Z</time>
      </trkpt>
      <trkpt lat="46.550655" lon="6.838517">
        <ele>702.0</ele>
        <time>2012-03-30T16:08:53Z</time>
      </trkpt>
      <trkpt lat="46.55079" lon="6.838335">
        <ele>702.0</ele>
        <time>2012-03-30T16:09:20Z</time>
      </trkpt>
      <trkpt lat="46.550949" lon="6.838204">
        <ele>701.0</ele>
        <time>2012-03-30T16:09:26Z</time>
      </trkpt>
      <trkpt lat="46.551035" lon="6.838126">
        <ele>701.0</ele>
        <time>2012-03-30T16:09:34Z</time>
      </trkpt>
      <trkpt lat="46.551068" lon="6.838035">
        <ele>700.0</ele>
        <time>2012-03-30T16:09:45Z</time>
      </trkpt>
      <trkpt lat="46.551189" lon="6.837624">
        <ele>699.0</ele>
        <time>2012-03-30T16:10:28Z</time>
      </trkpt>
      <trkpt lat="46.551228" lon="6.837501">
        <ele>699.0</ele>
        <time>2012-03-30T16:10:38Z</time>
      </trkpt>
      <trkpt lat="46.551288" lon="6.837386">
        <ele>698.0</ele>
        <time>2012-03-30T16:10:45Z</time>
      </trkpt>
      <trkpt lat="46.551359" lon="6.837284">
        <ele>698.0</ele>
        <time>2012-03-30T16:10:54Z</time>
      </trkpt>
      <trkpt lat="46.551414" lon="6.837137">
        <ele>698.0</ele>
        <time>2012-03-30T16:11:01Z</time>
      </trkpt>
      <trkpt lat="46.55146" lon="6.83704">
        <ele>697.0</ele>
        <time>2012-03-30T16:11:04Z</time>
      </trkpt>
      <trkpt lat="46.55156" lon="6.836903">
        <ele>697.0</ele>
        <time>2012-03-30T16:11:09Z</time>
      </trkpt>
      <trkpt lat="46.551638" lon="6.836812">
        <ele>697.0</ele>
        <time>2012-03-30T16:11:13Z</time>
      </trkpt>
      <trkpt lat="46.551724" lon="6.836744">
        <ele>697.0</ele>
        <time>2012-03-30T16:11:17Z</time>
      </trkpt>
      <trkpt lat="46.551767" lon="6.836619">
        <ele>696.0</ele>
        <time>2012-03-30T16:11:22Z</time>
      </trkpt>
      <trkpt lat="46.551892" lon="6.836176">
        <ele>695.0</ele>
        <time>2012-03-30T16:11:36Z</time>
      </trkpt>
      <trkpt lat="46.55198" lon="6.83609">
        <ele>695.0</ele>
        <time>2012-03-30T16:11:41Z</time>
      </trkpt>
      <trkpt lat="46.552099" lon="6.835915">
        <ele>695.0</ele>
        <time>2012-03-30T16:11:47Z</time>
      </trkpt>
      <trkpt lat="46.552174" lon="6.835923">
        <ele>695.0</ele>
        <time>2012-03-30T16:11:51Z</time>
      </trkpt>
      <trkpt lat="46.55224" lon="6.835933">
        <ele>695.0</ele>
        <time>2012-03-30T16:11:55Z</time>
      </trkpt>
      <trkpt lat="46.552309" lon="6.835909">
        <ele>695.0</ele>
        <time>2012-03-30T16:11:58Z</time>
      </trkpt>
      <trkpt lat="46.55249" lon="6.835845">
        <ele>695.0</ele>
        <time>2012-03-30T16:12:03Z</time>
      </trkpt>
      <trkpt lat="46.552626" lon="6.835783">
        <ele>695.0</ele>
        <time>2012-03-30T16:12:06Z</time>
      </trkpt>
      <trkpt lat="46.552749" lon="6.83574">
        <ele>695.0</ele>
        <time>2012-03-30T16:12:10Z</time>
      </trkpt>
      <trkpt lat="46.552837" lon="6.83571">
        <ele>694.0</ele>
        <time>2012-03-30T16:12:13Z</time>
      </trkpt>
      <trkpt lat="46.552998" lon="6.835667">
        <ele>694.0</ele>
        <time>2012-03-30T16:12:19Z</time>
      </trkpt>
      <trkpt lat="46.55308" lon="6.835636">
        <ele>694.0</ele>
        <time>2012-03-30T16:12:22Z</time>
      </trkpt>
      <trkpt lat="46.553162" lon="6.835602">
        <ele>693.0</ele>
        <time>2012-03-30T16:12:25Z</time>
      </trkpt>
      <trkpt lat="46.55332" lon="6.835547">
        <ele>693.0</ele>
        <time>2012-03-30T16:12:31Z</time>
      </trkpt>
      <trkpt lat="46.553404" lon="6.835523">
        <ele>693.0</ele>
        <time>2012-03-30T16:12:34Z</time>
      </trkpt>
      <trkpt lat="46.553496" lon="6.835507">
        <ele>693.0</ele>
        <time>2012-03-30T16:12:37Z</time>
      </trkpt>
      <trkpt lat="46.553587" lon="6.835501">
        <ele>692.0</ele>
        <time>2012-03-30T16:12:40Z</time>
      </trkpt>
      <trkpt lat="46.553767" lon="6.835483">
        <ele>692.0</ele>
        <time>2012-03-30T16:12:46Z</time>
      </trkpt>
      <trkpt lat="46.553856" lon="6.835481">
        <ele>692.0</ele>
        <time>2012-03-30T16:12:49Z</time>
      </trkpt>
      <trkpt lat="46.554034" lon="6.835481">
        <ele>692.0</ele>
        <time>2012-03-30T16:12:55Z</time>
      </trkpt>
      <trkpt lat="46.554125" lon="6.835477">
        <ele>691.0</ele>
        <time>2012-03-30T16:12:58Z</time>
      </trkpt>
      <trkpt lat="46.554344" lon="6.835475">
        <ele>691.0</ele>
        <time>2012-03-30T16:13:05Z</time>
      </trkpt>
      <trkpt lat="46.554536" lon="6.835472">
        <ele>691.0</ele>
        <time>2012-03-30T16:13:11Z</time>
      </trkpt>
      <trkpt lat="46.554665" lon="6.835484">
        <ele>691.0</ele>
        <time>2012-03-30T16:13:15Z</time>
      </trkpt>
      <trkpt lat="46.554794" lon="6.835485">
        <ele>691.0</ele>
        <time>2012-03-30T16:13:19Z</time>
      </trkpt>
      <trkpt lat="46.554928" lon="6.835473">
        <ele>690.0</ele>
        <time>2012-03-30T16:13:23Z</time>
      </trkpt>
      <trkpt lat="46.555132" lon="6.835461">
        <ele>690.0</ele>
        <time>2012-03-30T16:13:30Z</time>
      </trkpt>
      <trkpt lat="46.55529" lon="6.835425">
        <ele>690.0</ele>
        <time>2012-03-30T16:13:33Z</time>
      </trkpt>
      <trkpt lat="46.555359" lon="6.835391">
        <ele>690.0</ele>
        <time>2012-03-30T16:13:37Z</time>
      </trkpt>
      <trkpt lat="46.555537" lon="6.835229">
        <ele>690.0</ele>
        <time>2012-03-30T16:13:43Z</time>
      </trkpt>
      <trkpt lat="46.55552" lon="6.834811">
        <ele>689.0</ele>
        <time>2012-03-30T16:13:47Z</time>
      </trkpt>
      <trkpt lat="46.555493" lon="6.834467">
        <ele>688.0</ele>
        <time>2012-03-30T16:13:51Z</time>
      </trkpt>
      <trkpt lat="46.555466" lon="6.834141">
        <ele>686.0</ele>
        <time>2012-03-30T16:13:55Z</time>
      </trkpt>
      <trkpt lat="46.555456" lon="6.833989">
        <ele>686.0</ele>
        <time>2012-03-30T16:13:57Z</time>
      </trkpt>
      <trkpt lat="46.555417" lon="6.833536">
        <ele>686.0</ele>
        <time>2012-03-30T16:14:03Z</time>
      </trkpt>
      <trkpt lat="46.555401" lon="6.833387">
        <ele>686.0</ele>
        <time>2012-03-30T16:14:05Z</time>
      </trkpt>
      <trkpt lat="46.555347" lon="6.832944">
        <ele>686.0</ele>
        <time>2012-03-30T16:14:11Z</time>
      </trkpt>
      <trkpt lat="46.55535" lon="6.832674">
        <ele>686.0</ele>
        <time>2012-03-30T16:14:15Z</time>
      </trkpt>
      <trkpt lat="46.555489" lon="6.832523">
        <ele>686.0</ele>
        <time>2012-03-30T16:14:19Z</time>
      </trkpt>
      <trkpt lat="46.555613" lon="6.832377">
        <ele>686.0</ele>
        <time>2012-03-30T16:14:23Z</time>
      </trkpt>
      <trkpt lat="46.555634" lon="6.832256">
        <ele>687.0</ele>
        <time>2012-03-30T16:14:25Z</time>
      </trkpt>
      <trkpt lat="46.555629" lon="6.831868">
        <ele>687.0</ele>
        <time>2012-03-30T16:14:31Z</time>
      </trkpt>
      <trkpt lat="46.555618" lon="6.831647">
        <ele>687.0</ele>
        <time>2012-03-30T16:14:35Z</time>
      </trkpt>
      <trkpt lat="46.55561" lon="6.831397">
        <ele>687.0</ele>
        <time>2012-03-30T16:14:39Z</time>
      </trkpt>
      <trkpt lat="46.555583" lon="6.831138">
        <ele>687.0</ele>
        <time>2012-03-30T16:14:43Z</time>
      </trkpt>
      <trkpt lat="46.555542" lon="6.830885">
        <ele>687.0</ele>
        <time>2012-03-30T16:14:47Z</time>
      </trkpt>
      <trkpt lat="46.55549" lon="6.830623">
        <ele>687.0</ele>
        <time>2012-03-30T16:14:51Z</time>
      </trkpt>
      <trkpt lat="46.555441" lon="6.830362">
        <ele>686.0</ele>
        <time>2012-03-30T16:14:55Z</time>
      </trkpt>
      <trkpt lat="46.5554" lon="6.82992">
        <ele>685.0</ele>
        <time>2012-03-30T16:15:03Z</time>
      </trkpt>
      <trkpt lat="46.555656" lon="6.829899">
        <ele>685.0</ele>
        <time>2012-03-30T16:15:14Z</time>
      </trkpt>
      <trkpt lat="46.555737" lon="6.829944">
        <ele>685.0</ele>
        <time>2012-03-30T16:15:16Z</time>
      </trkpt>
      <trkpt lat="46.556025" lon="6.830091">
        <ele>685.0</ele>
        <time>2012-03-30T16:15:22Z</time>
      </trkpt>
      <trkpt lat="46.556116" lon="6.830149">
        <ele>685.0</ele>
        <time>2012-03-30T16:15:24Z</time>
      </trkpt>
      <trkpt lat="46.556356" lon="6.830348">
        <ele>686.0</ele>
        <time>2012-03-30T16:15:30Z</time>
      </trkpt>
      <trkpt lat="46.5567" lon="6.830577">
        <ele>686.0</ele>
        <time>2012-03-30T16:15:38Z</time>
      </trkpt>
      <trkpt lat="46.556899" lon="6.830588">
        <ele>686.0</ele>
        <time>2012-03-30T16:15:42Z</time>
      </trkpt>
      <trkpt lat="46.557072" lon="6.830562">
        <ele>686.0</ele>
        <time>2012-03-30T16:15:46Z</time>
      </trkpt>
      <trkpt lat="46.55716" lon="6.830413">
        <ele>686.0</ele>
        <time>2012-03-30T16:15:51Z</time>
      </trkpt>
      <trkpt lat="46.557188" lon="6.83013">
        <ele>685.0</ele>
        <time>2012-03-30T16:15:55Z</time>
      </trkpt>
      <trkpt lat="46.557233" lon="6.829784">
        <ele>685.0</ele>
        <time>2012-03-30T16:15:59Z</time>
      </trkpt>
      <trkpt lat="46.557271" lon="6.829395">
        <ele>685.0</ele>
        <time>2012-03-30T16:16:03Z</time>
      </trkpt>
      <trkpt lat="46.557294" lon="6.829061">
        <ele>685.0</ele>
        <time>2012-03-30T16:16:06Z</time>
      </trkpt>
      <trkpt lat="46.557269" lon="6.82848">
        <ele>685.0</ele>
        <time>2012-03-30T16:16:11Z</time>
      </trkpt>
      <trkpt lat="46.557188" lon="6.828042">
        <ele>686.0</ele>
        <time>2012-03-30T16:16:15Z</time>
      </trkpt>
      <trkpt lat="46.557112" lon="6.827774">
        <ele>685.0</ele>
        <time>2012-03-30T16:16:18Z</time>
      </trkpt>
      <trkpt lat="46.557129" lon="6.827478">
        <ele>685.0</ele>
        <time>2012-03-30T16:16:22Z</time>
      </trkpt>
      <trkpt lat="46.557444" lon="6.827158">
        <ele>683.0</ele>
        <time>2012-03-30T16:16:30Z</time>
      </trkpt>
      <trkpt lat="46.557475" lon="6.826831">
        <ele>682.0</ele>
        <time>2012-03-30T16:16:34Z</time>
      </trkpt>
      <trkpt lat="46.557535" lon="6.826509">
        <ele>681.0</ele>
        <time>2012-03-30T16:16:38Z</time>
      </trkpt>
      <trkpt lat="46.55767" lon="6.826308">
        <ele>681.0</ele>
        <time>2012-03-30T16:16:42Z</time>
      </trkpt>
      <trkpt lat="46.55784" lon="6.826187">
        <ele>680.0</ele>
        <time>2012-03-30T16:16:46Z</time>
      </trkpt>
      <trkpt lat="46.557913" lon="6.82615">
        <ele>680.0</ele>
        <time>2012-03-30T16:16:48Z</time>
      </trkpt>
      <trkpt lat="46.558051" lon="6.826092">
        <ele>680.0</ele>
        <time>2012-03-30T16:16:53Z</time>
      </trkpt>
      <trkpt lat="46.558114" lon="6.826058">
        <ele>680.0</ele>
        <time>2012-03-30T16:16:56Z</time>
      </trkpt>
      <trkpt lat="46.558246" lon="6.826003">
        <ele>680.0</ele>
        <time>2012-03-30T16:17:02Z</time>
      </trkpt>
      <trkpt lat="46.558318" lon="6.825956">
        <ele>680.0</ele>
        <time>2012-03-30T16:17:06Z</time>
      </trkpt>
      <trkpt lat="46.558515" lon="6.825805">
        <ele>680.0</ele>
        <time>2012-03-30T16:17:18Z</time>
      </trkpt>
      <trkpt lat="46.558571" lon="6.825758">
        <ele>680.0</ele>
        <time>2012-03-30T16:17:21Z</time>
      </trkpt>
      <trkpt lat="46.558691" lon="6.825673">
        <ele>680.0</ele>
        <time>2012-03-30T16:17:27Z</time>
      </trkpt>
      <trkpt lat="46.558749" lon="6.82563">
        <ele>680.0</ele>
        <time>2012-03-30T16:17:30Z</time>
      </trkpt>
      <trkpt lat="46.558806" lon="6.825586">
        <ele>681.0</ele>
        <time>2012-03-30T16:17:33Z</time>
      </trkpt>
      <trkpt lat="46.558919" lon="6.825493">
        <ele>681.0</ele>
        <time>2012-03-30T16:17:39Z</time>
      </trkpt>
      <trkpt lat="46.558975" lon="6.825418">
        <ele>681.0</ele>
        <time>2012-03-30T16:17:43Z</time>
      </trkpt>
      <trkpt lat="46.559024" lon="6.825339">
        <ele>682.0</ele>
        <time>2012-03-30T16:17:47Z</time>
      </trkpt>
      <trkpt lat="46.559052" lon="6.825248">
        <ele>682.0</ele>
        <time>2012-03-30T16:17:51Z</time>
      </trkpt>
      <trkpt lat="46.559075" lon="6.825154">
        <ele>682.0</ele>
        <time>2012-03-30T16:17:56Z</time>
      </trkpt>
      <trkpt lat="46.559139" lon="6.824954">
        <ele>683.0</ele>
        <time>2012-03-30T16:18:22Z</time>
      </trkpt>
      <trkpt lat="46.559184" lon="6.82487">
        <ele>683.0</ele>
        <time>2012-03-30T16:18:26Z</time>
      </trkpt>
      <trkpt lat="46.559215" lon="6.824763">
        <ele>683.0</ele>
        <time>2012-03-30T16:18:30Z</time>
      </trkpt>
      <trkpt lat="46.559245" lon="6.824661">
        <ele>683.0</ele>
        <time>2012-03-30T16:18:35Z</time>
      </trkpt>
      <trkpt lat="46.559273" lon="6.824569">
        <ele>684.0</ele>
        <time>2012-03-30T16:18:37Z</time>
      </trkpt>
      <trkpt lat="46.559335" lon="6.824355">
        <ele>684.0</ele>
        <time>2012-03-30T16:18:43Z</time>
      </trkpt>
      <trkpt lat="46.559387" lon="6.824149">
        <ele>685.0</ele>
        <time>2012-03-30T16:18:47Z</time>
      </trkpt>
      <trkpt lat="46.559457" lon="6.823861">
        <ele>686.0</ele>
        <time>2012-03-30T16:18:51Z</time>
      </trkpt>
      <trkpt lat="46.559542" lon="6.82355">
        <ele>687.0</ele>
        <time>2012-03-30T16:18:55Z</time>
      </trkpt>
      <trkpt lat="46.559597" lon="6.823276">
        <ele>687.0</ele>
        <time>2012-03-30T16:18:59Z</time>
      </trkpt>
      <trkpt lat="46.559633" lon="6.823179">
        <ele>687.0</ele>
        <time>2012-03-30T16:19:03Z</time>
      </trkpt>
      <trkpt lat="46.559666" lon="6.823089">
        <ele>686.0</ele>
        <time>2012-03-30T16:19:07Z</time>
      </trkpt>
      <trkpt lat="46.559696" lon="6.822993">
        <ele>686.0</ele>
        <time>2012-03-30T16:19:11Z</time>
      </trkpt>
      <trkpt lat="46.559733" lon="6.822899">
        <ele>686.0</ele>
        <time>2012-03-30T16:19:15Z</time>
      </trkpt>
      <trkpt lat="46.559756" lon="6.822802">
        <ele>686.0</ele>
        <time>2012-03-30T16:19:19Z</time>
      </trkpt>
      <trkpt lat="46.559766" lon="6.822711">
        <ele>687.0</ele>
        <time>2012-03-30T16:19:23Z</time>
      </trkpt>
      <trkpt lat="46.559798" lon="6.822618">
        <ele>687.0</ele>
        <time>2012-03-30T16:19:28Z</time>
      </trkpt>
      <trkpt lat="46.559857" lon="6.822582">
        <ele>687.0</ele>
        <time>2012-03-30T16:19:34Z</time>
      </trkpt>
      <trkpt lat="46.560012" lon="6.822585">
        <ele>687.0</ele>
        <time>2012-03-30T16:19:45Z</time>
      </trkpt>
      <trkpt lat="46.560125" lon="6.822613">
        <ele>687.0</ele>
        <time>2012-03-30T16:19:50Z</time>
      </trkpt>
      <trkpt lat="46.560481" lon="6.822732">
        <ele>687.0</ele>
        <time>2012-03-30T16:19:58Z</time>
      </trkpt>
      <trkpt lat="46.560567" lon="6.822762">
        <ele>687.0</ele>
        <time>2012-03-30T16:20:00Z</time>
      </trkpt>
      <trkpt lat="46.56073" lon="6.822813">
        <ele>687.0</ele>
        <time>2012-03-30T16:20:05Z</time>
      </trkpt>
      <trkpt lat="46.560968" lon="6.822904">
        <ele>686.0</ele>
        <time>2012-03-30T16:20:10Z</time>
      </trkpt>
      <trkpt lat="46.561299" lon="6.823078">
        <ele>686.0</ele>
        <time>2012-03-30T16:20:18Z</time>
      </trkpt>
      <trkpt lat="46.561374" lon="6.823131">
        <ele>686.0</ele>
        <time>2012-03-30T16:20:20Z</time>
      </trkpt>
      <trkpt lat="46.561629" lon="6.823276">
        <ele>686.0</ele>
        <time>2012-03-30T16:20:26Z</time>
      </trkpt>
      <trkpt lat="46.561803" lon="6.823324">
        <ele>686.0</ele>
        <time>2012-03-30T16:20:30Z</time>
      </trkpt>
      <trkpt lat="46.56189" lon="6.823331">
        <ele>685.0</ele>
        <time>2012-03-30T16:20:32Z</time>
      </trkpt>
      <trkpt lat="46.562141" lon="6.823381">
        <ele>686.0</ele>
        <time>2012-03-30T16:20:38Z</time>
      </trkpt>
      <trkpt lat="46.562291" lon="6.823456">
        <ele>686.0</ele>
        <time>2012-03-30T16:20:42Z</time>
      </trkpt>
      <trkpt lat="46.562442" lon="6.823541">
        <ele>686.0</ele>
        <time>2012-03-30T16:20:46Z</time>
      </trkpt>
      <trkpt lat="46.562598" lon="6.823736">
        <ele>685.0</ele>
        <time>2012-03-30T16:20:50Z</time>
      </trkpt>
      <trkpt lat="46.562759" lon="6.823923">
        <ele>685.0</ele>
        <time>2012-03-30T16:20:54Z</time>
      </trkpt>
      <trkpt lat="46.562926" lon="6.824088">
        <ele>684.0</ele>
        <time>2012-03-30T16:20:58Z</time>
      </trkpt>
      <trkpt lat="46.563086" lon="6.824207">
        <ele>683.0</ele>
        <time>2012-03-30T16:21:02Z</time>
      </trkpt>
      <trkpt lat="46.563236" lon="6.824315">
        <ele>683.0</ele>
        <time>2012-03-30T16:21:06Z</time>
      </trkpt>
      <trkpt lat="46.563398" lon="6.824392">
        <ele>682.0</ele>
        <time>2012-03-30T16:21:10Z</time>
      </trkpt>
      <trkpt lat="46.563574" lon="6.824457">
        <ele>682.0</ele>
        <time>2012-03-30T16:21:14Z</time>
      </trkpt>
      <trkpt lat="46.563745" lon="6.824505">
        <ele>681.0</ele>
        <time>2012-03-30T16:21:18Z</time>
      </trkpt>
      <trkpt lat="46.563825" lon="6.824512">
        <ele>681.0</ele>
        <time>2012-03-30T16:21:20Z</time>
      </trkpt>
      <trkpt lat="46.564103" lon="6.824516">
        <ele>681.0</ele>
        <time>2012-03-30T16:21:27Z</time>
      </trkpt>
      <trkpt lat="46.564295" lon="6.824629">
        <ele>682.0</ele>
        <time>2012-03-30T16:21:31Z</time>
      </trkpt>
      <trkpt lat="46.564531" lon="6.824817">
        <ele>684.0</ele>
        <time>2012-03-30T16:21:36Z</time>
      </trkpt>
      <trkpt lat="46.564693" lon="6.824955">
        <ele>685.0</ele>
        <time>2012-03-30T16:21:39Z</time>
      </trkpt>
      <trkpt lat="46.564888" lon="6.825129">
        <ele>686.0</ele>
        <time>2012-03-30T16:21:42Z</time>
      </trkpt>
      <trkpt lat="46.565069" lon="6.825288">
        <ele>687.0</ele>
        <time>2012-03-30T16:21:47Z</time>
      </trkpt>
      <trkpt lat="46.565228" lon="6.825439">
        <ele>687.0</ele>
        <time>2012-03-30T16:21:51Z</time>
      </trkpt>
      <trkpt lat="46.56537" lon="6.825589">
        <ele>687.0</ele>
        <time>2012-03-30T16:21:54Z</time>
      </trkpt>
      <trkpt lat="46.565515" lon="6.825727">
        <ele>687.0</ele>
        <time>2012-03-30T16:21:58Z</time>
      </trkpt>
      <trkpt lat="46.565662" lon="6.825881">
        <ele>688.0</ele>
        <time>2012-03-30T16:22:02Z</time>
      </trkpt>
      <trkpt lat="46.565816" lon="6.826043">
        <ele>689.0</ele>
        <time>2012-03-30T16:22:06Z</time>
      </trkpt>
      <trkpt lat="46.56597" lon="6.826193">
        <ele>689.0</ele>
        <time>2012-03-30T16:22:10Z</time>
      </trkpt>
      <trkpt lat="46.566131" lon="6.826363">
        <ele>689.0</ele>
        <time>2012-03-30T16:22:14Z</time>
      </trkpt>
      <trkpt lat="46.566291" lon="6.826526">
        <ele>689.0</ele>
        <time>2012-03-30T16:22:18Z</time>
      </trkpt>
      <trkpt lat="46.566446" lon="6.826677">
        <ele>689.0</ele>
        <time>2012-03-30T16:22:23Z</time>
      </trkpt>
      <trkpt lat="46.566615" lon="6.826786">
        <ele>690.0</ele>
        <time>2012-03-30T16:22:27Z</time>
      </trkpt>
      <trkpt lat="46.566706" lon="6.826668">
        <ele>690.0</ele>
        <time>2012-03-30T16:22:31Z</time>
      </trkpt>
      <trkpt lat="46.566722" lon="6.826541">
        <ele>691.0</ele>
        <time>2012-03-30T16:22:33Z</time>
      </trkpt>
      <trkpt lat="46.566811" lon="6.826254">
        <ele>692.0</ele>
        <time>2012-03-30T16:22:37Z</time>
      </trkpt>
      <trkpt lat="46.566976" lon="6.825777">
        <ele>692.0</ele>
        <time>2012-03-30T16:22:42Z</time>
      </trkpt>
      <trkpt lat="46.567241" lon="6.825482">
        <ele>691.0</ele>
        <time>2012-03-30T16:22:47Z</time>
      </trkpt>
      <trkpt lat="46.567455" lon="6.825148">
        <ele>690.0</ele>
        <time>2012-03-30T16:22:51Z</time>
      </trkpt>
      <trkpt lat="46.567614" lon="6.824741">
        <ele>687.0</ele>
        <time>2012-03-30T16:22:55Z</time>
      </trkpt>
      <trkpt lat="46.567723" lon="6.824324">
        <ele>686.0</ele>
        <time>2012-03-30T16:22:59Z</time>
      </trkpt>
      <trkpt lat="46.567833" lon="6.823919">
        <ele>684.0</ele>
        <time>2012-03-30T16:23:03Z</time>
      </trkpt>
      <trkpt lat="46.567943" lon="6.823585">
        <ele>683.0</ele>
        <time>2012-03-30T16:23:07Z</time>
      </trkpt>
      <trkpt lat="46.567955" lon="6.823311">
        <ele>682.0</ele>
        <time>2012-03-30T16:23:11Z</time>
      </trkpt>
      <trkpt lat="46.567876" lon="6.822995">
        <ele>681.0</ele>
        <time>2012-03-30T16:23:15Z</time>
      </trkpt>
      <trkpt lat="46.567895" lon="6.822597">
        <ele>681.0</ele>
        <time>2012-03-30T16:23:19Z</time>
      </trkpt>
      <trkpt lat="46.567916" lon="6.822221">
        <ele>680.0</ele>
        <time>2012-03-30T16:23:23Z</time>
      </trkpt>
      <trkpt lat="46.567765" lon="6.82193">
        <ele>678.0</ele>
        <time>2012-03-30T16:23:27Z</time>
      </trkpt>
      <trkpt lat="46.567558" lon="6.821711">
        <ele>677.0</ele>
        <time>2012-03-30T16:23:31Z</time>
      </trkpt>
      <trkpt lat="46.567393" lon="6.821582">
        <ele>677.0</ele>
        <time>2012-03-30T16:23:34Z</time>
      </trkpt>
      <trkpt lat="46.567171" lon="6.821454">
        <ele>677.0</ele>
        <time>2012-03-30T16:23:38Z</time>
      </trkpt>
      <trkpt lat="46.566956" lon="6.821383">
        <ele>676.0</ele>
        <time>2012-03-30T16:23:42Z</time>
      </trkpt>
      <trkpt lat="46.566759" lon="6.821329">
        <ele>676.0</ele>
        <time>2012-03-30T16:23:46Z</time>
      </trkpt>
      <trkpt lat="46.566561" lon="6.82127">
        <ele>676.0</ele>
        <time>2012-03-30T16:23:51Z</time>
      </trkpt>
      <trkpt lat="46.566043" lon="6.821007">
        <ele>679.0</ele>
        <time>2012-03-30T16:23:59Z</time>
      </trkpt>
      <trkpt lat="46.565861" lon="6.820876">
        <ele>679.0</ele>
        <time>2012-03-30T16:24:04Z</time>
      </trkpt>
      <trkpt lat="46.565575" lon="6.820568">
        <ele>679.0</ele>
        <time>2012-03-30T16:24:07Z</time>
      </trkpt>
      <trkpt lat="46.565358" lon="6.820269">
        <ele>679.0</ele>
        <time>2012-03-30T16:24:11Z</time>
      </trkpt>
      <trkpt lat="46.565133" lon="6.820032">
        <ele>679.0</ele>
        <time>2012-03-30T16:24:15Z</time>
      </trkpt>
      <trkpt lat="46.564916" lon="6.819841">
        <ele>678.0</ele>
        <time>2012-03-30T16:24:19Z</time>
      </trkpt>
      <trkpt lat="46.564699" lon="6.819682">
        <ele>677.0</ele>
        <time>2012-03-30T16:24:23Z</time>
      </trkpt>
      <trkpt lat="46.56447" lon="6.81957">
        <ele>676.0</ele>
        <time>2012-03-30T16:24:27Z</time>
      </trkpt>
      <trkpt lat="46.564227" lon="6.819544">
        <ele>676.0</ele>
        <time>2012-03-30T16:24:31Z</time>
      </trkpt>
      <trkpt lat="46.563992" lon="6.819538">
        <ele>676.0</ele>
        <time>2012-03-30T16:24:35Z</time>
      </trkpt>
      <trkpt lat="46.56378" lon="6.819603">
        <ele>676.0</ele>
        <time>2012-03-30T16:24:39Z</time>
      </trkpt>
      <trkpt lat="46.563636" lon="6.819781">
        <ele>676.0</ele>
        <time>2012-03-30T16:24:43Z</time>
      </trkpt>
      <trkpt lat="46.563583" lon="6.81989">
        <ele>677.0</ele>
        <time>2012-03-30T16:24:45Z</time>
      </trkpt>
      <trkpt lat="46.563456" lon="6.820236">
        <ele>677.0</ele>
        <time>2012-03-30T16:24:51Z</time>
      </trkpt>
      <trkpt lat="46.563359" lon="6.820422">
        <ele>677.0</ele>
        <time>2012-03-30T16:24:55Z</time>
      </trkpt>
      <trkpt lat="46.563214" lon="6.820492">
        <ele>677.0</ele>
        <time>2012-03-30T16:24:59Z</time>
      </trkpt>
      <trkpt lat="46.563053" lon="6.820446">
        <ele>677.0</ele>
        <time>2012-03-30T16:25:03Z</time>
      </trkpt>
      <trkpt lat="46.562894" lon="6.820362">
        <ele>677.0</ele>
        <time>2012-03-30T16:25:07Z</time>
      </trkpt>
      <trkpt lat="46.562727" lon="6.820261">
        <ele>677.0</ele>
        <time>2012-03-30T16:25:11Z</time>
      </trkpt>
      <trkpt lat="46.562555" lon="6.820176">
        <ele>677.0</ele>
        <time>2012-03-30T16:25:15Z</time>
      </trkpt>
      <trkpt lat="46.562376" lon="6.820105">
        <ele>676.0</ele>
        <time>2012-03-30T16:25:19Z</time>
      </trkpt>
      <trkpt lat="46.562207" lon="6.820039">
        <ele>676.0</ele>
        <time>2012-03-30T16:25:23Z</time>
      </trkpt>
      <trkpt lat="46.562043" lon="6.819958">
        <ele>676.0</ele>
        <time>2012-03-30T16:25:27Z</time>
      </trkpt>
      <trkpt lat="46.561881" lon="6.819904">
        <ele>676.0</ele>
        <time>2012-03-30T16:25:31Z</time>
      </trkpt>
      <trkpt lat="46.561738" lon="6.819882">
        <ele>676.0</ele>
        <time>2012-03-30T16:25:35Z</time>
      </trkpt>
      <trkpt lat="46.561603" lon="6.819875">
        <ele>676.0</ele>
        <time>2012-03-30T16:25:39Z</time>
      </trkpt>
      <trkpt lat="46.561467" lon="6.819869">
        <ele>676.0</ele>
        <time>2012-03-30T16:25:43Z</time>
      </trkpt>
      <trkpt lat="46.561325" lon="6.81986">
        <ele>676.0</ele>
        <time>2012-03-30T16:25:47Z</time>
      </trkpt>
      <trkpt lat="46.561184" lon="6.819866">
        <ele>677.0</ele>
        <time>2012-03-30T16:25:51Z</time>
      </trkpt>
      <trkpt lat="46.56105" lon="6.81989">
        <ele>677.0</ele>
        <time>2012-03-30T16:25:55Z</time>
      </trkpt>
      <trkpt lat="46.560957" lon="6.819909">
        <ele>677.0</ele>
        <time>2012-03-30T16:25:58Z</time>
      </trkpt>
      <trkpt lat="46.560868" lon="6.819924">
        <ele>677.0</ele>
        <time>2012-03-30T16:26:01Z</time>
      </trkpt>
      <trkpt lat="46.560689" lon="6.819952">
        <ele>677.0</ele>
        <time>2012-03-30T16:26:07Z</time>
      </trkpt>
      <trkpt lat="46.560607" lon="6.819951">
        <ele>678.0</ele>
        <time>2012-03-30T16:26:10Z</time>
      </trkpt>
      <trkpt lat="46.560533" lon="6.819942">
        <ele>678.0</ele>
        <time>2012-03-30T16:26:13Z</time>
      </trkpt>
      <trkpt lat="46.560372" lon="6.819926">
        <ele>678.0</ele>
        <time>2012-03-30T16:26:19Z</time>
      </trkpt>
      <trkpt lat="46.56029" lon="6.819907">
        <ele>679.0</ele>
        <time>2012-03-30T16:26:22Z</time>
      </trkpt>
      <trkpt lat="46.560208" lon="6.819886">
        <ele>679.0</ele>
        <time>2012-03-30T16:26:25Z</time>
      </trkpt>
      <trkpt lat="46.560039" lon="6.819835">
        <ele>679.0</ele>
        <time>2012-03-30T16:26:31Z</time>
      </trkpt>
      <trkpt lat="46.559952" lon="6.819812">
        <ele>680.0</ele>
        <time>2012-03-30T16:26:34Z</time>
      </trkpt>
      <trkpt lat="46.559708" lon="6.819827">
        <ele>680.0</ele>
        <time>2012-03-30T16:26:42Z</time>
      </trkpt>
      <trkpt lat="46.559558" lon="6.819906">
        <ele>680.0</ele>
        <time>2012-03-30T16:26:47Z</time>
      </trkpt>
      <trkpt lat="46.559422" lon="6.81998">
        <ele>681.0</ele>
        <time>2012-03-30T16:26:51Z</time>
      </trkpt>
      <trkpt lat="46.559231" lon="6.820063">
        <ele>683.0</ele>
        <time>2012-03-30T16:26:55Z</time>
      </trkpt>
      <trkpt lat="46.55897" lon="6.82014">
        <ele>685.0</ele>
        <time>2012-03-30T16:26:59Z</time>
      </trkpt>
      <trkpt lat="46.558695" lon="6.820288">
        <ele>685.0</ele>
        <time>2012-03-30T16:27:03Z</time>
      </trkpt>
      <trkpt lat="46.558394" lon="6.820379">
        <ele>685.0</ele>
        <time>2012-03-30T16:27:07Z</time>
      </trkpt>
      <trkpt lat="46.558174" lon="6.820185">
        <ele>684.0</ele>
        <time>2012-03-30T16:27:14Z</time>
      </trkpt>
      <trkpt lat="46.558124" lon="6.820086">
        <ele>684.0</ele>
        <time>2012-03-30T16:27:17Z</time>
      </trkpt>
      <trkpt lat="46.558004" lon="6.819741">
        <ele>684.0</ele>
        <time>2012-03-30T16:27:27Z</time>
      </trkpt>
      <trkpt lat="46.557989" lon="6.819618">
        <ele>684.0</ele>
        <time>2012-03-30T16:27:29Z</time>
      </trkpt>
      <trkpt lat="46.557958" lon="6.819275">
        <ele>684.0</ele>
        <time>2012-03-30T16:27:38Z</time>
      </trkpt>
      <trkpt lat="46.557935" lon="6.819102">
        <ele>683.0</ele>
        <time>2012-03-30T16:28:02Z</time>
      </trkpt>
      <trkpt lat="46.55788" lon="6.818948">
        <ele>683.0</ele>
        <time>2012-03-30T16:28:05Z</time>
      </trkpt>
      <trkpt lat="46.557756" lon="6.818912">
        <ele>682.0</ele>
        <time>2012-03-30T16:28:10Z</time>
      </trkpt>
      <trkpt lat="46.557556" lon="6.819004">
        <ele>681.0</ele>
        <time>2012-03-30T16:28:14Z</time>
      </trkpt>
      <trkpt lat="46.557352" lon="6.819131">
        <ele>680.0</ele>
        <time>2012-03-30T16:28:18Z</time>
      </trkpt>
      <trkpt lat="46.557259" lon="6.819186">
        <ele>680.0</ele>
        <time>2012-03-30T16:28:20Z</time>
      </trkpt>
      <trkpt lat="46.5569" lon="6.819302">
        <ele>680.0</ele>
        <time>2012-03-30T16:28:27Z</time>
      </trkpt>
      <trkpt lat="46.556642" lon="6.819306">
        <ele>679.0</ele>
        <time>2012-03-30T16:28:31Z</time>
      </trkpt>
      <trkpt lat="46.556454" lon="6.819242">
        <ele>679.0</ele>
        <time>2012-03-30T16:28:34Z</time>
      </trkpt>
      <trkpt lat="46.556323" lon="6.819105">
        <ele>678.0</ele>
        <time>2012-03-30T16:28:38Z</time>
      </trkpt>
      <trkpt lat="46.556266" lon="6.819008">
        <ele>678.0</ele>
        <time>2012-03-30T16:28:42Z</time>
      </trkpt>
      <trkpt lat="46.556212" lon="6.818916">
        <ele>678.0</ele>
        <time>2012-03-30T16:28:45Z</time>
      </trkpt>
      <trkpt lat="46.556161" lon="6.818829">
        <ele>678.0</ele>
        <time>2012-03-30T16:28:48Z</time>
      </trkpt>
      <trkpt lat="46.556042" lon="6.818711">
        <ele>678.0</ele>
        <time>2012-03-30T16:28:55Z</time>
      </trkpt>
      <trkpt lat="46.55596" lon="6.818643">
        <ele>677.0</ele>
        <time>2012-03-30T16:28:58Z</time>
      </trkpt>
      <trkpt lat="46.555858" lon="6.818472">
        <ele>677.0</ele>
        <time>2012-03-30T16:29:03Z</time>
      </trkpt>
      <trkpt lat="46.555809" lon="6.818367">
        <ele>677.0</ele>
        <time>2012-03-30T16:29:06Z</time>
      </trkpt>
      <trkpt lat="46.555758" lon="6.818266">
        <ele>677.0</ele>
        <time>2012-03-30T16:29:09Z</time>
      </trkpt>
      <trkpt lat="46.555639" lon="6.818099">
        <ele>677.0</ele>
        <time>2012-03-30T16:29:14Z</time>
      </trkpt>
      <trkpt lat="46.555514" lon="6.817958">
        <ele>677.0</ele>
        <time>2012-03-30T16:29:19Z</time>
      </trkpt>
      <trkpt lat="46.555437" lon="6.817892">
        <ele>677.0</ele>
        <time>2012-03-30T16:29:22Z</time>
      </trkpt>
      <trkpt lat="46.555364" lon="6.817829">
        <ele>677.0</ele>
        <time>2012-03-30T16:29:25Z</time>
      </trkpt>
      <trkpt lat="46.555296" lon="6.817778">
        <ele>677.0</ele>
        <time>2012-03-30T16:29:28Z</time>
      </trkpt>
      <trkpt lat="46.555241" lon="6.817727">
        <ele>677.0</ele>
        <time>2012-03-30T16:29:32Z</time>
      </trkpt>
      <trkpt lat="46.555169" lon="6.817543">
        <ele>678.0</ele>
        <time>2012-03-30T16:29:39Z</time>
      </trkpt>
      <trkpt lat="46.555154" lon="6.817435">
        <ele>678.0</ele>
        <time>2012-03-30T16:29:42Z</time>
      </trkpt>
      <trkpt lat="46.555084" lon="6.817017">
        <ele>678.0</ele>
        <time>2012-03-30T16:29:54Z</time>
      </trkpt>
      <trkpt lat="46.555048" lon="6.8168">
        <ele>678.0</ele>
        <time>2012-03-30T16:30:00Z</time>
      </trkpt>
      <trkpt lat="46.555" lon="6.81657">
        <ele>679.0</ele>
        <time>2012-03-30T16:30:07Z</time>
      </trkpt>
      <trkpt lat="46.554973" lon="6.81646">
        <ele>679.0</ele>
        <time>2012-03-30T16:30:10Z</time>
      </trkpt>
      <trkpt lat="46.55494" lon="6.816355">
        <ele>679.0</ele>
        <time>2012-03-30T16:30:13Z</time>
      </trkpt>
      <trkpt lat="46.554897" lon="6.816262">
        <ele>680.0</ele>
        <time>2012-03-30T16:30:16Z</time>
      </trkpt>
      <trkpt lat="46.554841" lon="6.816048">
        <ele>680.0</ele>
        <time>2012-03-30T16:30:22Z</time>
      </trkpt>
      <trkpt lat="46.554799" lon="6.81594">
        <ele>681.0</ele>
        <time>2012-03-30T16:30:25Z</time>
      </trkpt>
      <trkpt lat="46.554701" lon="6.815733">
        <ele>681.0</ele>
        <time>2012-03-30T16:30:31Z</time>
      </trkpt>
      <trkpt lat="46.55457" lon="6.815476">
        <ele>681.0</ele>
        <time>2012-03-30T16:30:38Z</time>
      </trkpt>
      <trkpt lat="46.554399" lon="6.815177">
        <ele>682.0</ele>
        <time>2012-03-30T16:30:46Z</time>
      </trkpt>
      <trkpt lat="46.554346" lon="6.815098">
        <ele>682.0</ele>
        <time>2012-03-30T16:30:49Z</time>
      </trkpt>
      <trkpt lat="46.554168" lon="6.814858">
        <ele>684.0</ele>
        <time>2012-03-30T16:30:54Z</time>
      </trkpt>
      <trkpt lat="46.554041" lon="6.814698">
        <ele>686.0</ele>
        <time>2012-03-30T16:30:58Z</time>
      </trkpt>
      <trkpt lat="46.553917" lon="6.814537">
        <ele>687.0</ele>
        <time>2012-03-30T16:31:02Z</time>
      </trkpt>
      <trkpt lat="46.553785" lon="6.814373">
        <ele>688.0</ele>
        <time>2012-03-30T16:31:06Z</time>
      </trkpt>
      <trkpt lat="46.553652" lon="6.814199">
        <ele>689.0</ele>
        <time>2012-03-30T16:31:10Z</time>
      </trkpt>
      <trkpt lat="46.55355" lon="6.813974">
        <ele>690.0</ele>
        <time>2012-03-30T16:31:14Z</time>
      </trkpt>
      <trkpt lat="46.553566" lon="6.813674">
        <ele>691.0</ele>
        <time>2012-03-30T16:31:18Z</time>
      </trkpt>
      <trkpt lat="46.553672" lon="6.813374">
        <ele>692.0</ele>
        <time>2012-03-30T16:31:22Z</time>
      </trkpt>
      <trkpt lat="46.553801" lon="6.813081">
        <ele>692.0</ele>
        <time>2012-03-30T16:31:26Z</time>
      </trkpt>
      <trkpt lat="46.553931" lon="6.812792">
        <ele>693.0</ele>
        <time>2012-03-30T16:31:30Z</time>
      </trkpt>
      <trkpt lat="46.554057" lon="6.812523">
        <ele>693.0</ele>
        <time>2012-03-30T16:31:34Z</time>
      </trkpt>
      <trkpt lat="46.55417" lon="6.812266">
        <ele>693.0</ele>
        <time>2012-03-30T16:31:38Z</time>
      </trkpt>
      <trkpt lat="46.554255" lon="6.812039">
        <ele>693.0</ele>
        <time>2012-03-30T16:31:42Z</time>
      </trkpt>
      <trkpt lat="46.554235" lon="6.811863">
        <ele>694.0</ele>
        <time>2012-03-30T16:31:46Z</time>
      </trkpt>
      <trkpt lat="46.554097" lon="6.811821">
        <ele>694.0</ele>
        <time>2012-03-30T16:31:50Z</time>
      </trkpt>
      <trkpt lat="46.553942" lon="6.811809">
        <ele>694.0</ele>
        <time>2012-03-30T16:31:54Z</time>
      </trkpt>
      <trkpt lat="46.553768" lon="6.811788">
        <ele>695.0</ele>
        <time>2012-03-30T16:31:58Z</time>
      </trkpt>
      <trkpt lat="46.553592" lon="6.811762">
        <ele>695.0</ele>
        <time>2012-03-30T16:32:02Z</time>
      </trkpt>
      <trkpt lat="46.553412" lon="6.811717">
        <ele>696.0</ele>
        <time>2012-03-30T16:32:06Z</time>
      </trkpt>
      <trkpt lat="46.55324" lon="6.811626">
        <ele>696.0</ele>
        <time>2012-03-30T16:32:10Z</time>
      </trkpt>
      <trkpt lat="46.553157" lon="6.811412">
        <ele>697.0</ele>
        <time>2012-03-30T16:32:14Z</time>
      </trkpt>
      <trkpt lat="46.553088" lon="6.811181">
        <ele>697.0</ele>
        <time>2012-03-30T16:32:18Z</time>
      </trkpt>
      <trkpt lat="46.553011" lon="6.810947">
        <ele>697.0</ele>
        <time>2012-03-30T16:32:22Z</time>
      </trkpt>
      <trkpt lat="46.552909" lon="6.810716">
        <ele>697.0</ele>
        <time>2012-03-30T16:32:26Z</time>
      </trkpt>
      <trkpt lat="46.552669" lon="6.810262">
        <ele>697.0</ele>
        <time>2012-03-30T16:32:34Z</time>
      </trkpt>
      <trkpt lat="46.552553" lon="6.810058">
        <ele>697.0</ele>
        <time>2012-03-30T16:32:38Z</time>
      </trkpt>
      <trkpt lat="46.552403" lon="6.809822">
        <ele>697.0</ele>
        <time>2012-03-30T16:32:43Z</time>
      </trkpt>
      <trkpt lat="46.552339" lon="6.809733">
        <ele>697.0</ele>
        <time>2012-03-30T16:32:46Z</time>
      </trkpt>
      <trkpt lat="46.552165" lon="6.80948">
        <ele>697.0</ele>
        <time>2012-03-30T16:32:51Z</time>
      </trkpt>
      <trkpt lat="46.552107" lon="6.809412">
        <ele>697.0</ele>
        <time>2012-03-30T16:32:54Z</time>
      </trkpt>
      <trkpt lat="46.551937" lon="6.809204">
        <ele>697.0</ele>
        <time>2012-03-30T16:33:00Z</time>
      </trkpt>
      <trkpt lat="46.551709" lon="6.808879">
        <ele>697.0</ele>
        <time>2012-03-30T16:33:10Z</time>
      </trkpt>
      <trkpt lat="46.551634" lon="6.808696">
        <ele>697.0</ele>
        <time>2012-03-30T16:33:14Z</time>
      </trkpt>
      <trkpt lat="46.551544" lon="6.808494">
        <ele>697.0</ele>
        <time>2012-03-30T16:33:18Z</time>
      </trkpt>
      <trkpt lat="46.551442" lon="6.808291">
        <ele>697.0</ele>
        <time>2012-03-30T16:33:22Z</time>
      </trkpt>
      <trkpt lat="46.551333" lon="6.808101">
        <ele>697.0</ele>
        <time>2012-03-30T16:33:26Z</time>
      </trkpt>
      <trkpt lat="46.551235" lon="6.807928">
        <ele>697.0</ele>
        <time>2012-03-30T16:33:30Z</time>
      </trkpt>
      <trkpt lat="46.551132" lon="6.807781">
        <ele>697.0</ele>
        <time>2012-03-30T16:33:34Z</time>
      </trkpt>
      <trkpt lat="46.551003" lon="6.807677">
        <ele>697.0</ele>
        <time>2012-03-30T16:33:38Z</time>
      </trkpt>
      <trkpt lat="46.55085" lon="6.807543">
        <ele>696.0</ele>
        <time>2012-03-30T16:33:42Z</time>
      </trkpt>
      <trkpt lat="46.550707" lon="6.807386">
        <ele>696.0</ele>
        <time>2012-03-30T16:33:46Z</time>
      </trkpt>
      <trkpt lat="46.550637" lon="6.807299">
        <ele>696.0</ele>
        <time>2012-03-30T16:33:48Z</time>
      </trkpt>
      <trkpt lat="46.550517" lon="6.807114">
        <ele>696.0</ele>
        <time>2012-03-30T16:33:52Z</time>
      </trkpt>
      <trkpt lat="46.550343" lon="6.806731">
        <ele>698.0</ele>
        <time>2012-03-30T16:33:58Z</time>
      </trkpt>
      <trkpt lat="46.550181" lon="6.806351">
        <ele>699.0</ele>
        <time>2012-03-30T16:34:03Z</time>
      </trkpt>
      <trkpt lat="46.549977" lon="6.805965">
        <ele>699.0</ele>
        <time>2012-03-30T16:34:07Z</time>
      </trkpt>
      <trkpt lat="46.549752" lon="6.805546">
        <ele>700.0</ele>
        <time>2012-03-30T16:34:11Z</time>
      </trkpt>
      <trkpt lat="46.549512" lon="6.805134">
        <ele>699.0</ele>
        <time>2012-03-30T16:34:15Z</time>
      </trkpt>
      <trkpt lat="46.549259" lon="6.804716">
        <ele>699.0</ele>
        <time>2012-03-30T16:34:19Z</time>
      </trkpt>
      <trkpt lat="46.549015" lon="6.804363">
        <ele>699.0</ele>
        <time>2012-03-30T16:34:23Z</time>
      </trkpt>
      <trkpt lat="46.548763" lon="6.804162">
        <ele>698.0</ele>
        <time>2012-03-30T16:34:27Z</time>
      </trkpt>
      <trkpt lat="46.548586" lon="6.804073">
        <ele>698.0</ele>
        <time>2012-03-30T16:34:30Z</time>
      </trkpt>
      <trkpt lat="46.548403" lon="6.80399">
        <ele>698.0</ele>
        <time>2012-03-30T16:34:34Z</time>
      </trkpt>
      <trkpt lat="46.548224" lon="6.803899">
        <ele>698.0</ele>
        <time>2012-03-30T16:34:38Z</time>
      </trkpt>
      <trkpt lat="46.548078" lon="6.803817">
        <ele>698.0</ele>
        <time>2012-03-30T16:34:42Z</time>
      </trkpt>
      <trkpt lat="46.547961" lon="6.80371">
        <ele>698.0</ele>
        <time>2012-03-30T16:34:46Z</time>
      </trkpt>
      <trkpt lat="46.547833" lon="6.803568">
        <ele>698.0</ele>
        <time>2012-03-30T16:34:51Z</time>
      </trkpt>
      <trkpt lat="46.547678" lon="6.80347">
        <ele>698.0</ele>
        <time>2012-03-30T16:34:55Z</time>
      </trkpt>
      <trkpt lat="46.547384" lon="6.803398">
        <ele>699.0</ele>
        <time>2012-03-30T16:35:03Z</time>
      </trkpt>
      <trkpt lat="46.547296" lon="6.803359">
        <ele>699.0</ele>
        <time>2012-03-30T16:35:05Z</time>
      </trkpt>
      <trkpt lat="46.547045" lon="6.803215">
        <ele>699.0</ele>
        <time>2012-03-30T16:35:11Z</time>
      </trkpt>
      <trkpt lat="46.546983" lon="6.803171">
        <ele>699.0</ele>
        <time>2012-03-30T16:35:13Z</time>
      </trkpt>
      <trkpt lat="46.546829" lon="6.803074">
        <ele>699.0</ele>
        <time>2012-03-30T16:35:19Z</time>
      </trkpt>
      <trkpt lat="46.546757" lon="6.80302">
        <ele>699.0</ele>
        <time>2012-03-30T16:35:22Z</time>
      </trkpt>
      <trkpt lat="46.546617" lon="6.802887">
        <ele>699.0</ele>
        <time>2012-03-30T16:35:26Z</time>
      </trkpt>
      <trkpt lat="46.546492" lon="6.802751">
        <ele>699.0</ele>
        <time>2012-03-30T16:35:30Z</time>
      </trkpt>
      <trkpt lat="46.5463" lon="6.802451">
        <ele>700.0</ele>
        <time>2012-03-30T16:35:38Z</time>
      </trkpt>
      <trkpt lat="46.546228" lon="6.802279">
        <ele>701.0</ele>
        <time>2012-03-30T16:35:42Z</time>
      </trkpt>
      <trkpt lat="46.546161" lon="6.80211">
        <ele>702.0</ele>
        <time>2012-03-30T16:35:46Z</time>
      </trkpt>
      <trkpt lat="46.546099" lon="6.80194">
        <ele>703.0</ele>
        <time>2012-03-30T16:35:50Z</time>
      </trkpt>
      <trkpt lat="46.546047" lon="6.801721">
        <ele>704.0</ele>
        <time>2012-03-30T16:35:55Z</time>
      </trkpt>
      <trkpt lat="46.546036" lon="6.801622">
        <ele>704.0</ele>
        <time>2012-03-30T16:35:57Z</time>
      </trkpt>
      <trkpt lat="46.545999" lon="6.801365">
        <ele>705.0</ele>
        <time>2012-03-30T16:36:03Z</time>
      </trkpt>
      <trkpt lat="46.545982" lon="6.801274">
        <ele>705.0</ele>
        <time>2012-03-30T16:36:05Z</time>
      </trkpt>
      <trkpt lat="46.545859" lon="6.801021">
        <ele>706.0</ele>
        <time>2012-03-30T16:36:11Z</time>
      </trkpt>
      <trkpt lat="46.545757" lon="6.800884">
        <ele>707.0</ele>
        <time>2012-03-30T16:36:15Z</time>
      </trkpt>
      <trkpt lat="46.545656" lon="6.800754">
        <ele>707.0</ele>
        <time>2012-03-30T16:36:19Z</time>
      </trkpt>
      <trkpt lat="46.545551" lon="6.800637">
        <ele>707.0</ele>
        <time>2012-03-30T16:36:23Z</time>
      </trkpt>
      <trkpt lat="46.545362" lon="6.800414">
        <ele>708.0</ele>
        <time>2012-03-30T16:36:31Z</time>
      </trkpt>
      <trkpt lat="46.5453" lon="6.800323">
        <ele>708.0</ele>
        <time>2012-03-30T16:36:34Z</time>
      </trkpt>
      <trkpt lat="46.545181" lon="6.800166">
        <ele>709.0</ele>
        <time>2012-03-30T16:36:39Z</time>
      </trkpt>
      <trkpt lat="46.545076" lon="6.80005">
        <ele>709.0</ele>
        <time>2012-03-30T16:36:43Z</time>
      </trkpt>
      <trkpt lat="46.54492" lon="6.799869">
        <ele>709.0</ele>
        <time>2012-03-30T16:36:51Z</time>
      </trkpt>
      <trkpt lat="46.54487" lon="6.799813">
        <ele>709.0</ele>
        <time>2012-03-30T16:36:53Z</time>
      </trkpt>
      <trkpt lat="46.544731" lon="6.799668">
        <ele>709.0</ele>
        <time>2012-03-30T16:36:59Z</time>
      </trkpt>
      <trkpt lat="46.544586" lon="6.799524">
        <ele>708.0</ele>
        <time>2012-03-30T16:37:03Z</time>
      </trkpt>
      <trkpt lat="46.54446" lon="6.799409">
        <ele>707.0</ele>
        <time>2012-03-30T16:37:07Z</time>
      </trkpt>
      <trkpt lat="46.544323" lon="6.79927">
        <ele>708.0</ele>
        <time>2012-03-30T16:37:14Z</time>
      </trkpt>
      <trkpt lat="46.544203" lon="6.799155">
        <ele>708.0</ele>
        <time>2012-03-30T16:37:18Z</time>
      </trkpt>
      <trkpt lat="46.544041" lon="6.799007">
        <ele>708.0</ele>
        <time>2012-03-30T16:37:22Z</time>
      </trkpt>
      <trkpt lat="46.543871" lon="6.798814">
        <ele>708.0</ele>
        <time>2012-03-30T16:37:26Z</time>
      </trkpt>
      <trkpt lat="46.543731" lon="6.798615">
        <ele>709.0</ele>
        <time>2012-03-30T16:37:30Z</time>
      </trkpt>
      <trkpt lat="46.543594" lon="6.798401">
        <ele>710.0</ele>
        <time>2012-03-30T16:37:34Z</time>
      </trkpt>
      <trkpt lat="46.543475" lon="6.798193">
        <ele>711.0</ele>
        <time>2012-03-30T16:37:38Z</time>
      </trkpt>
      <trkpt lat="46.543365" lon="6.798044">
        <ele>712.0</ele>
        <time>2012-03-30T16:37:42Z</time>
      </trkpt>
      <trkpt lat="46.543245" lon="6.797914">
        <ele>713.0</ele>
        <time>2012-03-30T16:37:46Z</time>
      </trkpt>
      <trkpt lat="46.543128" lon="6.797722">
        <ele>717.0</ele>
        <time>2012-03-30T16:37:50Z</time>
      </trkpt>
      <trkpt lat="46.543" lon="6.797517">
        <ele>720.0</ele>
        <time>2012-03-30T16:37:54Z</time>
      </trkpt>
      <trkpt lat="46.542843" lon="6.797356">
        <ele>721.0</ele>
        <time>2012-03-30T16:37:58Z</time>
      </trkpt>
      <trkpt lat="46.542693" lon="6.797185">
        <ele>722.0</ele>
        <time>2012-03-30T16:38:02Z</time>
      </trkpt>
      <trkpt lat="46.542541" lon="6.797011">
        <ele>723.0</ele>
        <time>2012-03-30T16:38:06Z</time>
      </trkpt>
      <trkpt lat="46.54241" lon="6.796831">
        <ele>724.0</ele>
        <time>2012-03-30T16:38:10Z</time>
      </trkpt>
      <trkpt lat="46.542281" lon="6.796642">
        <ele>723.0</ele>
        <time>2012-03-30T16:38:14Z</time>
      </trkpt>
      <trkpt lat="46.542155" lon="6.796442">
        <ele>723.0</ele>
        <time>2012-03-30T16:38:18Z</time>
      </trkpt>
      <trkpt lat="46.542036" lon="6.79626">
        <ele>722.0</ele>
        <time>2012-03-30T16:38:22Z</time>
      </trkpt>
      <trkpt lat="46.541916" lon="6.796095">
        <ele>721.0</ele>
        <time>2012-03-30T16:38:26Z</time>
      </trkpt>
      <trkpt lat="46.541765" lon="6.795918">
        <ele>721.0</ele>
        <time>2012-03-30T16:38:30Z</time>
      </trkpt>
      <trkpt lat="46.541552" lon="6.795731">
        <ele>720.0</ele>
        <time>2012-03-30T16:38:34Z</time>
      </trkpt>
      <trkpt lat="46.541363" lon="6.795581">
        <ele>720.0</ele>
        <time>2012-03-30T16:38:38Z</time>
      </trkpt>
      <trkpt lat="46.541192" lon="6.79543">
        <ele>719.0</ele>
        <time>2012-03-30T16:38:42Z</time>
      </trkpt>
      <trkpt lat="46.541013" lon="6.79529">
        <ele>718.0</ele>
        <time>2012-03-30T16:38:46Z</time>
      </trkpt>
      <trkpt lat="46.540913" lon="6.795226">
        <ele>718.0</ele>
        <time>2012-03-30T16:38:48Z</time>
      </trkpt>
      <trkpt lat="46.540637" lon="6.795039">
        <ele>718.0</ele>
        <time>2012-03-30T16:38:54Z</time>
      </trkpt>
      <trkpt lat="46.540505" lon="6.794927">
        <ele>717.0</ele>
        <time>2012-03-30T16:38:58Z</time>
      </trkpt>
      <trkpt lat="46.540363" lon="6.794824">
        <ele>717.0</ele>
        <time>2012-03-30T16:39:02Z</time>
      </trkpt>
      <trkpt lat="46.54009" lon="6.794603">
        <ele>717.0</ele>
        <time>2012-03-30T16:39:07Z</time>
      </trkpt>
      <trkpt lat="46.53988" lon="6.794446">
        <ele>718.0</ele>
        <time>2012-03-30T16:39:11Z</time>
      </trkpt>
      <trkpt lat="46.539714" lon="6.794261">
        <ele>719.0</ele>
        <time>2012-03-30T16:39:15Z</time>
      </trkpt>
      <trkpt lat="46.53964" lon="6.794178">
        <ele>719.0</ele>
        <time>2012-03-30T16:39:17Z</time>
      </trkpt>
      <trkpt lat="46.53928" lon="6.793713">
        <ele>714.0</ele>
        <time>2012-03-30T16:39:27Z</time>
      </trkpt>
      <trkpt lat="46.539123" lon="6.793338">
        <ele>714.0</ele>
        <time>2012-03-30T16:39:31Z</time>
      </trkpt>
      <trkpt lat="46.539272" lon="6.792971">
        <ele>715.0</ele>
        <time>2012-03-30T16:39:35Z</time>
      </trkpt>
      <trkpt lat="46.539508" lon="6.792538">
        <ele>715.0</ele>
        <time>2012-03-30T16:39:39Z</time>
      </trkpt>
      <trkpt lat="46.539649" lon="6.792257">
        <ele>715.0</ele>
        <time>2012-03-30T16:39:42Z</time>
      </trkpt>
      <trkpt lat="46.539765" lon="6.792032">
        <ele>715.0</ele>
        <time>2012-03-30T16:39:46Z</time>
      </trkpt>
      <trkpt lat="46.539878" lon="6.791891">
        <ele>715.0</ele>
        <time>2012-03-30T16:39:51Z</time>
      </trkpt>
      <trkpt lat="46.540123" lon="6.791946">
        <ele>714.0</ele>
        <time>2012-03-30T16:39:58Z</time>
      </trkpt>
      <trkpt lat="46.540287" lon="6.791939">
        <ele>713.0</ele>
        <time>2012-03-30T16:40:02Z</time>
      </trkpt>
      <trkpt lat="46.540367" lon="6.791903">
        <ele>712.0</ele>
        <time>2012-03-30T16:40:04Z</time>
      </trkpt>
      <trkpt lat="46.54059" lon="6.791731">
        <ele>711.0</ele>
        <time>2012-03-30T16:40:10Z</time>
      </trkpt>
      <trkpt lat="46.540708" lon="6.79162">
        <ele>711.0</ele>
        <time>2012-03-30T16:40:14Z</time>
      </trkpt>
      <trkpt lat="46.540845" lon="6.791552">
        <ele>711.0</ele>
        <time>2012-03-30T16:40:19Z</time>
      </trkpt>
      <trkpt lat="46.540911" lon="6.791543">
        <ele>711.0</ele>
        <time>2012-03-30T16:40:22Z</time>
      </trkpt>
      <trkpt lat="46.541017" lon="6.791559">
        <ele>711.0</ele>
        <time>2012-03-30T16:40:27Z</time>
      </trkpt>
      <trkpt lat="46.541106" lon="6.79159">
        <ele>711.0</ele>
        <time>2012-03-30T16:40:30Z</time>
      </trkpt>
      <trkpt lat="46.541249" lon="6.791644">
        <ele>711.0</ele>
        <time>2012-03-30T16:40:34Z</time>
      </trkpt>
      <trkpt lat="46.541311" lon="6.791675">
        <ele>711.0</ele>
        <time>2012-03-30T16:40:36Z</time>
      </trkpt>
      <trkpt lat="46.54152" lon="6.791792">
        <ele>711.0</ele>
        <time>2012-03-30T16:40:42Z</time>
      </trkpt>
      <trkpt lat="46.541577" lon="6.791832">
        <ele>711.0</ele>
        <time>2012-03-30T16:40:44Z</time>
      </trkpt>
      <trkpt lat="46.54168" lon="6.791886">
        <ele>711.0</ele>
        <time>2012-03-30T16:40:48Z</time>
      </trkpt>
      <trkpt lat="46.541943" lon="6.791967">
        <ele>711.0</ele>
        <time>2012-03-30T16:41:00Z</time>
      </trkpt>
      <trkpt lat="46.542229" lon="6.792127">
        <ele>711.0</ele>
        <time>2012-03-30T16:41:14Z</time>
      </trkpt>
      <trkpt lat="46.542319" lon="6.792164">
        <ele>711.0</ele>
        <time>2012-03-30T16:41:18Z</time>
      </trkpt>
      <trkpt lat="46.542417" lon="6.792215">
        <ele>711.0</ele>
        <time>2012-03-30T16:41:22Z</time>
      </trkpt>
      <trkpt lat="46.542527" lon="6.79227">
        <ele>711.0</ele>
        <time>2012-03-30T16:41:26Z</time>
      </trkpt>
      <trkpt lat="46.542608" lon="6.792295">
        <ele>711.0</ele>
        <time>2012-03-30T16:41:29Z</time>
      </trkpt>
      <trkpt lat="46.542833" lon="6.792352">
        <ele>712.0</ele>
        <time>2012-03-30T16:41:38Z</time>
      </trkpt>
      <trkpt lat="46.543139" lon="6.792431">
        <ele>714.0</ele>
        <time>2012-03-30T16:41:55Z</time>
      </trkpt>
      <trkpt lat="46.543596" lon="6.792559">
        <ele>716.0</ele>
        <time>2012-03-30T16:42:14Z</time>
      </trkpt>
      <trkpt lat="46.543704" lon="6.792595">
        <ele>716.0</ele>
        <time>2012-03-30T16:42:19Z</time>
      </trkpt>
      <trkpt lat="46.543802" lon="6.792627">
        <ele>717.0</ele>
        <time>2012-03-30T16:42:23Z</time>
      </trkpt>
      <trkpt lat="46.543909" lon="6.792649">
        <ele>717.0</ele>
        <time>2012-03-30T16:42:27Z</time>
      </trkpt>
      <trkpt lat="46.544009" lon="6.7927">
        <ele>717.0</ele>
        <time>2012-03-30T16:42:31Z</time>
      </trkpt>
      <trkpt lat="46.544098" lon="6.792749">
        <ele>718.0</ele>
        <time>2012-03-30T16:42:36Z</time>
      </trkpt>
      <trkpt lat="46.544189" lon="6.792812">
        <ele>718.0</ele>
        <time>2012-03-30T16:42:41Z</time>
      </trkpt>
      <trkpt lat="46.544273" lon="6.79287">
        <ele>719.0</ele>
        <time>2012-03-30T16:42:49Z</time>
      </trkpt>
      <trkpt lat="46.54437" lon="6.792959">
        <ele>719.0</ele>
        <time>2012-03-30T16:42:53Z</time>
      </trkpt>
      <trkpt lat="46.544468" lon="6.793032">
        <ele>719.0</ele>
        <time>2012-03-30T16:42:57Z</time>
      </trkpt>
      <trkpt lat="46.54456" lon="6.793093">
        <ele>719.0</ele>
        <time>2012-03-30T16:43:02Z</time>
      </trkpt>
      <trkpt lat="46.544654" lon="6.793149">
        <ele>719.0</ele>
        <time>2012-03-30T16:43:07Z</time>
      </trkpt>
      <trkpt lat="46.544834" lon="6.793248">
        <ele>719.0</ele>
        <time>2012-03-30T16:43:16Z</time>
      </trkpt>
      <trkpt lat="46.544931" lon="6.793264">
        <ele>719.0</ele>
        <time>2012-03-30T16:43:21Z</time>
      </trkpt>
      <trkpt lat="46.545014" lon="6.79324">
        <ele>719.0</ele>
        <time>2012-03-30T16:43:28Z</time>
      </trkpt>
      <trkpt lat="46.545078" lon="6.793116">
        <ele>719.0</ele>
        <time>2012-03-30T16:43:34Z</time>
      </trkpt>
      <trkpt lat="46.545105" lon="6.793026">
        <ele>719.0</ele>
        <time>2012-03-30T16:43:37Z</time>
      </trkpt>
      <trkpt lat="46.545162" lon="6.792873">
        <ele>719.0</ele>
        <time>2012-03-30T16:43:45Z</time>
      </trkpt>
      <trkpt lat="46.54523" lon="6.79276">
        <ele>719.0</ele>
        <time>2012-03-30T16:43:51Z</time>
      </trkpt>
      <trkpt lat="46.545572" lon="6.792404">
        <ele>721.0</ele>
        <time>2012-03-30T16:44:10Z</time>
      </trkpt>
      <trkpt lat="46.545728" lon="6.792276">
        <ele>722.0</ele>
        <time>2012-03-30T16:44:14Z</time>
      </trkpt>
      <trkpt lat="46.545899" lon="6.792186">
        <ele>724.0</ele>
        <time>2012-03-30T16:44:18Z</time>
      </trkpt>
      <trkpt lat="46.546073" lon="6.792145">
        <ele>725.0</ele>
        <time>2012-03-30T16:44:22Z</time>
      </trkpt>
      <trkpt lat="46.546381" lon="6.792268">
        <ele>725.0</ele>
        <time>2012-03-30T16:44:27Z</time>
      </trkpt>
      <trkpt lat="46.546634" lon="6.792457">
        <ele>726.0</ele>
        <time>2012-03-30T16:44:31Z</time>
      </trkpt>
      <trkpt lat="46.546886" lon="6.792652">
        <ele>727.0</ele>
        <time>2012-03-30T16:44:35Z</time>
      </trkpt>
      <trkpt lat="46.547228" lon="6.792768">
        <ele>728.0</ele>
        <time>2012-03-30T16:44:39Z</time>
      </trkpt>
      <trkpt lat="46.547363" lon="6.792776">
        <ele>728.0</ele>
        <time>2012-03-30T16:44:41Z</time>
      </trkpt>
      <trkpt lat="46.547506" lon="6.792461">
        <ele>730.0</ele>
        <time>2012-03-30T16:44:47Z</time>
      </trkpt>
      <trkpt lat="46.547515" lon="6.792362">
        <ele>731.0</ele>
        <time>2012-03-30T16:44:49Z</time>
      </trkpt>
      <trkpt lat="46.547413" lon="6.792061">
        <ele>731.0</ele>
        <time>2012-03-30T16:44:58Z</time>
      </trkpt>
      <trkpt lat="46.547382" lon="6.791947">
        <ele>732.0</ele>
        <time>2012-03-30T16:45:01Z</time>
      </trkpt>
      <trkpt lat="46.547322" lon="6.791718">
        <ele>732.0</ele>
        <time>2012-03-30T16:45:07Z</time>
      </trkpt>
      <trkpt lat="46.547289" lon="6.791608">
        <ele>732.0</ele>
        <time>2012-03-30T16:45:10Z</time>
      </trkpt>
      <trkpt lat="46.547261" lon="6.791498">
        <ele>733.0</ele>
        <time>2012-03-30T16:45:13Z</time>
      </trkpt>
      <trkpt lat="46.547186" lon="6.791269">
        <ele>734.0</ele>
        <time>2012-03-30T16:45:19Z</time>
      </trkpt>
      <trkpt lat="46.547145" lon="6.791151">
        <ele>734.0</ele>
        <time>2012-03-30T16:45:22Z</time>
      </trkpt>
      <trkpt lat="46.547078" lon="6.790939">
        <ele>735.0</ele>
        <time>2012-03-30T16:45:26Z</time>
      </trkpt>
      <trkpt lat="46.547022" lon="6.790751">
        <ele>736.0</ele>
        <time>2012-03-30T16:45:30Z</time>
      </trkpt>
      <trkpt lat="46.546955" lon="6.790535">
        <ele>738.0</ele>
        <time>2012-03-30T16:45:34Z</time>
      </trkpt>
      <trkpt lat="46.546877" lon="6.79031">
        <ele>739.0</ele>
        <time>2012-03-30T16:45:38Z</time>
      </trkpt>
      <trkpt lat="46.546808" lon="6.790115">
        <ele>740.0</ele>
        <time>2012-03-30T16:45:42Z</time>
      </trkpt>
      <trkpt lat="46.546739" lon="6.789915">
        <ele>741.0</ele>
        <time>2012-03-30T16:45:46Z</time>
      </trkpt>
      <trkpt lat="46.546662" lon="6.789717">
        <ele>742.0</ele>
        <time>2012-03-30T16:45:50Z</time>
      </trkpt>
      <trkpt lat="46.546593" lon="6.789515">
        <ele>743.0</ele>
        <time>2012-03-30T16:45:54Z</time>
      </trkpt>
      <trkpt lat="46.54652" lon="6.789314">
        <ele>743.0</ele>
        <time>2012-03-30T16:45:58Z</time>
      </trkpt>
      <trkpt lat="46.546448" lon="6.789122">
        <ele>744.0</ele>
        <time>2012-03-30T16:46:02Z</time>
      </trkpt>
      <trkpt lat="46.546378" lon="6.788934">
        <ele>745.0</ele>
        <time>2012-03-30T16:46:06Z</time>
      </trkpt>
      <trkpt lat="46.546313" lon="6.788747">
        <ele>745.0</ele>
        <time>2012-03-30T16:46:10Z</time>
      </trkpt>
      <trkpt lat="46.546243" lon="6.788563">
        <ele>746.0</ele>
        <time>2012-03-30T16:46:14Z</time>
      </trkpt>
      <trkpt lat="46.546181" lon="6.788377">
        <ele>747.0</ele>
        <time>2012-03-30T16:46:18Z</time>
      </trkpt>
      <trkpt lat="46.546119" lon="6.788194">
        <ele>747.0</ele>
        <time>2012-03-30T16:46:22Z</time>
      </trkpt>
      <trkpt lat="46.54605" lon="6.788023">
        <ele>748.0</ele>
        <time>2012-03-30T16:46:26Z</time>
      </trkpt>
      <trkpt lat="46.545981" lon="6.787845">
        <ele>748.0</ele>
        <time>2012-03-30T16:46:30Z</time>
      </trkpt>
      <trkpt lat="46.545916" lon="6.78767">
        <ele>749.0</ele>
        <time>2012-03-30T16:46:34Z</time>
      </trkpt>
      <trkpt lat="46.545847" lon="6.787497">
        <ele>749.0</ele>
        <time>2012-03-30T16:46:38Z</time>
      </trkpt>
      <trkpt lat="46.545769" lon="6.787323">
        <ele>750.0</ele>
        <time>2012-03-30T16:46:42Z</time>
      </trkpt>
      <trkpt lat="46.545688" lon="6.787152">
        <ele>751.0</ele>
        <time>2012-03-30T16:46:46Z</time>
      </trkpt>
      <trkpt lat="46.545613" lon="6.786973">
        <ele>751.0</ele>
        <time>2012-03-30T16:46:50Z</time>
      </trkpt>
      <trkpt lat="46.545538" lon="6.786798">
        <ele>752.0</ele>
        <time>2012-03-30T16:46:54Z</time>
      </trkpt>
      <trkpt lat="46.545463" lon="6.786629">
        <ele>753.0</ele>
        <time>2012-03-30T16:46:58Z</time>
      </trkpt>
      <trkpt lat="46.545393" lon="6.786448">
        <ele>753.0</ele>
        <time>2012-03-30T16:47:02Z</time>
      </trkpt>
      <trkpt lat="46.545317" lon="6.786281">
        <ele>754.0</ele>
        <time>2012-03-30T16:47:06Z</time>
      </trkpt>
      <trkpt lat="46.545252" lon="6.786113">
        <ele>754.0</ele>
        <time>2012-03-30T16:47:10Z</time>
      </trkpt>
      <trkpt lat="46.545198" lon="6.785941">
        <ele>755.0</ele>
        <time>2012-03-30T16:47:14Z</time>
      </trkpt>
      <trkpt lat="46.545164" lon="6.785814">
        <ele>755.0</ele>
        <time>2012-03-30T16:47:17Z</time>
      </trkpt>
      <trkpt lat="46.545096" lon="6.785562">
        <ele>756.0</ele>
        <time>2012-03-30T16:47:23Z</time>
      </trkpt>
      <trkpt lat="46.545057" lon="6.78544">
        <ele>756.0</ele>
        <time>2012-03-30T16:47:26Z</time>
      </trkpt>
      <trkpt lat="46.545025" lon="6.785319">
        <ele>757.0</ele>
        <time>2012-03-30T16:47:29Z</time>
      </trkpt>
      <trkpt lat="46.544996" lon="6.785063">
        <ele>757.0</ele>
        <time>2012-03-30T16:47:35Z</time>
      </trkpt>
      <trkpt lat="46.545002" lon="6.784931">
        <ele>758.0</ele>
        <time>2012-03-30T16:47:38Z</time>
      </trkpt>
      <trkpt lat="46.545012" lon="6.784804">
        <ele>758.0</ele>
        <time>2012-03-30T16:47:41Z</time>
      </trkpt>
      <trkpt lat="46.545066" lon="6.784589">
        <ele>759.0</ele>
        <time>2012-03-30T16:47:47Z</time>
      </trkpt>
      <trkpt lat="46.545091" lon="6.784477">
        <ele>760.0</ele>
        <time>2012-03-30T16:47:50Z</time>
      </trkpt>
      <trkpt lat="46.545115" lon="6.784362">
        <ele>760.0</ele>
        <time>2012-03-30T16:47:53Z</time>
      </trkpt>
      <trkpt lat="46.545165" lon="6.784139">
        <ele>761.0</ele>
        <time>2012-03-30T16:47:59Z</time>
      </trkpt>
      <trkpt lat="46.545191" lon="6.784025">
        <ele>762.0</ele>
        <time>2012-03-30T16:48:02Z</time>
      </trkpt>
      <trkpt lat="46.545217" lon="6.783914">
        <ele>762.0</ele>
        <time>2012-03-30T16:48:05Z</time>
      </trkpt>
      <trkpt lat="46.545261" lon="6.783685">
        <ele>763.0</ele>
        <time>2012-03-30T16:48:11Z</time>
      </trkpt>
      <trkpt lat="46.545283" lon="6.783572">
        <ele>764.0</ele>
        <time>2012-03-30T16:48:14Z</time>
      </trkpt>
      <trkpt lat="46.545309" lon="6.783462">
        <ele>764.0</ele>
        <time>2012-03-30T16:48:17Z</time>
      </trkpt>
      <trkpt lat="46.545359" lon="6.783257">
        <ele>765.0</ele>
        <time>2012-03-30T16:48:23Z</time>
      </trkpt>
      <trkpt lat="46.545384" lon="6.783155">
        <ele>765.0</ele>
        <time>2012-03-30T16:48:26Z</time>
      </trkpt>
      <trkpt lat="46.545408" lon="6.783053">
        <ele>766.0</ele>
        <time>2012-03-30T16:48:29Z</time>
      </trkpt>
      <trkpt lat="46.545451" lon="6.782851">
        <ele>766.0</ele>
        <time>2012-03-30T16:48:35Z</time>
      </trkpt>
      <trkpt lat="46.545475" lon="6.782751">
        <ele>767.0</ele>
        <time>2012-03-30T16:48:38Z</time>
      </trkpt>
      <trkpt lat="46.545497" lon="6.782645">
        <ele>767.0</ele>
        <time>2012-03-30T16:48:41Z</time>
      </trkpt>
      <trkpt lat="46.545538" lon="6.782436">
        <ele>768.0</ele>
        <time>2012-03-30T16:48:47Z</time>
      </trkpt>
      <trkpt lat="46.545557" lon="6.782329">
        <ele>768.0</ele>
        <time>2012-03-30T16:48:50Z</time>
      </trkpt>
      <trkpt lat="46.545566" lon="6.782228">
        <ele>769.0</ele>
        <time>2012-03-30T16:48:53Z</time>
      </trkpt>
      <trkpt lat="46.545574" lon="6.782021">
        <ele>770.0</ele>
        <time>2012-03-30T16:48:59Z</time>
      </trkpt>
      <trkpt lat="46.545569" lon="6.781916">
        <ele>770.0</ele>
        <time>2012-03-30T16:49:02Z</time>
      </trkpt>
      <trkpt lat="46.545553" lon="6.781815">
        <ele>771.0</ele>
        <time>2012-03-30T16:49:05Z</time>
      </trkpt>
      <trkpt lat="46.545515" lon="6.78161">
        <ele>772.0</ele>
        <time>2012-03-30T16:49:11Z</time>
      </trkpt>
      <trkpt lat="46.545491" lon="6.781509">
        <ele>772.0</ele>
        <time>2012-03-30T16:49:14Z</time>
      </trkpt>
      <trkpt lat="46.54547" lon="6.781413">
        <ele>772.0</ele>
        <time>2012-03-30T16:49:17Z</time>
      </trkpt>
      <trkpt lat="46.545425" lon="6.781222">
        <ele>773.0</ele>
        <time>2012-03-30T16:49:23Z</time>
      </trkpt>
      <trkpt lat="46.545403" lon="6.781123">
        <ele>774.0</ele>
        <time>2012-03-30T16:49:26Z</time>
      </trkpt>
      <trkpt lat="46.545355" lon="6.780928">
        <ele>774.0</ele>
        <time>2012-03-30T16:49:32Z</time>
      </trkpt>
      <trkpt lat="46.545332" lon="6.78083">
        <ele>775.0</ele>
        <time>2012-03-30T16:49:35Z</time>
      </trkpt>
      <trkpt lat="46.545305" lon="6.780728">
        <ele>775.0</ele>
        <time>2012-03-30T16:49:38Z</time>
      </trkpt>
      <trkpt lat="46.545256" lon="6.780541">
        <ele>776.0</ele>
        <time>2012-03-30T16:49:44Z</time>
      </trkpt>
      <trkpt lat="46.545227" lon="6.780444">
        <ele>777.0</ele>
        <time>2012-03-30T16:49:47Z</time>
      </trkpt>
      <trkpt lat="46.545197" lon="6.780354">
        <ele>777.0</ele>
        <time>2012-03-30T16:49:50Z</time>
      </trkpt>
      <trkpt lat="46.545163" lon="6.780262">
        <ele>777.0</ele>
        <time>2012-03-30T16:49:53Z</time>
      </trkpt>
      <trkpt lat="46.545094" lon="6.780069">
        <ele>778.0</ele>
        <time>2012-03-30T16:49:59Z</time>
      </trkpt>
      <trkpt lat="46.545059" lon="6.779978">
        <ele>779.0</ele>
        <time>2012-03-30T16:50:02Z</time>
      </trkpt>
      <trkpt lat="46.544974" lon="6.779795">
        <ele>780.0</ele>
        <time>2012-03-30T16:50:08Z</time>
      </trkpt>
      <trkpt lat="46.544933" lon="6.779703">
        <ele>780.0</ele>
        <time>2012-03-30T16:50:11Z</time>
      </trkpt>
      <trkpt lat="46.544892" lon="6.779611">
        <ele>780.0</ele>
        <time>2012-03-30T16:50:14Z</time>
      </trkpt>
      <trkpt lat="46.544811" lon="6.779442">
        <ele>781.0</ele>
        <time>2012-03-30T16:50:20Z</time>
      </trkpt>
      <trkpt lat="46.544776" lon="6.779357">
        <ele>782.0</ele>
        <time>2012-03-30T16:50:23Z</time>
      </trkpt>
      <trkpt lat="46.544738" lon="6.779275">
        <ele>782.0</ele>
        <time>2012-03-30T16:50:26Z</time>
      </trkpt>
      <trkpt lat="46.544659" lon="6.779103">
        <ele>783.0</ele>
        <time>2012-03-30T16:50:32Z</time>
      </trkpt>
      <trkpt lat="46.544621" lon="6.779014">
        <ele>783.0</ele>
        <time>2012-03-30T16:50:35Z</time>
      </trkpt>
      <trkpt lat="46.544584" lon="6.778925">
        <ele>784.0</ele>
        <time>2012-03-30T16:50:38Z</time>
      </trkpt>
      <trkpt lat="46.544505" lon="6.77875">
        <ele>784.0</ele>
        <time>2012-03-30T16:50:44Z</time>
      </trkpt>
      <trkpt lat="46.544472" lon="6.778657">
        <ele>785.0</ele>
        <time>2012-03-30T16:50:47Z</time>
      </trkpt>
      <trkpt lat="46.544447" lon="6.778551">
        <ele>785.0</ele>
        <time>2012-03-30T16:50:50Z</time>
      </trkpt>
      <trkpt lat="46.544415" lon="6.778333">
        <ele>786.0</ele>
        <time>2012-03-30T16:50:56Z</time>
      </trkpt>
      <trkpt lat="46.544409" lon="6.778221">
        <ele>786.0</ele>
        <time>2012-03-30T16:50:59Z</time>
      </trkpt>
      <trkpt lat="46.544401" lon="6.778111">
        <ele>787.0</ele>
        <time>2012-03-30T16:51:02Z</time>
      </trkpt>
      <trkpt lat="46.544382" lon="6.777878">
        <ele>787.0</ele>
        <time>2012-03-30T16:51:08Z</time>
      </trkpt>
      <trkpt lat="46.544372" lon="6.777753">
        <ele>788.0</ele>
        <time>2012-03-30T16:51:11Z</time>
      </trkpt>
      <trkpt lat="46.544358" lon="6.777529">
        <ele>788.0</ele>
        <time>2012-03-30T16:51:15Z</time>
      </trkpt>
      <trkpt lat="46.544348" lon="6.777301">
        <ele>792.0</ele>
        <time>2012-03-30T16:51:19Z</time>
      </trkpt>
      <trkpt lat="46.544328" lon="6.777036">
        <ele>795.0</ele>
        <time>2012-03-30T16:51:23Z</time>
      </trkpt>
      <trkpt lat="46.544302" lon="6.776714">
        <ele>796.0</ele>
        <time>2012-03-30T16:51:27Z</time>
      </trkpt>
      <trkpt lat="46.544278" lon="6.776354">
        <ele>796.0</ele>
        <time>2012-03-30T16:51:31Z</time>
      </trkpt>
      <trkpt lat="46.544253" lon="6.775983">
        <ele>797.0</ele>
        <time>2012-03-30T16:51:35Z</time>
      </trkpt>
      <trkpt lat="46.544228" lon="6.775601">
        <ele>797.0</ele>
        <time>2012-03-30T16:51:39Z</time>
      </trkpt>
      <trkpt lat="46.54426" lon="6.775217">
        <ele>797.0</ele>
        <time>2012-03-30T16:51:43Z</time>
      </trkpt>
      <trkpt lat="46.544334" lon="6.774985">
        <ele>797.0</ele>
        <time>2012-03-30T16:51:46Z</time>
      </trkpt>
      <trkpt lat="46.54442" lon="6.774762">
        <ele>796.0</ele>
        <time>2012-03-30T16:51:50Z</time>
      </trkpt>
      <trkpt lat="46.544484" lon="6.774581">
        <ele>796.0</ele>
        <time>2012-03-30T16:51:55Z</time>
      </trkpt>
      <trkpt lat="46.544525" lon="6.774492">
        <ele>796.0</ele>
        <time>2012-03-30T16:51:58Z</time>
      </trkpt>
      <trkpt lat="46.544561" lon="6.774393">
        <ele>796.0</ele>
        <time>2012-03-30T16:52:01Z</time>
      </trkpt>
      <trkpt lat="46.544629" lon="6.774185">
        <ele>796.0</ele>
        <time>2012-03-30T16:52:07Z</time>
      </trkpt>
      <trkpt lat="46.544656" lon="6.774067">
        <ele>797.0</ele>
        <time>2012-03-30T16:52:10Z</time>
      </trkpt>
      <trkpt lat="46.544675" lon="6.773945">
        <ele>797.0</ele>
        <time>2012-03-30T16:52:13Z</time>
      </trkpt>
      <trkpt lat="46.544723" lon="6.773701">
        <ele>797.0</ele>
        <time>2012-03-30T16:52:19Z</time>
      </trkpt>
      <trkpt lat="46.544735" lon="6.773588">
        <ele>797.0</ele>
        <time>2012-03-30T16:52:22Z</time>
      </trkpt>
      <trkpt lat="46.544683" lon="6.77338">
        <ele>798.0</ele>
        <time>2012-03-30T16:52:26Z</time>
      </trkpt>
      <trkpt lat="46.544529" lon="6.773216">
        <ele>799.0</ele>
        <time>2012-03-30T16:52:30Z</time>
      </trkpt>
      <trkpt lat="46.544335" lon="6.77304">
        <ele>800.0</ele>
        <time>2012-03-30T16:52:34Z</time>
      </trkpt>
      <trkpt lat="46.544058" lon="6.772776">
        <ele>799.0</ele>
        <time>2012-03-30T16:52:39Z</time>
      </trkpt>
      <trkpt lat="46.543898" lon="6.772619">
        <ele>798.0</ele>
        <time>2012-03-30T16:52:42Z</time>
      </trkpt>
      <trkpt lat="46.543728" lon="6.772456">
        <ele>797.0</ele>
        <time>2012-03-30T16:52:46Z</time>
      </trkpt>
      <trkpt lat="46.54373" lon="6.772104">
        <ele>796.0</ele>
        <time>2012-03-30T16:52:51Z</time>
      </trkpt>
      <trkpt lat="46.543791" lon="6.771802">
        <ele>795.0</ele>
        <time>2012-03-30T16:52:54Z</time>
      </trkpt>
      <trkpt lat="46.543864" lon="6.771506">
        <ele>795.0</ele>
        <time>2012-03-30T16:52:58Z</time>
      </trkpt>
      <trkpt lat="46.543918" lon="6.771223">
        <ele>794.0</ele>
        <time>2012-03-30T16:53:02Z</time>
      </trkpt>
      <trkpt lat="46.543898" lon="6.771029">
        <ele>794.0</ele>
        <time>2012-03-30T16:53:06Z</time>
      </trkpt>
      <trkpt lat="46.543726" lon="6.770857">
        <ele>794.0</ele>
        <time>2012-03-30T16:53:10Z</time>
      </trkpt>
      <trkpt lat="46.543598" lon="6.77066">
        <ele>792.0</ele>
        <time>2012-03-30T16:53:14Z</time>
      </trkpt>
      <trkpt lat="46.543622" lon="6.770414">
        <ele>791.0</ele>
        <time>2012-03-30T16:53:18Z</time>
      </trkpt>
      <trkpt lat="46.543686" lon="6.770205">
        <ele>791.0</ele>
        <time>2012-03-30T16:53:23Z</time>
      </trkpt>
      <trkpt lat="46.543681" lon="6.770108">
        <ele>791.0</ele>
        <time>2012-03-30T16:53:26Z</time>
      </trkpt>
      <trkpt lat="46.543551" lon="6.770055">
        <ele>790.0</ele>
        <time>2012-03-30T16:53:30Z</time>
      </trkpt>
      <trkpt lat="46.543551" lon="6.770055">
        <time>2012-03-30T16:53:37Z</time>
      </trkpt>
    </trkseg>
  </trk>
</gpx>